[[{"header":{"parameterUnit":"m.s-1","parameterCategory":1,"la1":30.6,"la2":28.766,"lo1":-90.7593,"lo2":-88.6598,"dy":0.0162,"dx":0.0183,"nx":116,"ny":114,"refTime":"2023-04-23T18:00:00:Z","depth":0,"parameterNumber":2,"parameterNumberName":"U-component_of_WINDS"},"data":[0.0,0.0,0.0,0.0,0.0,0.0,0.0,0.0,0.0,0.0,0.0,0.0,0.0,0.0,0.0,0.0,0.0,0.0,0.0,0.0,0.0,0.0,0.0,0.0,0.0,0.0,0.0,0.0,0.0,0.0,0.0,0.0,0.0,0.0,0.0,0.0,0.0,0.0,0.0,0.0,0.0,0.0,0.0,0.0,0.0,0.0,0.0,0.0,0.0,0.0,0.0,0.0,0.0,0.0,0.0,0.0,0.0,0.0,0.0,0.0,0.0,0.0,0.0,0.0,0.0,0.0,0.0,0.0,0.0,0.0,0.0,0.0,0.0,0.0,0.0,0.0,0.0,0.0,0.0,0.0,0.0,0.0,0.0,0.0,0.0,0.0,0.0,0.0,0.0,0.0,0.0,0.0,0.0,0.0,0.0,0.0,0.0,0.0,0.0,0.0,0.0,0.0,0.0,0.0,0.0,0.0,0.0,0.0,0.0,0.0,0.0,0.0,0.0,0.0,0.0,0.0,0.0,0.0,0.0,0.0,0.0,0.0,0.0,0.0,0.0,0.0,0.0,0.0,0.0,0.0,0.0,0.0,0.0,0.0,0.0,0.0,0.0,0.0,0.0,0.0,0.0,0.0,0.0,0.0,0.0,0.0,0.0,0.0,0.0,0.0,0.0,0.0,0.0,0.0,0.0,0.0,0.0,0.0,0.0,0.0,0.0,0.0,0.0,0.0,0.0,0.0,0.0,0.0,0.0,0.0,0.0,0.0,0.0,0.0,0.0,0.0,0.0,0.0,0.0,0.0,0.0,0.0,0.0,0.0,0.0,0.0,0.0,0.0,0.0,0.0,0.0,0.0,0.0,0.0,0.0,0.0,0.0,0.0,0.0,0.0,0.0,0.0,0.0,0.0,0.0,0.0,0.0,0.0,0.0,0.0,0.0,0.0,0.0,0.0,0.0,0.0,0.0,0.0,0.0,0.0,0.0,0.0,0.0,0.0,0.0,0.0,0.0,0.0,0.0,0.0,0.0,0.0,0.0,0.0,0.0,0.0,0.0,0.0,0.0,0.0,0.0,0.0,0.0,0.0,0.0,0.0,0.0,0.0,0.0,0.0,0.0,0.0,0.0,0.0,0.0,0.0,0.0,0.0,0.0,0.0,0.0,0.0,0.0,0.0,0.0,0.0,0.0,0.0,0.0,0.0,0.0,0.0,0.0,0.0,0.0,0.0,0.0,0.0,0.0,0.0,0.0,0.0,0.0,0.0,0.0,0.0,0.0,0.0,0.0,0.0,0.0,0.0,0.0,0.0,0.0,0.0,0.0,0.0,0.0,0.0,0.0,0.0,0.0,0.0,0.0,0.0,0.0,0.0,0.0,0.0,0.0,0.0,0.0,0.0,0.0,0.0,0.0,0.0,0.0,0.0,0.0,0.0,0.0,0.0,0.0,0.0,0.0,0.0,0.0,0.0,0.0,0.0,0.0,0.0,0.0,0.0,0.0,0.0,0.0,0.0,0.0,0.0,0.0,0.0,0.0,0.0,0.0,0.0,0.0,0.0,0.0,0.0,0.0,0.0,0.0,0.0,0.0,0.0,0.0,0.0,0.0,0.0,0.0,0.0,0.0,0.0,0.0,0.0,0.0,0.0,0.0,0.0,0.0,0.0,0.0,0.0,0.0,0.0,0.0,0.0,0.0,0.0,0.0,0.0,0.0,0.0,0.0,0.0,0.0,0.0,0.0,0.0,0.0,0.0,0.0,0.0,0.0,0.0,0.0,0.0,0.0,0.0,0.0,0.0,0.0,0.0,0.0,0.0,0.0,0.0,0.0,0.0,0.0,0.0,0.0,0.0,0.0,0.0,0.0,0.0,0.0,0.0,0.0,0.0,0.0,0.0,0.0,0.0,0.0,0.0,0.0,0.0,0.0,0.0,0.0,0.0,0.0,0.0,0.0,0.0,0.0,0.0,0.0,0.0,0.0,0.0,0.0,0.0,0.0,0.0,0.0,0.0,0.0,0.0,0.0,0.0,0.0,0.0,0.0,0.0,0.0,0.0,0.0,0.0,0.0,0.0,0.0,0.0,0.0,0.0,0.0,0.0,0.0,0.0,0.0,0.0,0.0,0.0,0.0,0.0,0.0,0.0,0.0,0.0,0.0,0.0,0.0,0.0,0.0,0.0,0.0,0.0,0.0,0.0,0.0,0.0,0.0,0.0,0.0,0.0,0.0,0.0,0.0,0.0,0.0,0.0,0.0,0.0,0.0,0.0,0.0,0.0,0.0,0.0,0.0,0.0,0.0,0.0,0.0,0.0,0.0,0.0,0.0,0.0,0.0,0.0,0.0,0.0,0.0,0.0,0.0,0.0,0.0,0.0,0.0,0.0,0.0,0.0,0.0,0.0,0.0,0.0,0.0,0.0,0.0,0.0,0.0,0.0,0.0,0.0,0.0,0.0,0.0,0.0,0.0,0.0,0.0,0.0,0.0,0.0,0.0,0.0,0.0,0.0,0.0,0.0,0.0,0.0,0.0,0.0,0.0,0.0,0.0,0.0,0.0,0.0,0.0,0.0,0.0,0.0,0.0,0.0,0.0,0.0,0.0,0.0,0.0,0.0,0.0,0.0,0.0,0.0,0.0,0.0,0.0,0.0,0.0,0.0,0.0,0.0,0.0,0.0,0.0,0.0,0.0,0.0,0.0,0.0,0.0,0.0,0.0,0.0,0.0,0.0,0.0,0.0,0.0,0.0,0.0,0.0,0.0,0.0,0.0,0.0,0.0,0.0,0.0,0.0,0.0,0.0,0.0,0.0,0.0,0.0,0.0,0.0,0.0,0.0,0.0,0.0,0.0,0.0,0.0,0.0,0.0,0.0,0.0,0.0,0.0,0.0,0.0,0.0,0.0,0.0,0.0,0.0,0.0,0.0,0.0,0.0,0.0,0.0,0.0,0.0,0.0,0.0,0.0,0.0,0.0,0.0,0.0,0.0,0.0,0.0,0.0,0.0,0.0,0.0,0.0,0.0,0.0,0.0,0.0,0.0,0.0,0.0,0.0,0.0,0.0,0.0,0.0,0.0,0.0,0.0,0.0,0.0,0.0,0.0,0.0,0.0,0.0,0.0,0.0,0.0,0.0,0.0,0.0,0.0,0.0,0.0,0.0,0.0,0.0,0.0,0.0,0.0,0.0,0.0,0.0,0.0,0.0,0.0,0.0,0.0,0.0,0.0,0.0,0.0,0.0,0.0,0.0,0.0,0.0,0.0,0.0,0.0,0.0,0.0,0.0,0.0,0.0,0.0,0.0,0.0,0.0,0.0,0.0,0.0,0.0,0.0,0.0,0.0,0.0,0.0,0.0,0.0,0.0,0.0,0.0,0.0,0.0,0.0,0.0,0.0,0.0,0.0,0.0,0.0,0.0,0.0,0.0,0.0,0.0,0.0,0.0,0.0,0.0,0.0,0.0,0.0,0.0,0.0,0.0,0.0,0.0,0.0,0.0,0.0,0.0,0.0,0.0,0.0,0.0,0.0,0.0,0.0,0.0,0.0,0.0,0.0,0.0,0.0,0.0,0.0,0.0,0.0,0.0,0.0,0.0,0.0,0.0,0.0,0.0,0.0,0.0,0.0,0.0,0.0,0.0,0.0,0.0,0.0,0.0,0.0,0.0,0.0,0.0,0.0,0.0,0.0,0.0,0.0,0.0,0.0,0.0,0.0,0.0,0.0,0.0,0.0,0.0,0.0,0.0,0.0,0.0,0.0,0.0,0.0,0.0,0.0,0.0,0.0,0.0,0.0,0.0,0.0,0.0,0.0,0.0,0.0,0.0,0.0,0.0,0.0,0.0,0.0,0.0,0.0,0.0,0.0,0.0,0.0,0.0,0.0,0.0,0.0,0.0,0.0,0.0,0.0,0.0,0.0,0.0,0.0,0.0,0.0,0.0,0.0,0.0,0.0,0.0,0.0,0.0,0.0,0.0,0.0,0.0,0.0,0.0,0.0,0.0,0.0,0.0,0.0,0.0,0.0,0.0,0.0,0.0,0.0,0.0,0.0,0.0,0.0,0.0,0.0,0.0,0.0,0.0,0.0,0.0,0.0,0.0,0.0,0.0,0.0,0.0,0.0,0.0,0.0,0.0,0.0,0.0,0.0,0.0,0.0,0.0,0.0,0.0,0.0,0.0,0.0,0.0,0.0,0.0,0.0,0.0,0.0,0.0,0.0,0.0,0.0,0.0,0.0,0.0,0.0,0.0,0.0,0.0,0.0,0.0,0.0,0.0,0.0,0.0,0.0,0.0,0.0,0.0,0.0,0.0,0.0,0.0,0.0,0.0,0.0,0.0,0.0,0.0,0.0,0.0,0.0,0.0,0.0,0.0,0.0,0.0,0.0,0.0,0.0,0.0,0.0,0.0,0.0,0.0,0.0,0.0,0.0,0.0,0.0,0.0,0.0,0.0,0.0,0.0,0.0,0.0,0.0,0.0,0.0,0.0,0.0,0.0,0.0,0.0,0.0,0.0,0.0,0.0,0.0,0.0,0.0,0.0,0.0,0.0,0.0,0.0,0.0,0.0,0.0,0.0,0.0,0.0,0.0,0.0,0.0,0.0,0.0,0.0,0.0,0.0,0.0,0.0,0.0,0.0,0.0,0.0,0.0,0.0,0.0,0.0,0.0,0.0,0.0,0.0,0.0,0.0,0.0,0.0,0.0,0.0,0.0,0.0,0.0,0.0,0.0,0.0,0.0,0.0,0.0,0.0,0.0,0.0,0.0,0.0,0.0,0.0,0.0,0.0,0.0,0.0,0.0,0.0,0.0,0.0,0.0,0.0,0.0,0.0,0.0,0.0,0.0,0.0,0.0,0.0,0.0,0.0,0.0,0.0,0.0,0.0,0.0,0.0,0.0,0.0,0.0,0.0,0.0,0.0,0.0,0.0,0.0,0.0,0.0,0.0,0.0,0.0,0.0,0.0,0.0,0.0,0.0,0.0,0.0,0.0,0.0,0.0,0.0,0.0,0.0,0.0,0.0,0.0,0.0,0.0,0.0,0.0,0.0,0.0,0.0,0.0,0.0,0.0,0.0,0.0,0.0,0.0,0.0,0.0,0.0,0.0,0.0,0.0,0.0,0.0,0.0,0.0,0.0,0.0,0.0,0.0,0.0,0.0,0.0,0.0,0.0,0.0,0.0,0.0,0.0,0.0,0.0,0.0,0.0,0.0,0.0,0.0,0.0,0.0,0.0,0.0,0.0,0.0,0.0,0.0,0.0,0.0,0.0,0.0,0.0,0.0,0.0,0.0,0.0,0.0,0.0,0.0,0.0,0.0,0.0,0.0,0.0,0.0,0.0,0.0,0.0,0.0,0.0,0.0,0.0,0.0,0.0,0.0,0.0,0.0,0.0,0.0,0.0,0.0,0.0,0.0,0.0,0.0,0.0,0.0,0.0,0.0,0.0,0.0,0.0,0.0,0.0,0.0,0.0,0.0,0.0,0.0,0.0,0.0,0.0,0.0,0.0,0.0,0.0,0.0,0.0,0.0,0.0,0.0,0.0,0.0,0.0,0.0,0.0,0.0,0.0,0.0,0.0,0.0,0.0,0.0,0.0,0.0,0.0,0.0,0.0,0.0,0.0,0.0,0.0,0.0,0.0,0.0,0.0,0.0,0.0,0.0,0.0,0.0,0.0,0.0,0.0,0.0,0.0,0.0,0.0,0.0,0.0,0.0,0.0,0.0,0.0,0.0,0.0,0.0,0.0,0.0,0.0,0.0,0.0,0.0,0.0,0.0,0.0,0.0,0.0,0.0,0.0,0.0,0.0,0.0,0.0,0.0,0.0,0.0,0.0,0.0,0.0,0.0,0.0,0.0,0.0,0.0,0.0,0.0,0.0,0.0,0.0,0.0,0.0,0.0,0.0,0.0,0.0,0.0,0.0,0.0,0.0,0.0,0.0,0.0,0.0,0.0,0.0,0.0,0.0,0.0,0.0,0.0,0.0,0.0,0.0,0.0,0.0,0.0,0.0,0.0,0.0,0.0,0.0,0.0,0.0,0.0,0.0,0.0,0.0,0.0,0.0,0.0,0.0,0.0,0.0,0.0,0.0,0.0,0.0,0.0,0.0,0.0,0.0,-1.8565,-1.6911,0.0,0.0,0.0,0.0,0.0,0.0,0.0,0.0,0.0,0.0,0.0,0.0,0.0,0.0,0.0,0.0,0.0,0.0,0.0,0.0,0.0,0.0,0.0,0.0,0.0,0.0,0.0,0.0,0.0,0.0,0.0,0.0,0.0,0.0,0.0,0.0,0.0,0.0,-1.569,-1.6462,-1.7971,-1.8086,-1.7662,-1.6837,0.0,0.0,0.0,0.0,0.0,0.0,0.0,0.0,0.0,0.0,0.0,0.0,0.0,0.0,0.0,0.0,0.0,0.0,0.0,0.0,0.0,0.0,0.0,0.0,0.0,0.0,0.0,0.0,0.0,0.0,0.0,0.0,0.0,0.0,0.0,0.0,0.0,0.0,0.0,0.0,0.0,0.0,0.0,0.0,0.0,0.0,0.0,0.0,0.0,0.0,0.0,0.0,0.0,0.0,0.0,0.0,0.0,0.0,0.0,0.0,0.0,0.0,0.0,0.0,0.0,0.0,0.0,0.0,0.0,0.0,-2.1898,-2.0006,0.0,0.0,0.0,0.0,0.0,0.0,0.0,0.0,0.0,0.0,0.0,0.0,0.0,0.0,0.0,0.0,0.0,0.0,0.0,0.0,0.0,0.0,0.0,-2.2931,-2.2808,-2.3745,-2.1903,-2.1215,0.0,0.0,0.0,0.0,0.0,0.0,0.0,-1.6277,-1.5871,-1.5501,-1.6467,-1.7835,-1.957,-1.9492,-1.8434,-1.6586,-1.6197,0.0,0.0,0.0,0.0,0.0,0.0,0.0,0.0,0.0,0.0,0.0,0.0,0.0,0.0,0.0,0.0,0.0,0.0,0.0,0.0,0.0,0.0,0.0,0.0,0.0,0.0,0.0,0.0,0.0,0.0,0.0,0.0,0.0,0.0,0.0,0.0,0.0,0.0,0.0,0.0,0.0,0.0,0.0,0.0,0.0,0.0,0.0,0.0,0.0,0.0,0.0,0.0,0.0,0.0,0.0,0.0,0.0,0.0,0.0,0.0,0.0,0.0,0.0,-2.2719,-2.3444,-2.4668,-2.4517,-2.4838,-2.5603,-2.6586,-2.4762,-2.0997,-2.0038,0.0,0.0,0.0,0.0,0.0,0.0,0.0,0.0,0.0,0.0,0.0,0.0,0.0,0.0,0.0,0.0,0.0,0.0,0.0,0.0,0.0,-2.2127,-2.1097,-2.2264,-2.1135,-2.0395,-2.0478,0.0,0.0,0.0,0.0,0.0,-1.5912,-1.5622,-1.6302,-1.7854,-1.9387,-2.0261,-2.0523,-2.0284,-1.978,-1.8973,-1.8137,-1.7409,-1.6785,0.0,0.0,0.0,0.0,0.0,0.0,0.0,0.0,0.0,0.0,0.0,0.0,0.0,0.0,0.0,0.0,0.0,0.0,0.0,0.0,0.0,0.0,0.0,0.0,0.0,0.0,0.0,0.0,0.0,0.0,0.0,0.0,0.0,0.0,0.0,0.0,0.0,0.0,0.0,0.0,0.0,-2.054,-1.8486,0.0,0.0,0.0,0.0,0.0,0.0,0.0,0.0,0.0,0.0,0.0,0.0,0.0,-2.0755,-2.0973,-2.1152,-2.157,-2.2273,-2.4038,-2.5584,-2.7059,-2.9297,-3.0846,-3.1784,-3.2396,0.0,-2.4818,-2.1883,0.0,0.0,0.0,0.0,0.0,0.0,0.0,0.0,0.0,0.0,0.0,0.0,0.0,0.0,0.0,0.0,0.0,0.0,0.0,0.0,0.0,-2.3243,-2.301,-2.3293,-2.3678,-2.3375,-2.214,-2.2347,0.0,0.0,0.0,-1.8094,-1.636,-1.6866,-1.8115,-2.0044,-2.0908,-2.1718,-2.2445,-2.2308,-2.2062,-2.175,-2.1319,-2.0171,-1.8494,-1.7756,0.0,0.0,0.0,0.0,0.0,0.0,0.0,0.0,0.0,0.0,0.0,0.0,0.0,0.0,0.0,0.0,0.0,0.0,0.0,0.0,0.0,0.0,0.0,0.0,0.0,0.0,0.0,0.0,0.0,0.0,0.0,0.0,0.0,0.0,0.0,0.0,0.0,0.0,0.0,-1.879,-1.9474,-1.6561,-1.7046,-1.6709,0.0,0.0,0.0,0.0,0.0,0.0,0.0,0.0,0.0,-2.0006,-2.149,-2.2611,-2.3294,-2.4715,-2.5617,-2.6052,-2.6671,-2.7462,-2.8395,-3.012,-3.0955,-3.1027,-3.2114,-3.1253,-2.8699,-2.6239,-2.4646,-2.3797,0.0,0.0,0.0,0.0,-2.1398,-2.0822,0.0,0.0,0.0,0.0,0.0,0.0,0.0,0.0,0.0,0.0,0.0,0.0,-2.387,-2.4309,-2.4637,-2.4869,-2.5907,-2.5756,-2.3745,-2.3304,-2.2005,-1.9327,-1.9124,-1.8416,-1.7027,-1.8467,-2.0156,-2.2103,-2.2539,-2.3183,-2.4013,-2.3919,-2.3821,-2.3733,-2.3689,-2.2424,-2.0375,-1.9387,-1.9086,-1.9345,0.0,0.0,0.0,0.0,0.0,0.0,0.0,0.0,0.0,0.0,0.0,0.0,0.0,0.0,0.0,0.0,0.0,0.0,0.0,0.0,0.0,0.0,0.0,0.0,0.0,0.0,0.0,0.0,0.0,0.0,0.0,0.0,0.0,0.0,0.0,0.0,0.0,-1.8448,-1.9488,-1.579,-1.7407,-1.7823,0.0,0.0,0.0,0.0,0.0,0.0,-1.8354,-1.9947,-2.1239,-2.2205,-2.3677,-2.4814,-2.5564,-2.7545,-2.8588,-2.8912,-2.8505,-2.8612,-2.9152,-3.0055,-3.0213,-2.9788,-3.1136,-3.1588,-3.1221,-2.9034,-2.7457,-2.6178,-2.5445,-2.5028,-2.4952,-2.5459,-2.4869,-2.3913,0.0,0.0,0.0,0.0,0.0,0.0,0.0,0.0,0.0,0.0,0.0,-2.2439,-2.5684,-2.4581,-2.4339,-2.6236,-2.6266,-2.5497,-2.3816,-2.2438,-2.1184,-1.9881,-1.8348,-1.7567,-1.7595,-1.9977,-2.2143,-2.3939,-2.4598,-2.4805,-2.4686,-2.4357,-2.4299,-2.4428,-2.4086,-2.3349,-2.2457,-2.238,-2.2,-2.1344,-2.0412,0.0,0.0,0.0,0.0,0.0,0.0,0.0,0.0,0.0,0.0,0.0,0.0,0.0,0.0,0.0,0.0,0.0,0.0,0.0,0.0,0.0,0.0,0.0,0.0,0.0,0.0,0.0,0.0,0.0,0.0,0.0,0.0,0.0,0.0,0.0,0.0,0.0,0.0,-1.8518,-1.9748,0.0,0.0,0.0,0.0,-1.9445,-1.9102,-1.8903,-1.9093,-2.17,-2.3345,-2.3558,-2.6207,-2.7729,-2.7707,-2.783,-2.8136,-2.8545,-2.8459,-2.8717,-2.9083,-3.0028,-3.0351,-3.0387,-3.1237,-3.1641,-3.1384,-2.8509,-2.7112,-2.6679,-2.5925,-2.4838,-2.3869,-2.6296,-2.6784,-2.6214,0.0,0.0,0.0,0.0,0.0,0.0,0.0,0.0,-2.5495,-2.5799,-2.4092,-2.4069,-2.7317,-2.7227,-2.7116,-2.7544,-2.8573,-2.8356,-2.637,-2.4852,-2.2672,-1.9525,-1.9034,-1.9201,-1.9932,-2.171,-2.3319,-2.4708,-2.5049,-2.5279,-2.5456,-2.5641,-2.579,-2.5863,-2.5699,-2.5484,-2.5083,-2.4147,-2.3693,-2.3699,-2.2948,-2.2023,0.0,0.0,0.0,0.0,0.0,0.0,0.0,0.0,0.0,0.0,0.0,0.0,0.0,0.0,0.0,0.0,0.0,0.0,0.0,0.0,0.0,0.0,0.0,0.0,0.0,0.0,0.0,0.0,0.0,0.0,0.0,0.0,0.0,0.0,0.0,0.0,0.0,-1.9677,-2.0723,0.0,-1.9122,-1.8537,-1.8903,-2.0368,-2.1642,-2.2461,-2.2757,-2.4395,-2.568,-2.6362,-2.677,-2.7304,-2.793,-2.8243,-2.821,-2.7909,-2.8239,-2.8382,-2.8462,-2.9342,-2.9613,-2.9387,-3.0348,-3.0351,-2.975,-2.8688,-2.8941,-2.9874,-2.9571,-2.8833,-2.7939,-2.8868,-2.8654,-2.7916,0.0,0.0,0.0,0.0,0.0,0.0,0.0,0.0,-2.6285,-2.698,-2.5155,-2.5464,-2.9912,-3.1136,-3.1162,-2.9944,-3.0878,-3.0283,-2.7448,-2.5684,-2.3301,-2.0153,-2.008,-2.0934,-2.2579,-2.3187,-2.4164,-2.5639,-2.5637,-2.5622,-2.5549,-2.5874,-2.6041,-2.6135,-2.6135,-2.6385,-2.6719,-2.5739,-2.5391,-2.5506,-2.518,-2.3875,-2.2128,0.0,0.0,0.0,0.0,0.0,0.0,0.0,0.0,0.0,0.0,0.0,0.0,0.0,0.0,0.0,0.0,0.0,0.0,0.0,0.0,0.0,0.0,0.0,0.0,0.0,0.0,0.0,0.0,0.0,0.0,0.0,0.0,0.0,0.0,0.0,-2.1115,-2.0236,-2.1435,-2.1937,-2.0958,-2.0591,-2.1008,-2.2525,-2.3864,-2.4711,-2.4898,-2.5799,-2.6637,-2.7277,-2.6977,-2.7072,-2.7706,-2.8021,-2.7991,-2.753,-2.7859,-2.7914,-2.7809,-2.8609,-2.8806,-2.856,-2.9371,-2.9371,-2.8757,-2.8757,-2.9555,-3.0699,-3.0956,-3.0789,-3.026,-3.0519,-3.026,-2.9726,0.0,0.0,0.0,0.0,0.0,0.0,0.0,-2.7367,-2.7254,-2.9192,-2.6236,-2.6561,-3.3446,-3.5985,-3.612,-3.3321,-3.2844,-3.0956,-2.6866,-2.4708,-2.2971,-2.1764,-2.1452,-2.2571,-2.5149,-2.4263,-2.4659,-2.6561,-2.655,-2.5957,-2.4744,-2.4829,-2.4925,-2.5189,-2.5189,-2.5957,-2.7231,-2.7149,-2.6974,-2.6659,-2.6732,-2.4888,-2.2093,0.0,0.0,0.0,0.0,0.0,0.0,0.0,0.0,0.0,0.0,0.0,0.0,0.0,0.0,0.0,0.0,0.0,0.0,0.0,0.0,0.0,0.0,0.0,0.0,0.0,0.0,0.0,0.0,0.0,0.0,0.0,0.0,0.0,-1.8464,-2.1619,-2.3084,-2.0593,-2.206,-2.3401,-2.3586,-2.2835,-2.3402,-2.6051,-2.5574,-2.5229,-2.531,-2.5889,-2.6196,-2.6196,-2.6929,-2.7262,-2.7262,-2.7262,-2.7262,-2.7262,-2.7262,-2.7262,-2.7357,-2.7809,-2.7998,-2.7998,-2.856,-2.8757,-2.8757,-2.8757,-2.8757,-2.8932,-2.9818,-3.017,-3.026,-3.1134,-3.1488,-3.14,0.0,0.0,0.0,0.0,0.0,0.0,0.0,-2.776,-2.8118,-3.0329,-3.0006,-3.1326,-3.5932,-3.532,-3.4334,-3.3547,-3.2165,-3.0095,-2.6944,-2.6371,-2.4837,-2.1834,-2.2179,-2.2804,-2.3556,-2.4513,-2.4924,-2.485,-2.4978,-2.4713,-2.4059,-2.4723,-2.5231,-2.5673,-2.5673,-2.6196,-2.7149,-2.6857,-2.6857,-2.7044,-2.6909,-2.6096,-2.4789,0.0,0.0,0.0,0.0,0.0,0.0,0.0,0.0,0.0,0.0,0.0,0.0,0.0,0.0,0.0,0.0,0.0,0.0,0.0,0.0,0.0,0.0,0.0,0.0,0.0,0.0,0.0,0.0,0.0,0.0,0.0,0.0,-2.3056,-2.2364,-2.3207,-2.399,-2.4191,-2.4273,-2.4516,-2.4957,-2.4897,-2.534,-2.664,-2.6523,-2.6523,-2.6701,-2.6909,-2.6971,-2.6971,-2.7189,-2.7262,-2.7262,-2.7262,-2.7262,-2.7262,-2.7262,-2.7357,-2.7547,-2.7809,-2.8092,-2.829,-2.8664,-2.8757,-2.8757,-2.8757,-2.8757,-2.885,-2.9117,-2.9198,-2.9198,-2.9463,-2.9646,-2.9829,0.0,0.0,0.0,0.0,0.0,0.0,0.0,-2.7726,-2.8306,-3.0553,-3.1996,-3.3766,-3.6464,-3.5698,-3.4711,-3.3958,-3.223,-2.9958,-2.7058,-2.5847,-2.4542,-2.2885,-2.2951,-2.3205,-2.3535,-2.4502,-2.4788,-2.4247,-2.4574,-2.44,-2.3731,-2.412,-2.4372,-2.4628,-2.4628,-2.5158,-2.603,-2.6163,-2.6329,-2.661,-2.6445,-2.5891,-2.5054,-2.4646,-2.3199,-2.135,-2.0777,-1.9781,-1.8643,-1.7935,0.0,0.0,0.0,0.0,0.0,0.0,0.0,0.0,0.0,0.0,0.0,0.0,0.0,0.0,0.0,0.0,0.0,0.0,0.0,0.0,0.0,0.0,0.0,0.0,-2.2876,-2.5018,-2.4917,-2.4928,-2.5244,-2.5849,-2.5712,-2.5644,-2.5904,-2.6114,-2.6415,-2.688,-2.6986,-2.7177,-2.7452,-2.7357,-2.7357,-2.7452,-2.7357,-2.7357,-2.7452,-2.7357,-2.7357,-2.7452,-2.7536,-2.7631,-2.7809,-2.8279,-2.8466,-2.8571,-2.885,-2.885,-2.8757,-2.8757,-2.885,-2.8943,0.0,0.0,0.0,0.0,-2.922,-2.9508,0.0,0.0,0.0,0.0,0.0,0.0,0.0,-2.747,-2.8215,-3.0465,-3.2547,-3.4389,-3.5961,-3.6601,-3.6174,-3.4486,-3.2568,-3.0168,-2.7191,-2.436,-2.3301,-2.4538,-2.3914,-2.3897,-2.4426,-2.4445,-2.4325,-2.4078,-2.4434,-2.4197,-2.3267,-2.3005,-2.2891,-2.2979,-2.3028,-2.3617,-2.4584,-2.5231,-2.5568,-2.5663,-2.5735,-2.5054,-2.4029,-2.4456,-2.3369,-2.1603,-2.1141,-2.0977,-2.0752,-1.9288,0.0,0.0,0.0,0.0,0.0,0.0,0.0,0.0,0.0,0.0,0.0,0.0,0.0,0.0,0.0,0.0,0.0,0.0,0.0,0.0,0.0,0.0,0.0,0.0,-2.3443,-2.5654,-2.637,-2.6506,-2.64,-2.6197,-2.64,-2.6506,-2.6506,-2.6794,-2.6996,-2.6996,-2.7177,-2.7452,-2.7641,-2.7441,0.0,0.0,0.0,-2.7452,-2.7631,-2.7452,-2.7452,-2.7631,-2.7809,-2.7998,-2.8092,-2.8746,-2.8943,-2.885,-2.9035,-2.8943,-2.8757,-2.885,-2.8943,-2.9128,-2.8943,-2.9035,-2.922,-2.9497,-2.9691,-2.9886,0.0,0.0,0.0,0.0,0.0,0.0,0.0,-2.7816,-2.8613,-3.2,-3.2127,-3.3231,-3.6662,-3.6434,-3.554,-3.4412,-3.2115,-2.9776,-2.7653,-2.5079,-2.4215,-2.5519,-2.5485,-2.4977,-2.4118,-2.454,-2.3809,-2.198,-2.1861,-2.1375,-2.0479,-2.1278,-2.1926,-2.2298,-2.288,-2.3617,-2.4488,-2.418,-2.4361,-2.4744,-2.5136,-2.5311,-2.5333,-2.4776,-2.3716,-2.2565,-2.2993,-2.2179,-2.0788,-2.0736,-2.0071,-1.9029,-1.8115,-1.7264,0.0,0.0,0.0,0.0,0.0,0.0,0.0,0.0,0.0,0.0,0.0,0.0,0.0,0.0,0.0,0.0,0.0,0.0,0.0,-2.1303,-2.4712,-2.7211,-2.6542,-2.6699,-2.6699,-2.6496,-2.6699,-2.6805,-2.6805,-2.7081,-2.7262,-2.7452,-2.7536,-2.7547,-2.7631,-2.7809,-2.7809,-2.7641,-2.7809,-2.7809,-2.7631,-2.7547,-2.7547,-2.7631,-2.7631,0.0,-2.829,-2.8664,-2.885,-2.885,-2.9035,-2.8943,-2.885,-2.8943,-2.922,-2.9393,-2.9393,-2.9393,-2.9497,-2.9691,-2.9886,-2.9886,0.0,0.0,0.0,0.0,0.0,0.0,0.0,-2.7794,-2.8243,-3.0802,-3.074,-3.1583,-3.4522,-3.425,-3.3529,-3.2845,-3.0625,-2.8713,-2.7394,-2.6387,-2.6246,-2.7211,-2.6723,-2.5508,-2.3444,-2.4148,-2.3391,-2.1083,-2.1162,-2.1063,-2.0573,-2.0848,-2.1142,-2.1419,-2.2138,-2.2677,-2.3115,-2.3597,-2.3856,-2.4145,-2.4382,-2.4638,-2.4904,-2.3963,-2.326,-2.2648,-2.2589,-2.2157,-2.156,-2.1351,-2.077,-2.0035,-1.9046,-1.8083,-1.6996,0.0,0.0,0.0,0.0,0.0,0.0,0.0,0.0,0.0,0.0,0.0,0.0,0.0,0.0,-1.8672,0.0,0.0,-2.316,-2.2875,-2.5437,-2.7347,-2.6976,-2.6986,-2.7071,-2.688,-2.6986,-2.7167,-2.7452,-2.7452,-2.7536,-2.7809,-2.7809,-2.782,-2.8008,-2.7998,-2.7998,-2.8019,-2.8102,-2.8102,-2.8019,-2.8092,-2.8186,-2.8196,-2.8466,-2.8653,-2.8943,-2.9301,-2.9497,-2.9324,-2.9416,-2.9312,-2.8943,-2.922,-2.9497,-2.9691,-2.976,-2.9772,-2.9691,-2.9966,-3.0057,-3.0057,0.0,0.0,0.0,0.0,0.0,0.0,0.0,-2.7832,-2.7975,-2.945,-2.9692,-3.041,-3.2286,-3.2243,-3.1704,-3.0698,-2.9373,-2.817,-2.7222,-2.7826,-2.847,-2.8907,-2.7917,-2.6213,-2.3725,-2.4161,-2.3411,-2.1138,-2.1114,-2.1114,-2.113,-2.0819,-2.0679,-2.0873,-2.1536,-2.1909,-2.1998,-2.3115,-2.3541,-2.3627,-2.3637,-2.3724,-2.3724,-2.2833,-2.2482,-2.2394,-2.1651,-2.1621,-2.1836,-2.1498,-2.1087,-2.0545,-1.9589,-1.8811,-1.7705,-1.4817,-1.4253,0.0,0.0,0.0,0.0,0.0,0.0,0.0,0.0,0.0,-1.9345,-2.1471,-2.189,-2.1886,-2.1886,-2.3345,-2.4517,-2.4333,-2.5808,-2.7081,-2.7262,-2.7357,-2.7357,-2.7441,-2.7357,-2.7536,-2.7998,-2.7726,-2.7726,-2.8092,-2.8092,-2.8196,-2.8488,-2.8279,-2.8279,-2.8488,-2.8488,-2.8581,-2.8581,-2.8746,-2.8828,-2.885,-2.9209,-2.9485,-2.9588,-2.9954,-3.0057,-2.9897,-2.9907,-2.9609,-2.9324,-2.9505,-2.977,-2.9977,-3.0136,-3.0136,-2.9977,-3.0136,-3.0216,-3.0216,0.0,0.0,0.0,0.0,0.0,0.0,0.0,0.0,-2.8862,-3.0282,-3.051,-3.1099,-3.2606,-3.2723,-3.1467,-2.8484,-2.9581,-2.9778,-2.8088,-2.9338,-3.02,-3.0295,-2.9218,-2.8026,-2.6875,-2.5612,-2.4234,-2.2568,-2.0655,-1.9797,-1.9892,-2.0272,-2.0718,-2.1327,-2.2057,-2.252,-2.2969,-2.2696,-2.2784,-2.3135,-2.296,-2.2794,-2.252,-2.1989,-2.182,-2.182,-2.1482,-2.0835,-2.0247,-2.0855,-2.0448,-1.9627,-1.9273,-1.9264,-1.8845,-1.6053,-1.5763,-1.6071,-1.4463,-1.5685,-1.7694,-1.8701,-1.9317,-1.9982,0.0,0.0,-2.0564,-2.1053,-2.1296,-2.1343,-2.1343,-2.2961,-2.4333,-2.4282,-2.597,-2.7262,-2.7262,-2.7452,-2.7631,-2.7904,-2.7715,-2.7726,-2.7998,-2.7726,-2.7914,-2.8653,-2.8477,-2.8488,-2.8757,-2.8943,-2.8943,-2.8757,-2.8943,-2.9035,-2.9035,-2.9035,-2.9035,-2.9035,-2.9128,-2.9405,-2.9886,-2.9886,-2.9886,-2.992,-2.9907,-2.984,-2.9828,-3.0072,-3.0167,-3.0125,-3.0216,-3.0216,-3.0125,-3.0216,-3.0216,-3.0216,0.0,0.0,0.0,0.0,0.0,0.0,0.0,0.0,0.0,-2.8988,-2.8999,-2.9176,-2.9992,-2.9984,-2.901,-2.6833,-2.8703,-2.9687,-2.8973,-3.0439,-3.1198,-3.0879,-3.0105,-2.8965,-2.7436,-2.6299,-2.4888,-2.3281,-2.1934,-2.117,-2.1122,-2.1278,-2.1828,-2.2557,-2.2429,-2.2775,-2.3464,-2.3047,-2.3105,-2.3407,-2.2802,-2.285,-2.3051,-2.1922,-2.1562,-2.1587,-2.1025,-2.011,0.0,-2.0208,-2.0101,-1.9755,-2.0382,-1.9601,-1.8347,-1.7398,-1.6853,-1.6869,-1.828,-1.9282,-2.0273,0.0,-2.2419,-2.2556,-2.3188,-2.2824,-2.2732,-2.3761,-2.4283,-2.4557,-2.4557,-2.5337,-2.6022,0.0,-2.6858,-2.7441,-2.7441,-2.7831,-2.8196,-2.8466,-2.8466,-2.856,-2.8653,-2.8571,-2.8664,-2.9209,-2.9128,-2.9128,-2.9209,-2.9128,-2.9128,-2.9209,-2.9301,-2.9312,-2.9312,-2.9577,-2.968,-2.9611,-2.968,-2.9863,-3.0045,-3.0045,-3.0045,-3.0068,-2.9928,-2.9986,-3.0068,-3.0009,-3.0056,-3.0216,-3.0216,-3.0216,-3.0216,-3.0216,-3.0216,-3.0216,0.0,0.0,0.0,0.0,0.0,0.0,0.0,0.0,0.0,0.0,-2.798,-2.7931,-2.7997,-2.7677,-2.698,-2.5856,-2.7767,-2.9184,-2.9497,-3.0797,-3.158,-3.17,-3.1016,-2.9947,-2.8642,-2.753,-2.6245,-2.4688,-2.3852,-2.318,-2.2779,-2.2984,-2.3464,-2.4016,-2.3536,-2.3627,-2.4145,-2.3983,-2.3907,-2.3929,-2.3477,-2.3389,-2.3471,-2.2246,-2.1344,-2.0622,-2.021,-1.9358,-1.8581,-1.915,-1.9044,-1.8876,-1.9809,-1.905,-1.7804,-1.7618,-1.7128,-1.7263,-2.0291,-2.1324,-2.2129,-2.425,-2.4586,-2.4582,-2.4957,-2.4683,-2.4673,-2.5806,-2.6496,-2.6805,-2.6805,-2.6986,-2.7167,-2.7262,-2.7452,-2.7631,-2.7831,-2.8207,-2.8571,-2.885,-2.9128,-2.9312,-2.9312,-2.922,-2.922,-2.9485,-2.9485,-2.9485,-2.9485,-2.9405,-2.9416,-2.9588,-2.9588,-2.968,-2.9669,-3.0034,-3.0136,-2.9977,-3.0136,-3.0216,-3.0216,-3.0216,-3.0216,-3.0227,-3.0114,-3.0091,-3.0227,-3.0114,-3.0182,-3.0216,-3.0216,-3.0216,-3.0216,-3.0216,-3.0216,-3.0216,0.0,0.0,0.0,0.0,0.0,0.0,0.0,0.0,0.0,0.0,0.0,0.0,0.0,-2.7036,-2.6308,-2.5645,-2.7102,-2.8456,-2.9424,-3.0184,-3.1332,-3.301,-3.2118,-3.1637,-3.156,-3.0045,-2.8693,-2.7597,-2.6367,-2.5278,-2.4326,-2.5096,-2.5539,-2.5695,-2.5673,-2.5505,-2.5189,-2.5589,-2.5274,-2.4563,-2.5135,-2.4518,-2.3109,-2.284,-2.0866,-1.8288,-1.9038,-1.8798,-1.8011,-1.7506,-1.6747,-1.6129,-1.6253,-1.7223,-1.7888,-1.5979,-1.6071,-1.7281,-1.8901,-2.0611,-2.2355,-2.4162,-2.5109,-2.5674,-2.5674,-2.5858,-2.6051,-2.6091,-2.6294,-2.6496,-2.6496,-2.6699,-2.6996,-2.7262,-2.7452,-2.7831,-2.8301,-2.8571,-2.885,-2.9035,-2.9519,-2.9897,0.0,-2.9416,-2.922,-2.9485,-2.9485,-2.9485,-2.9485,-2.9783,-2.9886,-2.9897,-2.9897,-2.9966,-3.0216,-3.0216,-3.0216,-3.0216,-3.0216,-3.0216,-3.0216,-3.0216,-3.0216,-3.0239,-3.0455,-3.0398,-3.0262,-3.0466,-3.0387,-3.0216,-3.0216,-3.0216,-3.0216,-3.0216,-3.0216,-3.0216,0.0,0.0,0.0,0.0,0.0,0.0,0.0,0.0,0.0,0.0,0.0,0.0,0.0,0.0,0.0,0.0,-2.6818,-2.7483,-2.7845,-2.9353,-3.0465,-3.0811,-3.1527,-3.1884,-3.1737,-3.0362,-2.9054,-2.7864,-2.721,-2.6352,-2.5217,-2.591,-2.6497,-2.7049,-2.6223,-2.608,-2.6517,-2.5997,-2.5775,-2.5741,-2.5093,-2.44,-2.3643,-2.238,-2.0978,-1.9529,0.0,-1.7501,-1.6564,-1.672,-1.6802,-1.6813,-1.7347,-1.7183,-1.6598,-1.5956,-1.6911,-1.8573,-2.0464,-2.1971,-2.3339,-2.5398,-2.6069,-2.6217,-2.6217,-2.6024,-2.582,-2.582,-2.5426,-2.4995,-2.4995,-2.5452,-2.5906,-2.5996,-2.7817,-2.9165,-2.8757,-2.9635,-3.0181,-2.9691,-2.9874,0.0,0.0,0.0,0.0,-2.9783,-2.9794,-2.9794,-2.9794,-2.9886,-2.9977,-3.0045,-2.9977,-2.9966,-3.0216,-3.0216,-3.0216,-3.0216,-3.0216,-3.0216,-3.0216,-3.0216,-3.0216,-3.0227,-3.0308,-3.0285,-3.0227,-3.0308,-3.0274,-3.0216,-3.0216,-3.0216,-3.0216,-3.0216,-3.0216,-3.0216,0.0,0.0,0.0,0.0,0.0,0.0,0.0,0.0,0.0,0.0,0.0,0.0,0.0,0.0,0.0,0.0,0.0,-2.6444,-2.664,-2.7801,-2.86,-2.8862,-2.9729,-3.0089,-2.9879,-2.9011,-2.8032,-2.6753,-2.7586,-2.7166,-2.5681,-2.7096,-2.7916,-2.7975,-2.7147,-2.6917,-2.7185,-2.6917,-2.6407,-2.5836,-2.5078,-2.4211,-2.3293,-2.1646,-2.0609,0.0,-1.8397,-1.7197,-1.6376,-1.6367,-1.6504,-1.6844,-1.7433,-1.7099,-1.6491,-1.6751,-1.7916,-1.9676,-2.181,-2.296,-2.3981,-2.5964,-2.64,-2.6217,-2.6217,-2.5927,-2.5742,-2.5742,-2.4884,-2.4158,-2.4158,-2.4415,-2.4535,-2.4542,-2.6409,-2.7914,-2.8153,-2.9024,-2.9662,-2.9988,-3.0306,-3.0306,0.0,0.0,0.0,-2.96,-2.986,-2.9975,-2.9794,-3.0041,-3.0237,-3.0227,-3.0136,-3.0148,-3.0216,-3.0216,-3.0216,-3.0216,-3.0216,-3.0216,-3.0216,-3.0216,-3.0216,-3.0216,-3.0216,-3.0397,-3.0656,-3.0656,-3.0913,-3.1169,-3.1169,-3.1169,-3.1169,-3.1169,-3.1169,-3.1092,0.0,0.0,0.0,0.0,0.0,0.0,0.0,0.0,0.0,0.0,0.0,0.0,0.0,0.0,0.0,0.0,0.0,0.0,-2.5897,-2.5678,-2.597,-2.7105,-2.7005,-2.6823,-2.6484,-2.6495,-2.5909,-2.4532,-2.7368,-2.7663,-2.5732,-2.8514,-2.9304,-2.8263,-2.8342,-2.7853,-2.7105,-2.7933,-2.6989,-2.4886,-2.5049,-2.3939,-2.208,-2.081,-1.9839,-1.8985,-1.8415,-1.7903,-1.7434,-1.6402,-1.6094,-1.6196,-1.6598,-1.7106,-1.7687,-1.8091,-1.9137,-2.0566,-2.2804,-2.3628,-2.4281,-2.5994,-2.612,-2.5742,-2.5742,-2.5742,-2.5723,-2.5654,-2.4785,-2.4019,0.0,0.0,-2.3332,-2.3262,-2.3913,-2.5116,-2.7037,-2.7145,-2.783,0.0,0.0,0.0,0.0,0.0,0.0,-2.9254,-2.9758,-3.0001,-2.9553,-3.0426,-3.0695,-3.0194,-3.0478,-3.05,-3.0205,-3.0205,-3.0205,-3.0205,-3.0205,-3.0205,-3.0205,-3.0273,-3.0262,-3.025,-3.0318,-3.0824,-3.1713,-3.1625,-3.2215,-3.2993,-3.2993,-3.298,-3.298,-3.298,-3.2821,-3.2575,0.0,0.0,0.0,0.0,0.0,0.0,0.0,0.0,0.0,0.0,0.0,0.0,0.0,0.0,0.0,0.0,0.0,0.0,-2.3914,-2.4684,-2.5153,-2.5237,-2.6519,-2.7016,-2.6472,-2.6495,-2.5742,-2.4148,-2.5753,-2.5475,-2.3456,-2.5588,-2.5851,-2.4687,-2.5666,-2.5751,-2.5061,-2.5825,-2.5436,-2.4396,-2.4123,-2.2929,-2.1168,-2.0681,-1.9866,-1.8958,-1.8963,-1.8923,-1.8605,-1.6982,0.0,0.0,0.0,-2.0269,-2.0024,-1.9173,-2.0708,-2.2843,-2.314,-2.4146,-2.5322,-2.5751,-2.583,-2.5742,-2.5742,-2.5742,-2.5459,-2.4492,-2.3427,-2.23,0.0,0.0,0.0,-2.4624,-2.8115,0.0,-3.0766,-3.1443,0.0,-3.2091,0.0,-3.1877,-3.1701,-3.1357,0.0,0.0,-2.9984,-2.9788,-3.0034,-3.0469,-3.0586,-3.0512,-3.0717,-3.0825,-3.069,-3.069,-3.069,-3.069,-3.069,-3.069,-3.0678,-3.0589,-3.0859,-3.1557,-3.1347,-3.1789,-3.2649,-3.2488,-3.2575,-3.2747,-3.2562,-3.2476,-3.2476,-3.2476,-3.2476,-3.2488,0.0,0.0,0.0,0.0,0.0,0.0,0.0,0.0,0.0,0.0,0.0,0.0,0.0,0.0,0.0,0.0,0.0,0.0,0.0,-2.3984,-2.4092,-2.3904,-2.4426,-2.4553,-2.4281,-2.4089,-2.358,-2.2694,-2.4146,-2.4029,-2.2542,-2.4254,-2.442,-2.3327,-2.442,-2.4647,-2.4348,-2.5016,-2.4602,0.0,0.0,-2.2132,-2.0689,-2.0586,-2.0159,-1.9732,-2.0282,-2.0812,0.0,0.0,0.0,-2.1324,-2.2616,-2.2659,-2.2109,-2.1909,0.0,-2.3896,-2.4127,-2.4946,-2.5742,-2.5742,-2.5742,-2.5586,-2.501,-2.4883,-2.4512,-2.3223,-2.2162,0.0,-2.0446,-2.2507,0.0,0.0,0.0,0.0,-3.087,-3.1413,-3.1925,0.0,-3.2562,0.0,-3.2239,-3.2055,-3.1884,0.0,-3.0882,-3.0532,-3.0694,-3.1262,-3.153,-3.1348,-3.1329,-3.1253,-3.1072,-3.1179,-3.1342,-3.1387,-3.1151,-3.1206,-3.1495,-3.0903,-3.1193,-3.2313,-3.1846,-3.2314,-3.342,-3.3348,-3.3433,-3.37,-3.3615,-3.3518,-3.3518,-3.3518,-3.353,-3.3543,0.0,0.0,0.0,0.0,0.0,0.0,0.0,0.0,0.0,0.0,0.0,0.0,0.0,0.0,0.0,0.0,0.0,0.0,0.0,0.0,-2.3223,-2.3088,-2.2063,-2.1506,-2.1487,-2.1172,-2.0952,-2.0834,-2.2569,-2.2886,-2.1903,-2.3552,-2.3846,-2.2939,-2.367,-2.3954,-2.3954,-2.46,-2.394,-2.25,-2.2376,-2.161,-2.049,0.0,-2.0691,-2.102,-2.1795,-2.2966,0.0,0.0,-2.5724,-2.5114,-2.5474,-2.486,-2.4169,-2.5207,-2.4876,-2.4385,-2.5518,-2.5781,-2.5742,-2.5742,-2.5742,-2.5391,-2.4092,-2.3789,-2.3379,-2.1924,0.0,-2.0481,-2.0236,-2.1897,-2.3325,-2.3416,0.0,-2.8176,-2.9905,-3.0025,-3.055,-3.2389,-3.2993,-3.2993,-3.2413,-3.281,-3.2947,-3.2527,-3.2077,-3.1774,-3.1448,-3.2379,-3.2719,-3.2293,-3.2158,-3.18,-3.1451,-3.1777,-3.2019,-3.2073,-3.1725,-3.1833,-3.2281,-3.1354,-3.1612,-3.286,-3.2176,-3.2747,-3.4121,-3.4121,-3.4468,-3.5086,-3.499,-3.499,-3.499,-3.499,-3.4934,-3.4795,0.0,0.0,0.0,0.0,0.0,0.0,0.0,0.0,0.0,0.0,-2.8066,-2.8082,0.0,0.0,0.0,0.0,0.0,0.0,0.0,0.0,0.0,-2.3113,-2.2457,-2.1945,-2.1742,-2.1687,-2.1048,-1.9895,-2.1388,-2.1237,-1.9599,-2.167,-2.1912,-2.0731,-2.1999,-2.2256,-2.1717,-2.246,-2.2226,-2.1388,-2.1323,-2.105,-2.0625,-2.1094,0.0,0.0,-2.2537,0.0,0.0,0.0,-2.6828,-2.6812,-2.9161,-2.8586,-2.6981,-2.6489,-2.6137,-2.5996,-2.6349,-2.6035,-2.5742,-2.5742,-2.5742,-2.5391,-2.4092,-2.3789,0.0,0.0,-2.0391,-2.0126,-1.9023,-2.1224,-2.3896,-2.5834,0.0,0.0,0.0,0.0,-3.3713,0.0,0.0,0.0,-3.4314,-3.3865,0.0,0.0,-3.3365,-3.311,-3.2485,-3.2647,-3.2644,-3.2294,-3.2287,-3.2197,-3.2111,-3.2558,-3.2712,-3.2576,-3.27,-3.2665,-3.2604,-3.2388,-3.2873,-3.3846,-3.3477,-3.3966,-3.4908,-3.4756,-3.4756,-3.4839,-3.4577,-3.4481,-3.4481,-3.4481,-3.4494,-3.4494,0.0,0.0,0.0,0.0,0.0,0.0,0.0,-2.7506,-2.7504,-2.7688,-2.7916,-2.8106,-2.8143,-2.8826,-2.8703,0.0,0.0,0.0,0.0,0.0,0.0,0.0,-2.3318,-2.2516,-2.1827,-2.1618,-2.1286,-2.0817,0.0,-2.1208,-2.0085,-2.1,-2.0935,-2.0161,-2.1198,-2.14,-2.1008,-2.1737,-2.1663,-2.1019,-2.1285,-2.1257,-2.1188,0.0,0.0,0.0,0.0,0.0,0.0,0.0,-2.7325,-2.9209,-3.0778,-3.0251,-2.9008,-2.8603,-2.8031,-2.7541,-2.6992,-2.6734,-2.637,-2.582,-2.5742,-2.5225,-2.3242,0.0,0.0,0.0,-1.9282,-1.9234,-1.8602,0.0,0.0,0.0,0.0,0.0,0.0,0.0,0.0,0.0,0.0,0.0,0.0,-3.4633,-3.4438,-3.4438,-3.4183,-3.3781,-3.3266,-3.3458,-3.3406,-3.2999,-3.3116,-3.3167,-3.2877,-3.3203,-3.3453,-3.3429,-3.3268,-3.3295,-3.3535,-3.2942,-3.3307,-3.4451,-3.3926,-3.4147,-3.4921,-3.4865,-3.4769,-3.4577,-3.4481,-3.4397,-3.4397,-3.4397,-3.4397,-3.4397,0.0,0.0,0.0,0.0,0.0,0.0,0.0,-2.7351,-2.725,-2.7389,-2.775,-2.8043,-2.8207,-2.9296,-2.9403,0.0,0.0,0.0,0.0,0.0,0.0,0.0,0.0,0.0,0.0,0.0,0.0,-2.1667,-2.1891,0.0,0.0,0.0,0.0,0.0,-2.1008,-2.1146,-2.1106,-2.1675,-2.167,0.0,0.0,-2.1897,0.0,0.0,0.0,0.0,0.0,0.0,0.0,0.0,-2.715,-2.9719,-3.0471,-3.0307,-2.9926,-2.9926,-2.9195,-2.8256,-2.7726,-2.7547,-2.7379,-2.6562,-2.6197,-2.5322,-2.28,-2.205,0.0,0.0,-1.8414,-1.8482,-1.8549,0.0,-2.2718,0.0,-2.7005,-3.0037,0.0,0.0,0.0,0.0,0.0,0.0,-3.5086,-3.5154,0.0,-3.5086,-3.4743,-3.4328,-3.3882,-3.4131,-3.4071,-3.3709,-3.3909,-3.3858,-3.3466,-3.381,-3.397,-3.4097,-3.3792,-3.3897,-3.4328,-3.3408,-3.368,-3.4673,-3.4063,-3.4147,-3.4756,-3.4782,-3.4603,-3.4397,-3.4397,-3.4397,-3.4397,-3.4397,-3.4397,-3.4397,0.0,0.0,0.0,0.0,0.0,0.0,0.0,-2.7652,-2.753,-2.742,-2.7613,-2.7964,-2.8485,-2.9417,-3.0046,0.0,0.0,0.0,0.0,0.0,0.0,0.0,0.0,0.0,0.0,0.0,0.0,-2.1129,-2.2432,0.0,0.0,0.0,0.0,0.0,0.0,-2.1635,-2.1635,-2.1812,0.0,0.0,0.0,0.0,0.0,0.0,0.0,0.0,0.0,0.0,0.0,0.0,0.0,-2.6009,-2.6995,-2.8205,-2.9176,-2.9028,0.0,0.0,-2.8715,-2.8831,-2.8588,-2.8402,-2.7746,-2.6393,-2.3857,0.0,0.0,-1.8545,-1.8279,-1.8549,-1.8741,-1.9446,-2.0729,-2.3063,-2.4446,-2.6596,0.0,0.0,0.0,0.0,0.0,0.0,-3.5086,-3.5399,-3.548,-3.5168,-3.5072,-3.4839,-3.4379,-3.3941,-3.3759,-3.3734,-3.3734,-3.3759,-3.3708,-3.411,-3.4268,-3.4097,-3.4242,-3.4242,-3.4096,-3.425,-3.4269,-3.4397,-3.4397,-3.4397,-3.4397,-3.4397,-3.4397,-3.4397,-3.4397,-3.4397,-3.4397,-3.4397,-3.4397,-3.4397,0.0,0.0,0.0,0.0,0.0,0.0,-2.7829,-2.7437,-2.7131,-2.7011,-2.7102,-2.7268,-2.7609,-2.8654,-2.9585,-3.0205,0.0,0.0,0.0,0.0,0.0,0.0,0.0,0.0,0.0,0.0,-2.2665,-2.1788,-2.2327,0.0,0.0,0.0,0.0,0.0,0.0,-2.1749,-2.1698,-2.1612,0.0,0.0,0.0,0.0,0.0,0.0,0.0,0.0,0.0,0.0,0.0,0.0,0.0,0.0,-2.4314,-2.5264,0.0,0.0,-2.864,-2.8465,-2.9511,-2.9759,-2.9418,-2.8866,-2.7661,-2.6091,-2.3916,0.0,-2.0783,-1.8863,-1.8921,-1.9243,-1.9142,-1.9802,-2.0696,-2.1574,-2.3376,-2.5424,-2.7511,0.0,0.0,0.0,0.0,0.0,0.0,0.0,-3.5978,-3.548,-3.548,-3.5399,-3.5223,-3.501,-3.4866,-3.4866,-3.4627,-3.4543,-3.4543,-3.4418,-3.4334,-3.4301,-3.4334,-3.4347,-3.4288,-3.4321,-3.4397,-3.4397,-3.4397,-3.4397,-3.4397,-3.4397,-3.4397,-3.4397,-3.4397,-3.4397,-3.4397,-3.4397,-3.4397,-3.4397,0.0,0.0,0.0,0.0,0.0,-2.8378,-2.78,-2.7494,-2.7246,-2.6978,-2.7151,-2.7297,-2.7253,-2.8265,-2.9202,-2.9813,-2.9282,0.0,0.0,0.0,0.0,0.0,0.0,0.0,0.0,0.0,-2.3378,-2.2531,-2.2751,-2.269,0.0,0.0,-2.2185,-2.2285,0.0,0.0,0.0,0.0,0.0,0.0,0.0,0.0,0.0,0.0,0.0,0.0,0.0,0.0,0.0,0.0,0.0,0.0,0.0,0.0,0.0,0.0,-2.7894,-2.8607,-2.9636,-3.0283,-3.0453,-2.9795,-2.8132,-2.6253,0.0,0.0,-2.0628,-1.9266,-1.942,-1.9868,-1.9955,-2.0624,-2.1135,-2.1037,-2.2846,-2.4616,-2.5577,-2.7504,0.0,0.0,0.0,-3.2839,0.0,-3.5823,-3.6312,-3.6111,-3.5965,-3.5965,-3.6111,-3.6111,-3.5951,-3.571,-3.5399,-3.5318,-3.5318,-3.515,-3.5063,-3.5063,-3.4897,-3.491,-3.4897,-3.4559,-3.4397,-3.4397,-3.4397,-3.4397,-3.4397,-3.4397,-3.4397,-3.4397,-3.4397,-3.4481,-3.4494,-3.4397,-3.4481,-3.4494,0.0,0.0,0.0,0.0,0.0,0.0,-2.7886,-2.8136,-2.8201,-2.7649,-2.8106,-2.8323,-2.7939,-2.859,-2.9088,-2.9104,-2.9278,0.0,0.0,0.0,0.0,0.0,0.0,0.0,0.0,0.0,-2.4767,-2.3314,-2.4007,-2.3885,-2.2859,-2.2223,-2.2149,-2.2604,0.0,0.0,0.0,0.0,0.0,0.0,0.0,0.0,0.0,0.0,0.0,0.0,0.0,0.0,0.0,0.0,0.0,0.0,0.0,0.0,0.0,0.0,-2.542,-2.7308,-2.8883,-3.047,-3.1661,-3.1661,-2.975,-2.7269,0.0,0.0,-2.069,-1.9695,-1.9661,-2.0171,-2.1381,-2.1729,-2.1939,-2.2039,-2.2677,-2.3752,-2.5675,0.0,0.0,0.0,0.0,-3.0169,-3.288,-3.5082,-3.6549,-3.6993,-3.6615,-3.6549,-3.6993,-3.6978,-3.6587,-3.571,-3.571,-3.571,-3.571,-3.6293,-3.6592,-3.6592,-3.6189,-3.5938,-3.5925,-3.491,-3.4397,-3.4397,-3.4397,-3.4397,-3.4397,-3.4397,-3.4397,-3.4397,-3.4397,-3.4577,-3.4756,-3.4494,-3.4577,-3.4756,0.0,0.0,0.0,0.0,0.0,0.0,0.0,-2.871,-2.8539,-2.8557,-2.8575,-2.8405,-2.8027,-2.8656,-2.9108,-2.9108,-2.9234,0.0,0.0,0.0,0.0,0.0,0.0,0.0,0.0,0.0,-2.4727,-2.3319,-2.3616,-2.3558,-2.3147,-2.2988,-2.3134,-2.3526,-2.3038,-2.2689,0.0,0.0,0.0,0.0,0.0,0.0,0.0,0.0,0.0,0.0,0.0,0.0,0.0,0.0,0.0,0.0,0.0,0.0,0.0,-2.2519,-2.3712,0.0,-2.7083,-2.7873,-2.8255,-2.8084,-2.6742,-2.5086,-2.4004,0.0,-2.1162,-2.0669,-2.1066,-2.1569,-2.1904,-2.2347,-2.2592,-2.2175,-2.2774,-2.3384,0.0,0.0,0.0,0.0,0.0,-3.5328,0.0,0.0,-3.7254,-3.74,-3.7009,-3.6836,-3.6978,-3.6978,-3.6758,-3.6232,-3.6152,-3.6058,-3.571,-3.59,-3.5995,-3.5995,-3.5599,-3.5352,-3.5352,-3.4739,-3.4397,-3.4397,-3.4397,-3.4397,-3.4397,-3.4397,-3.4397,-3.4397,-3.4397,-3.4577,-3.4756,-3.4494,-3.4577,-3.4756,0.0,0.0,0.0,0.0,0.0,0.0,0.0,-2.9047,-2.9184,-2.9161,-2.9602,-2.9658,-2.903,-2.9571,-2.9826,-2.9376,-2.9415,0.0,0.0,0.0,0.0,0.0,0.0,0.0,-2.6455,-2.6064,-2.5162,-2.3672,-2.3823,-2.3782,-2.3561,-2.3283,-2.3598,-2.4368,-2.3839,-2.3347,0.0,0.0,0.0,0.0,0.0,0.0,-2.3259,0.0,0.0,0.0,0.0,0.0,0.0,0.0,0.0,0.0,0.0,0.0,0.0,0.0,-2.255,-2.3529,0.0,-2.6146,-2.6522,-2.6446,-2.5348,0.0,0.0,0.0,-2.1491,-2.1518,-2.2015,-2.2531,-2.2798,-2.3233,-2.3352,-2.2919,-2.328,-2.3808,0.0,0.0,0.0,0.0,0.0,0.0,0.0,-3.7316,-3.7798,-3.7798,-3.747,-3.7186,-3.7186,-3.7119,-3.685,-3.6405,-3.6549,-3.6457,-3.6191,-3.6424,-3.6534,-3.6534,-3.6144,-3.5913,-3.5899,-3.5083,-3.4647,-3.4647,-3.4481,-3.4397,0.0,-3.4397,-3.4397,-3.4397,-3.4564,-3.4825,-3.5003,-3.4895,-3.5059,-3.5236,0.0,0.0,0.0,0.0,0.0,0.0,0.0,-2.914,-2.9969,-2.9557,-3.0924,-3.1602,-3.0695,-3.1139,-3.1018,-2.9811,0.0,0.0,0.0,0.0,0.0,0.0,0.0,0.0,-2.6395,-2.6521,-2.5841,-2.4269,-2.4376,-2.4269,-2.3947,-2.3316,-2.3728,-2.4993,-2.4797,-2.4142,0.0,0.0,0.0,0.0,0.0,0.0,0.0,0.0,0.0,0.0,0.0,0.0,0.0,0.0,0.0,0.0,0.0,0.0,0.0,0.0,0.0,0.0,0.0,-2.4932,0.0,0.0,0.0,0.0,0.0,0.0,0.0,-2.2286,-2.2531,-2.298,-2.3936,-2.4112,-2.4112,-2.4112,-2.4112,-2.4773,0.0,0.0,0.0,0.0,-3.3163,0.0,-3.4302,-3.6715,-3.8269,-3.8269,-3.7867,-3.7615,-3.7615,-3.7284,-3.687,-3.646,-3.6828,-3.7035,-3.6993,-3.7555,-3.7835,-3.7835,-3.7462,-3.7234,-3.722,-3.5736,-3.5154,-3.5086,-3.4647,-3.4481,-3.4481,-3.4481,-3.4481,-3.4481,-3.499,-3.5236,-3.548,-3.5642,-3.579,-3.5951,0.0,0.0,0.0,0.0,0.0,0.0,0.0,0.0,0.0,0.0,-3.082,-3.1168,-3.1405,-3.1576,-3.1185,0.0,0.0,0.0,0.0,0.0,0.0,0.0,0.0,0.0,-2.5467,-2.5584,-2.4968,-2.3681,-2.373,-2.373,-2.378,-2.3844,-2.4351,-2.5138,-2.5031,-2.4504,0.0,0.0,0.0,0.0,0.0,0.0,0.0,0.0,0.0,0.0,-2.4587,-2.4249,0.0,0.0,0.0,0.0,0.0,0.0,0.0,0.0,-2.2044,-2.1607,-2.2098,0.0,-2.2535,-2.2414,-2.2421,-2.2484,0.0,0.0,0.0,0.0,0.0,0.0,0.0,-2.4112,-2.4112,-2.4112,-2.4216,-2.4866,0.0,0.0,0.0,0.0,-3.7101,-3.8193,-3.8057,-3.8396,-3.855,-3.855,-3.8241,-3.8076,-3.8076,-3.8006,-3.7715,-3.7337,-3.7404,-3.7181,-3.6549,-3.6976,-3.7203,-3.7203,-3.6837,-3.6612,-3.6598,-3.5872,-3.5562,-3.5562,-3.5154,-3.4908,-3.4908,-3.4908,-3.4908,-3.499,-3.5399,-3.571,-3.5871,-3.571,-3.579,-3.5951,0.0,0.0,0.0,0.0,0.0,0.0,0.0,0.0,0.0,0.0,0.0,-3.0845,-3.1617,-3.1756,0.0,0.0,0.0,0.0,0.0,0.0,0.0,0.0,0.0,-2.6309,-2.511,-2.4999,-2.4452,-2.3387,-2.3798,-2.3832,-2.3607,-2.4291,-2.4798,-2.5204,-2.5061,-2.4956,0.0,0.0,0.0,0.0,-2.4253,0.0,0.0,0.0,0.0,0.0,-2.4688,-2.4206,0.0,-2.3808,-2.3256,-2.253,0.0,0.0,0.0,0.0,-2.2214,-2.1788,-2.1714,-2.1526,-2.1336,-2.1486,-2.1737,-2.1987,-2.2297,0.0,0.0,0.0,0.0,0.0,0.0,0.0,0.0,-2.3956,-2.4662,0.0,0.0,0.0,0.0,0.0,-3.7107,-3.8283,0.0,-3.9297,-3.9093,-3.8992,-3.8618,-3.8446,-3.8446,-3.8268,-3.8131,-3.7881,-3.7685,-3.732,-3.6693,-3.6915,-3.6978,-3.6978,-3.6772,-3.6693,-3.6693,-3.6218,-3.6058,-3.5978,-3.5642,-3.548,-3.5399,-3.548,-3.548,-3.5399,-3.5884,-3.6058,-3.6218,-3.627,-3.635,-3.6429,0.0,0.0,0.0,0.0,0.0,0.0,0.0,0.0,0.0,0.0,0.0,0.0,0.0,0.0,0.0,0.0,0.0,0.0,0.0,0.0,0.0,0.0,-2.6459,-2.5866,-2.4958,-2.4592,-2.3995,-2.3212,-2.3946,-2.3995,-2.3431,-2.4402,-2.5043,-2.5307,-2.5163,-2.5453,0.0,0.0,0.0,0.0,-2.5356,0.0,0.0,0.0,0.0,0.0,0.0,0.0,0.0,-2.3676,-2.3183,-2.2402,-2.2931,0.0,0.0,0.0,0.0,0.0,-2.1851,-2.1835,-2.187,-2.1945,-2.1987,-2.2111,-2.2531,0.0,0.0,0.0,0.0,0.0,0.0,0.0,0.0,0.0,0.0,0.0,0.0,0.0,0.0,-3.507,-3.6033,0.0,-3.9508,-3.97,-3.9598,-3.9305,-3.9005,-3.8806,-3.8806,-3.8498,-3.8351,-3.8255,-3.7924,-3.7543,-3.7069,-3.7035,-3.6978,-3.6978,-3.6978,-3.6978,-3.6978,-3.6615,-3.647,-3.647,-3.6204,-3.6031,-3.5871,-3.6031,-3.6031,-3.5884,-3.6298,-3.647,-3.6549,-3.6836,-3.6978,-3.6978,0.0,0.0,0.0,0.0,0.0,0.0,0.0,0.0,0.0,0.0,0.0,0.0,0.0,0.0,0.0,0.0,0.0,0.0,0.0,0.0,0.0,-2.5857,-2.5857,-2.5385,-2.4271,-2.4068,-2.3644,-2.2893,-2.3241,-2.3272,-2.3016,-2.3885,-2.4831,-2.5807,-2.5742,-2.5893,-2.6056,-2.5879,-2.5974,-2.6244,-2.5618,0.0,0.0,0.0,0.0,0.0,0.0,0.0,0.0,-2.4085,-2.3725,-2.2955,-2.3484,0.0,0.0,0.0,0.0,0.0,-2.2297,-2.355,-2.4422,-2.2567,-2.2371,-2.2616,-2.2787,0.0,0.0,0.0,0.0,0.0,0.0,0.0,0.0,0.0,0.0,-2.9917,0.0,0.0,-3.6035,-3.7497,0.0,-3.8714,-3.9645,-3.9714,-3.9598,-3.9305,-3.9224,-3.9169,-3.9169,-3.9163,-3.8978,-3.8632,-3.8536,-3.82,-3.7487,-3.7181,-3.6978,-3.6978,-3.6978,-3.6978,-3.6978,-3.6915,-3.6915,-3.6915,-3.6665,-3.6587,-3.6587,-3.6587,-3.6587,-3.6587,-3.6836,-3.6915,-3.6915,-3.6993,-3.6978,-3.6993,0.0,0.0,0.0,0.0,0.0,0.0,0.0,0.0,0.0,0.0,0.0,0.0,0.0,0.0,0.0,0.0,0.0,0.0,0.0,0.0,-2.6241,-2.5675,-2.5456,-2.5058,-2.4558,-2.4131,-2.3837,-2.3681,-2.3777,-2.3689,-2.3363,-2.4019,-2.4906,-2.5893,-2.5893,-2.5948,-2.6111,-2.6111,-2.6165,-2.6258,0.0,0.0,0.0,0.0,0.0,0.0,0.0,0.0,0.0,0.0,-2.3797,-2.3448,-2.3688,0.0,0.0,0.0,0.0,0.0,-2.242,-2.3252,-2.4255,-2.4439,-2.5154,-2.5915,-2.6317,0.0,0.0,0.0,0.0,0.0,0.0,0.0,-2.5625,-2.7615,0.0,-3.0579,-3.2793,-3.3279,-3.4299,0.0,0.0,-3.8172,-3.9913,-4.0065,-3.995,-3.9747,-3.9584,-3.951,-3.951,-3.9394,-3.9183,-3.8986,-3.8847,-3.8581,-3.82,-3.7588,-3.7251,-3.6978,-3.6978,-3.6978,-3.6978,-3.6978,-3.6978,-3.6978,-3.7148,-3.7148,-3.7056,-3.7226,-3.7226,-3.7056,-3.7148,-3.707,-3.6978,-3.6978,-3.7148,-3.7226,0.0,0.0,0.0,0.0,0.0,0.0,0.0,0.0,0.0,0.0,0.0,0.0,0.0,0.0,0.0,0.0,0.0,0.0,0.0,-2.5983,-2.5584,-2.568,-2.5307,-2.502,-2.4958,-2.442,-2.4158,-2.4184,-2.4323,-2.4209,-2.3867,-2.4245,-2.4958,-2.5893,-2.5893,-2.6002,-2.6165,-2.6165,-2.6165,-2.6218,0.0,0.0,0.0,0.0,0.0,0.0,0.0,0.0,0.0,0.0,0.0,0.0,0.0,0.0,0.0,-2.2731,-2.2686,-2.2678,-2.2494,-2.3158,-2.4293,-2.5862,-2.6706,-2.761,-2.9203,-2.8834,0.0,0.0,0.0,0.0,0.0,-2.4645,0.0,-3.078,-3.09,-3.1339,-3.3519,-3.2935,-3.324,-3.5852,-3.6626,-3.7896,-4.0159,-4.0114,-3.9889,-3.9587,-3.933,-3.9188,-3.9188,-3.8986,-3.8884,-3.8884,-3.8624,-3.8396,-3.8246,-3.7758,-3.7376,-3.7125,-3.7063,-3.6978,-3.6978,-3.6978,-3.6978,-3.6978,-3.7457,-3.7534,-3.738,-3.7777,-3.7701,-3.7457,-3.738,-3.7226,-3.707,-3.6978,-3.7226,-3.7471,0.0,0.0,0.0,0.0,0.0,0.0,0.0,0.0,0.0,0.0,0.0,0.0,0.0,0.0,0.0,0.0,0.0,0.0,0.0,-2.5562,-2.547,-2.56,-2.5642,-2.5476,-2.5091,-2.4918,-2.4461,-2.3681,-2.4082,-2.4312,-2.4333,-2.4383,-2.4958,-2.5893,-2.5893,-2.6056,-2.6286,-2.6286,-2.6379,-2.6457,-2.6457,0.0,0.0,0.0,0.0,0.0,0.0,0.0,0.0,0.0,0.0,0.0,0.0,0.0,-2.3586,-2.271,-2.2518,-2.269,-2.2678,-2.44,-2.6138,-2.5749,-2.453,0.0,-2.9131,-2.6943,0.0,-2.7802,0.0,0.0,0.0,-2.4777,-2.6724,-2.9184,-3.1296,-3.3395,-3.5541,0.0,-3.6661,-3.7827,-3.8363,-3.9006,-4.0101,-3.9436,-3.8696,-3.8269,-3.7921,-3.7663,-3.7663,-3.7663,-3.7663,-3.7663,-3.7623,-3.7395,-3.7058,-3.7249,-3.7437,-3.7543,-3.7195,-3.6978,-3.6978,-3.6978,-3.6978,-3.6978,-3.7457,-3.7625,-3.7625,-3.7777,-3.7853,-3.7853,-3.7625,-3.7457,-3.7226,-3.707,-3.7148,-3.7303,0.0,0.0,0.0,0.0,0.0,0.0,0.0,0.0,0.0,0.0,0.0,0.0,0.0,0.0,0.0,0.0,0.0,0.0,0.0,-2.5815,-2.5832,-2.568,-2.5701,-2.5626,-2.5476,-2.5422,-2.5137,-2.4567,-2.4475,-2.4581,-2.482,-2.4891,-2.5236,-2.5893,-2.6002,-2.6111,-2.6286,-2.6379,-2.6457,-2.651,-2.651,-2.6365,0.0,0.0,0.0,0.0,0.0,0.0,0.0,0.0,-2.4518,-2.4434,-2.4117,-2.3663,-2.32,-2.2713,-2.2616,-2.2739,-2.28,-2.4747,-2.6672,-2.6236,-2.5844,0.0,0.0,-3.0775,-2.9857,-3.1168,-3.1871,0.0,0.0,0.0,-2.8959,-3.3592,-3.4999,-3.585,-3.6489,-3.6306,-3.6401,-3.7346,-3.7922,-3.8402,-3.8875,-3.864,-3.8363,-3.8153,-3.7891,-3.7781,-3.7781,-3.7612,-3.7528,-3.7528,-3.7528,-3.7419,-3.7259,-3.714,-3.7194,-3.737,-3.713,-3.6978,-3.6978,-3.6978,-3.6978,-3.6978,-3.7457,-3.7534,-3.7457,-3.7915,-3.7915,-3.7701,-3.7625,-3.7534,-3.7457,-3.7226,-3.738,-3.7625,0.0,0.0,0.0,0.0,0.0,0.0,0.0,0.0,0.0,0.0,0.0,0.0,0.0,0.0,0.0,0.0,0.0,0.0,-2.6085,-2.6104,-2.6068,-2.5832,-2.5775,-2.5701,-2.568,-2.5701,-2.5551,-2.5153,-2.4719,-2.4728,-2.511,-2.5185,-2.5463,-2.5948,-2.6056,-2.6218,-2.6379,-2.6457,-2.651,-2.651,-2.6616,-2.6472,0.0,0.0,0.0,0.0,0.0,0.0,0.0,0.0,-2.4522,-2.4614,-2.3989,-2.345,-2.2998,-2.2837,-2.2724,-2.2695,-2.2887,-2.4421,-2.6083,-2.6544,0.0,0.0,-3.2616,-3.3425,-3.3526,-3.4576,-3.5279,-3.5453,-3.4871,0.0,0.0,0.0,-3.7149,-3.7414,-3.7039,-3.6665,-3.6629,-3.7184,-3.7741,-3.8199,-3.8242,-3.809,-3.7896,-3.7731,-3.74,-3.7208,-3.7208,-3.7041,-3.6958,-3.6958,-3.6958,-3.6958,-3.6958,-3.6702,-3.6742,-3.7013,-3.6967,-3.6915,-3.6978,-3.6978,-3.6978,-3.6978,-3.738,-3.7457,-3.738,-3.7915,-3.7991,-3.7763,-3.7701,-3.7701,-3.7701,-3.7457,-3.7625,-3.7853,0.0,0.0,0.0,0.0,0.0,0.0,0.0,0.0,0.0,0.0,0.0,0.0,0.0,0.0,0.0,0.0,0.0,0.0,-2.6725,-2.6315,-2.6087,-2.6104,-2.5832,-2.568,-2.5616,-2.568,-2.5513,-2.5091,-2.4676,-2.4728,-2.511,-2.5185,-2.553,-2.6111,-2.6125,-2.6272,-2.651,-2.651,-2.651,-2.651,-2.6841,-2.6698,-2.6394,0.0,0.0,0.0,0.0,0.0,0.0,0.0,-2.462,-2.4902,-2.3833,-2.335,-2.3177,-2.2948,-2.2783,-2.2661,-2.2827,-2.3461,-2.4502,0.0,0.0,0.0,-3.348,-3.3844,-3.4137,-3.7519,-3.8209,-3.8501,-3.9589,-3.688,0.0,-3.4977,-3.678,-3.7868,-3.723,-3.7635,-3.789,-3.7738,-3.8208,-3.8538,-3.8393,-3.7796,-3.7206,-3.6674,-3.6049,-3.571,-3.571,-3.571,-3.571,-3.571,-3.571,-3.571,-3.571,-3.5978,-3.6166,-3.6405,-3.6642,-3.6772,-3.6978,-3.6978,-3.6978,-3.6978,-3.7226,-3.7303,-3.7303,-3.7701,-3.7991,-3.8202,-3.8005,-3.7929,-3.7853,-3.7701,-3.7701,-3.7929,0.0,0.0,0.0,0.0,0.0,0.0,0.0,0.0,0.0,0.0,0.0,0.0,0.0,0.0,0.0,0.0,0.0,0.0,-2.6758,-2.6641,-2.6454,-2.6087,-2.5791,-2.5637,-2.5616,-2.568,-2.546,-2.4958,-2.4927,-2.5,-2.5125,-2.5592,-2.5941,-2.6125,-2.6892,-2.6942,-2.6539,-2.7229,-2.7239,-2.6712,-2.6817,-2.6698,-2.6525,0.0,0.0,0.0,0.0,0.0,0.0,0.0,0.0,0.0,-2.3638,-2.3281,-2.2874,-2.3007,-2.2952,-2.2815,-2.3005,-2.581,0.0,0.0,0.0,0.0,0.0,-3.4122,0.0,0.0,-3.8159,-3.8335,-3.9108,-3.894,0.0,-3.8044,-3.8451,-3.8519,-3.7401,-3.698,-3.6693,-3.6591,-3.6991,-3.7361,-3.7472,-3.7141,-3.6916,-3.6823,-3.6113,-3.571,-3.571,-3.571,-3.571,-3.571,-3.571,-3.571,-3.571,-3.5804,-3.5978,-3.6405,-3.6484,-3.6707,-3.6978,-3.6978,-3.6978,-3.6978,-3.7226,-3.7226,-3.7148,-3.7534,-3.7915,-3.8202,-3.8127,-3.8142,-3.8066,-3.7853,-3.7929,-3.8066,0.0,0.0,0.0,0.0,0.0,0.0,0.0,0.0,0.0,0.0,0.0,0.0,0.0,0.0,0.0,0.0,0.0,0.0,0.0,-2.6873,-2.6641,-2.635,-2.5864,-2.5745,-2.6081,-2.6209,-2.6007,-2.5534,-2.5515,-2.5485,-2.5477,-2.5945,-2.64,-2.6751,-2.7083,-2.7229,-2.7181,-2.7394,-2.7287,-2.6989,-2.6989,-2.687,-2.6817,0.0,0.0,0.0,0.0,0.0,0.0,0.0,0.0,0.0,-2.3406,-2.3121,-2.2811,-2.3086,-2.3032,-2.311,-2.4294,-2.6998,0.0,0.0,0.0,-3.5039,-3.5864,0.0,0.0,0.0,-3.8811,-3.885,-3.9412,-3.9711,0.0,-3.9267,-3.906,-3.8538,-3.751,-3.7,-3.666,-3.6561,-3.6913,-3.7271,-3.7433,-3.7483,-3.7477,-3.7372,-3.6908,-3.6531,-3.6163,-3.6177,-3.6017,-3.571,-3.571,-3.571,-3.571,-3.571,-3.5898,-3.6246,-3.6246,-3.647,-3.685,-3.6993,-3.6978,-3.6978,-3.7148,-3.7226,-3.7226,-3.7457,-3.7839,-3.8202,-3.8202,-3.8202,-3.8202,-3.8066,-3.8066,-3.8202,0.0,0.0,0.0,0.0,0.0,0.0,0.0,0.0,0.0,0.0,-2.7518,0.0,0.0,0.0,0.0,0.0,0.0,0.0,0.0,-2.7137,-2.6793,-2.6793,-2.6191,-2.6178,-2.6912,-2.7032,-2.6918,-2.653,-2.6336,-2.6116,-2.5971,-2.628,-2.6874,-2.765,-2.6963,-2.7249,-2.811,-2.7325,-2.7033,-2.7181,-2.7181,-2.7211,-2.7277,-2.7511,0.0,0.0,0.0,0.0,0.0,0.0,0.0,0.0,-2.3131,-2.2909,-2.2977,-2.3293,-2.3307,-2.3757,-2.6414,0.0,0.0,0.0,0.0,0.0,-3.793,-3.8463,-3.8752,-3.9589,0.0,-3.9904,-4.0176,-3.9519,-3.8994,-3.9078,-3.876,-3.8246,-3.7507,-3.7415,-3.7336,-3.7192,-3.7578,-3.7911,-3.8002,-3.8455,-3.8546,-3.819,-3.8101,-3.7738,-3.6922,-3.6936,-3.6559,-3.571,-3.571,-3.571,-3.571,-3.571,-3.5804,-3.6086,-3.6086,-3.6339,-3.6791,-3.6943,-3.6978,-3.6978,-3.6978,-3.7226,-3.7625,-3.7625,-3.7839,-3.8202,-3.8202,-3.8202,-3.8202,-3.8202,-3.8202,-3.8202,0.0,0.0,0.0,0.0,0.0,0.0,0.0,0.0,0.0,0.0,0.0,0.0,0.0,0.0,0.0,0.0,0.0,0.0,0.0,-2.7667,-2.764,-2.764,-2.7578,-2.7643,-2.783,-2.7262,-2.692,-2.6903,-2.6924,-2.6518,-2.572,-2.6847,-2.7494,-2.7733,-2.7871,-2.8021,-2.8062,-2.806,-2.76,-2.6884,-2.713,-2.7439,-2.7812,-2.7416,-2.7097,0.0,0.0,0.0,0.0,0.0,0.0,0.0,-2.3055,-2.315,-2.3424,-2.3916,-2.5097,-2.6478,-2.7501,-3.0361,0.0,0.0,0.0,-3.8165,-3.8634,-3.9164,-3.9643,-3.955,-3.9899,-4.0237,-4.0261,-4.0015,-3.9488,-3.8528,-3.8305,-3.7866,-3.6876,-3.6707,-3.6707,-3.6644,-3.7085,-3.7547,-3.8083,-3.8182,-3.8366,-3.8826,-3.8428,-3.7738,-3.6922,-3.6936,-3.6559,-3.571,-3.571,-3.571,-3.571,-3.571,-3.5804,-3.6086,-3.6086,-3.656,-3.7376,-3.6995,-3.685,-3.6978,-3.6978,-3.7226,-3.7625,-3.7625,-3.7839,-3.8202,-3.8202,-3.8202,-3.8202,-3.8202,-3.8202,-3.8202,0.0,0.0,0.0,0.0,0.0,0.0,0.0,0.0,0.0,0.0,0.0,0.0,0.0,0.0,0.0,0.0,0.0,0.0,0.0,0.0,-2.8367,-2.8002,-2.845,-2.8648,-2.8567,-2.7953,-2.7765,-2.8093,-2.7563,-2.6881,-2.5988,-2.7258,-2.8031,-2.8349,-2.8233,-2.8399,-2.8705,-2.8015,-2.7682,-2.7668,-2.7691,-2.7897,-2.8154,-2.7773,-2.7271,-2.671,-2.5765,0.0,0.0,0.0,0.0,0.0,0.0,0.0,-2.3327,-2.3778,-2.4516,-2.5855,0.0,0.0,0.0,0.0,0.0,0.0,-3.9002,-3.9322,-3.9628,-3.9841,-4.0107,-4.0277,-4.0051,-3.9722,-3.9282,-3.8554,-3.8226,-3.7796,-3.6965,-3.6827,-3.6783,-3.6522,-3.6934,-3.7342,-3.7839,-3.8288,-3.8637,-3.8713,-3.9083,-3.8708,-3.751,-3.7814,-3.7525,-3.6322,-3.6243,-3.6097,-3.571,-3.571,-3.5804,-3.5898,-3.5898,-3.6303,-3.7007,-3.7219,-3.7195,-3.6978,-3.6978,-3.7226,-3.7625,-3.7625,-3.7839,-3.8202,-3.8202,-3.8202,-3.8202,-3.8202,-3.8202,-3.8202,0.0,0.0,0.0,0.0,0.0,0.0,0.0,0.0,0.0,0.0,0.0,0.0,0.0,0.0,0.0,0.0,0.0,0.0,0.0,0.0,0.0,-2.8659,-2.9197,-2.9453,-2.9329,-2.8785,-2.8779,-2.9273,-2.824,-2.7378,-2.6712,-2.77,-2.8557,-2.9138,-2.841,-2.8571,-2.9271,-2.7712,-2.7572,-2.8323,-2.8098,-2.8157,-2.8305,-2.8033,-2.7385,-2.6468,-2.5314,-2.4693,-2.4313,-2.3349,0.0,0.0,0.0,0.0,-2.3276,-2.3629,-2.3778,-2.4837,0.0,0.0,0.0,0.0,0.0,0.0,-3.922,-3.9235,-3.9394,-4.0051,-4.0207,-4.0121,-3.9753,-3.933,-3.8992,-3.8717,-3.8303,-3.7886,-3.7414,-3.7323,-3.7143,-3.6675,-3.6947,-3.7284,-3.7428,-3.8361,-3.8766,-3.8292,-3.9527,-3.9682,-3.8238,-3.8868,-3.8649,-3.7155,-3.7,-3.6559,-3.5937,-3.579,-3.571,-3.571,-3.6008,-3.625,-3.6419,-3.7592,-3.7667,-3.6978,-3.6978,-3.7226,-3.7534,-3.7625,-3.7839,-3.8127,-3.8202,-3.8202,-3.8202,-3.8202,-3.8202,-3.8202,0.0,0.0,0.0,0.0,0.0,0.0,0.0,0.0,0.0,0.0,0.0,0.0,0.0,0.0,0.0,0.0,0.0,0.0,0.0,0.0,0.0,-3.0684,-3.0393,-3.0252,-3.0294,-2.952,-2.9132,-2.9194,-2.8767,-2.842,-2.8226,-2.871,-2.9094,-2.9317,-2.8785,-2.8532,-2.8509,-2.7713,-2.7307,-2.7239,-2.7314,-2.76,-2.8018,-2.7375,-2.7003,-2.6624,-2.5433,-2.45,-2.3857,-2.3463,-2.3343,0.0,0.0,0.0,-2.3923,-2.4359,-2.5719,-2.7223,0.0,0.0,0.0,0.0,0.0,0.0,0.0,0.0,-3.961,0.0,-3.9768,-3.9753,-3.9681,-3.9478,-3.9167,-3.8792,-3.8626,-3.8394,-3.7916,-3.7825,-3.7633,-3.7159,-3.7159,-3.7204,-3.7204,-3.7517,-3.787,-3.8156,-3.9128,-3.9207,-3.8311,-3.8934,-3.8855,-3.7951,-3.7295,-3.6858,-3.6702,-3.6017,-3.571,-3.5737,-3.7195,-3.7318,-3.6432,-3.8053,-3.8102,-3.6978,-3.6978,-3.7148,-3.738,-3.7534,-3.7701,-3.7929,-3.8127,-3.8202,-3.8202,-3.8202,-3.8202,-3.8202,0.0,0.0,0.0,0.0,0.0,0.0,0.0,0.0,0.0,0.0,0.0,0.0,0.0,0.0,0.0,0.0,0.0,0.0,0.0,0.0,0.0,-3.1128,-3.0699,-3.0401,-3.0316,-2.9673,-2.9406,-2.9661,-2.9015,-2.9061,0.0,-2.9774,-2.9826,-2.9852,-2.9361,-2.9062,-2.8896,-2.7832,-2.7506,-2.7674,-2.7727,-2.8753,-3.0003,-2.8296,-2.8263,-2.8785,-2.6452,-2.5439,-2.505,-2.4176,-2.3956,-2.3956,-2.3675,0.0,0.0,0.0,-2.4741,0.0,-2.8858,0.0,0.0,0.0,0.0,0.0,0.0,0.0,-3.9307,-3.961,-3.9625,-3.9553,-3.9553,-3.9481,-3.932,-3.9107,-3.9118,-3.8892,-3.8424,-3.8318,-3.813,-3.7649,-3.7572,-3.7501,-3.7235,-3.7621,-3.7674,-3.7156,-3.8274,-3.8589,-3.7778,-3.8786,-3.9063,-3.8235,-3.8223,-3.7829,-3.6936,-3.6559,-3.6177,-3.5737,-3.7359,-3.7565,-3.6446,-3.8137,-3.8173,-3.6978,-3.6978,-3.7148,-3.7303,-3.738,-3.7625,-3.7929,-3.8005,-3.8142,-3.8202,-3.8202,-3.8202,-3.8202,0.0,0.0,0.0,0.0,0.0,0.0,0.0,0.0,0.0,0.0,0.0,0.0,0.0,0.0,0.0,0.0,0.0,0.0,0.0,0.0,0.0,-3.121,-3.0683,-3.0359,-3.0231,-2.9881,-2.9837,-3.0103,-2.9592,-2.9843,-3.074,-3.0649,-3.0622,-3.0592,-3.0018,-2.9555,-2.9143,-2.8055,-2.7817,-2.8222,-2.8655,-2.9924,-3.1369,-2.9327,-2.938,-3.0099,-2.6919,-2.5821,-2.5773,-2.473,-2.4452,-2.4452,-2.4073,-2.3852,0.0,0.0,0.0,0.0,0.0,0.0,0.0,0.0,0.0,0.0,0.0,0.0,-3.8943,0.0,-3.9481,-3.9424,-3.9424,-3.9424,-3.9424,-3.9424,-3.9424,-3.9245,-3.8963,-3.8888,-3.8702,-3.816,-3.8069,-3.7879,-3.7395,-3.7689,-3.7527,-3.6616,-3.7613,-3.7969,-3.7391,-3.8528,-3.8962,-3.8385,-3.8792,-3.8472,-3.7296,-3.7007,-3.6638,-3.6031,-3.7524,-3.7565,-3.6446,-3.8137,-3.8173,-3.6978,-3.6978,-3.707,-3.7226,-3.7303,-3.7457,-3.7777,-3.7853,-3.8005,-3.8127,-3.8202,-3.8202,-3.8202,0.0,0.0,0.0,0.0,0.0,0.0,0.0,0.0,0.0,0.0,0.0,0.0,-3.1408,-3.1497,-3.1894,-3.28,-3.2908,-3.2943,-3.2979,-3.2248,-3.17,-3.1497,-3.0666,0.0,-3.0375,-3.0443,-3.0443,-3.0375,-3.0845,0.0,-3.0892,-3.1243,-3.1422,-3.1392,-3.0761,-2.9789,-2.8599,-2.8284,-2.8163,-2.8349,-2.9933,-3.0654,-3.0649,-2.9776,-2.9484,-2.9154,-2.6016,0.0,0.0,0.0,0.0,-2.4738,-2.4878,-2.4563,-2.4274,0.0,0.0,0.0,0.0,0.0,0.0,0.0,0.0,0.0,0.0,0.0,0.0,-3.9337,-3.9424,-3.9424,-3.9424,-3.9424,-3.9424,-3.9424,-3.9424,-3.9409,-3.9379,-3.9364,-3.9197,-3.8732,-3.8641,-3.8454,-3.791,-3.7486,-3.7235,-3.714,-3.7394,-3.7554,-3.7489,-3.82,-3.8554,-3.8488,-3.8409,-3.8307,-3.8236,-3.7376,-3.6858,-3.6872,-3.7756,-3.7565,-3.6446,-3.8137,-3.8173,-3.6978,-3.6978,-3.6978,-3.7056,-3.7226,-3.7303,-3.738,-3.7777,-3.7929,-3.7929,-3.8127,-3.8202,-3.8202,0.0,0.0,0.0,0.0,0.0,0.0,0.0,0.0,0.0,0.0,0.0,0.0,0.0,-3.2474,-3.2644,-3.3037,-3.3152,-3.3042,-3.2651,-3.2057,-3.1551,-3.1116,-3.0601,-3.0359,-3.0417,-3.0485,-3.0485,-3.0417,-3.0765,-3.0768,-3.0398,-3.0711,-3.0691,-3.0393,-2.9998,-2.9809,-2.9595,-2.8172,0.0,0.0,0.0,0.0,0.0,0.0,0.0,0.0,0.0,0.0,0.0,0.0,0.0,0.0,0.0,0.0,0.0,0.0,0.0,0.0,0.0,0.0,0.0,0.0,0.0,-3.4768,-3.5621,-3.7172,-3.8501,-3.8943,-3.9017,-3.9104,-3.9337,-3.9424,-3.9424,-3.9424,-3.9424,-3.9424,-3.9424,-3.9424,-3.9334,-3.9152,-3.9137,-3.8938,-3.8469,-3.8251,-3.7886,-3.7266,-3.7284,-3.7164,-3.6876,-3.7492,-3.7861,-3.7861,-3.8228,-3.8425,-3.8332,-3.7463,-3.7261,-3.7663,-3.8566,-3.8332,-3.724,-3.8325,-3.8161,-3.6978,-3.6978,-3.6978,-3.6978,-3.707,-3.7148,-3.7303,-3.7457,-3.7625,-3.7701,-3.7915,-3.8005,-3.7991,0.0,0.0,0.0,0.0,0.0,0.0,0.0,0.0,0.0,-3.2412,0.0,0.0,0.0,0.0,-3.2948,-3.3011,-3.2993,-3.2798,-3.235,-3.1771,-3.1287,-3.0897,-3.0601,-3.0443,-3.0443,-3.0344,-3.0344,-3.0443,-3.0264,-3.0125,-3.0085,-3.0083,-2.9944,-2.9633,-2.9271,-2.9471,0.0,0.0,0.0,-2.8477,0.0,0.0,-3.4264,0.0,0.0,0.0,0.0,0.0,0.0,0.0,0.0,0.0,0.0,0.0,0.0,0.0,0.0,0.0,-2.6637,0.0,0.0,0.0,0.0,-3.2302,-3.4157,0.0,-3.7375,-3.8532,-3.8943,-3.9104,-3.9337,-3.9424,-3.9424,-3.9424,-3.9424,-3.9424,-3.9424,-3.9424,-3.9424,-3.9424,-3.9424,-3.9245,-3.8938,-3.8767,-3.8372,-3.7501,-3.7262,-3.6993,-3.6522,-3.6923,-3.7261,-3.7492,-3.7938,-3.8213,-3.8364,-3.7567,-3.752,-3.8165,-3.8779,-3.8641,-3.8037,-3.8826,-3.8692,-3.7782,-3.7782,-3.7491,-3.6978,-3.7289,-3.7289,-3.7211,-3.7596,-3.7596,-3.7534,-3.7701,-3.7777,-3.7853,0.0,0.0,0.0,0.0,0.0,0.0,0.0,0.0,-3.339,-3.339,0.0,0.0,0.0,0.0,0.0,-3.2773,-3.2519,-3.2282,-3.2057,-3.1346,-3.0897,-3.0897,-3.0642,-3.0526,-3.0526,-3.0061,-3.0028,-3.0477,-2.9426,-2.9271,-2.9943,-2.9506,-2.9301,-2.9342,-2.8702,-2.8845,-2.9549,0.0,-2.8985,-2.8808,0.0,-3.4442,-3.3832,0.0,0.0,0.0,-3.0767,-3.008,0.0,-3.3557,0.0,0.0,0.0,0.0,0.0,0.0,0.0,0.0,0.0,0.0,0.0,0.0,0.0,0.0,-3.3763,0.0,-3.5404,-3.8133,-3.8986,-3.9247,-3.9337,-3.9424,-3.9424,-3.9424,-3.9424,-3.9424,-3.9424,-3.9424,-3.9424,-3.9424,-3.9424,-3.9424,-3.9424,-3.8968,-3.8499,-3.794,-3.7486,-3.7009,-3.6522,-3.6492,-3.6799,-3.7446,-3.7477,-3.78,-3.8477,-3.7684,-3.7659,-3.8317,-3.8413,-3.8502,-3.8723,-3.961,-3.9786,-3.9305,-3.9305,-3.8442,-3.7134,-3.7901,-3.7749,-3.7134,-3.8098,-3.8037,-3.738,-3.7534,-3.7625,-3.7625,0.0,0.0,0.0,0.0,0.0,0.0,-3.3186,-3.3087,-3.3037,0.0,0.0,0.0,-3.2838,-3.2521,-3.2299,-3.2299,-3.1951,-3.1608,-3.1232,-3.0999,-3.0851,-3.074,-3.0675,-3.0651,-3.0651,-3.0049,-2.9782,-2.9845,-2.9149,-2.8816,-2.878,-2.8748,-2.8732,-2.8808,-2.8719,-2.8734,-2.8672,-2.8077,0.0,-2.8876,-3.2588,-3.4442,0.0,0.0,0.0,0.0,0.0,-3.6157,-3.6846,0.0,-3.5005,-3.1021,0.0,0.0,0.0,0.0,0.0,0.0,-2.4305,0.0,0.0,0.0,0.0,0.0,0.0,0.0,-3.1904,-3.4701,-3.5499,-3.6347,-3.8588,-3.9177,-3.9424,-3.9424,-3.9424,-3.9424,-3.9424,-3.9424,-3.9424,-3.9424,-3.9424,-3.9424,-3.9424,-3.9245,-3.8873,-3.797,-3.778,-3.7369,-3.6553,-3.6492,-3.6584,-3.6769,-3.6769,-3.7092,-3.7769,-3.7575,-3.7765,-3.8437,-3.9093,-3.9191,-3.8843,-3.9748,-3.9873,-3.9305,-3.9305,-3.9088,-3.8664,-3.8884,-3.8531,-3.7962,-3.8738,-3.8957,-3.8738,-3.8397,-3.8248,-3.8263,0.0,0.0,0.0,0.0,0.0,-3.2755,-3.2755,-3.287,-3.2884,0.0,0.0,0.0,-3.2506,-3.2092,-3.1844,-3.1842,-3.1456,-3.0976,-3.0375,-3.0523,-3.0318,-2.9752,-3.0059,-3.0266,-3.0266,-2.9613,-2.9506,-2.9995,-2.8926,-2.8417,-2.8519,-2.8139,-2.7969,-2.8018,0.0,0.0,0.0,0.0,0.0,0.0,-3.2752,0.0,0.0,-3.7068,-3.9135,0.0,0.0,0.0,-3.8962,-4.0296,-3.6813,0.0,0.0,0.0,0.0,0.0,0.0,0.0,0.0,0.0,0.0,0.0,0.0,0.0,-2.7527,-2.8972,-3.097,0.0,-3.5754,-3.6488,-3.8223,-3.8723,-3.8958,-3.9104,-3.9177,-3.9192,-3.9352,-3.9424,-3.9424,-3.9424,-3.9424,-3.9424,-3.9424,-3.9424,-3.9047,-3.8326,-3.8046,-3.7517,-3.6569,-3.6492,-3.6492,-3.6492,-3.6492,-3.6676,-3.7076,-3.7076,-3.7617,-3.8639,-3.9172,-3.957,-3.9893,-4.0446,-4.0547,-4.0239,-4.0239,-4.01,-3.9819,-4.017,-3.9606,-3.8752,-3.9463,-3.9606,-3.9247,-3.8957,-3.8811,-3.8826,0.0,0.0,-3.2066,-3.2603,-3.2345,-3.2026,-3.1996,-3.2514,-3.2884,0.0,-3.2773,-3.2523,-3.1967,-3.1625,-3.1418,-3.1428,-3.0982,-3.0382,-2.9586,-2.9947,-2.9708,-2.8506,-2.9332,-2.9811,-2.9811,-2.9138,-2.9337,-3.0394,-2.8626,-2.8102,-2.8716,-2.769,-2.7263,-2.7269,-2.7386,0.0,0.0,0.0,0.0,-2.8474,-3.3302,-3.4977,0.0,0.0,-3.9321,-3.8806,-3.9575,-3.923,-3.8888,-4.1626,-3.8953,0.0,0.0,0.0,0.0,0.0,-2.3688,0.0,0.0,0.0,0.0,0.0,-2.2673,0.0,-2.8852,-2.9625,-3.063,0.0,-3.6591,-3.6809,-3.7026,-3.707,-3.7259,-3.7546,-3.7898,-3.844,-3.9205,-3.9337,-3.9337,-3.9337,-3.9337,-3.9337,-3.9424,-3.9424,-3.9212,-3.8747,-3.813,-3.7425,-3.6569,-3.6492,-3.6492,-3.6492,-3.6492,-3.6492,-3.6492,-3.6492,-3.7264,-3.866,-3.8722,-3.9632,-4.1147,-4.1225,-4.139,-4.1588,-4.1588,-4.1241,-4.0684,-4.1307,-4.0737,-3.9535,-4.0324,-4.0185,-3.952,-3.9463,-3.9448,-3.9448,0.0,0.0,-3.257,-3.3205,-3.3056,-3.2791,-3.2638,-3.2827,-3.2934,-3.2823,-3.2523,-3.2109,-3.1507,-3.1145,-3.0948,-3.0925,-3.0452,-2.9903,-2.9231,-2.9947,-3.0021,-2.9307,-3.0172,-3.0613,-3.0516,-2.9788,-2.9499,-2.9632,-2.8322,-2.7801,-2.7934,-2.7519,-2.7495,-2.778,-2.761,0.0,0.0,0.0,0.0,-3.105,-3.3542,-3.5033,-3.6245,-4.0257,-4.2077,-4.2534,-4.273,-4.261,-4.1983,-3.9842,-3.8531,-3.6832,0.0,0.0,0.0,-2.511,0.0,0.0,0.0,0.0,0.0,0.0,-2.2315,0.0,-2.3646,-2.3752,-2.432,0.0,-2.7584,-2.8211,-2.9679,-3.0254,-3.0321,-2.993,-3.2507,-3.5583,-3.85,-3.8943,-3.8943,-3.8943,-3.8943,-3.9031,-3.9337,-3.9424,-3.9212,-3.8747,-3.784,-3.7067,-3.6538,-3.6492,-3.6492,-3.6492,-3.6492,-3.6492,-3.6492,-3.6492,-3.6892,-3.7772,-3.8441,-3.9253,-4.0126,-4.0836,-4.1221,-4.139,-4.139,-4.139,-4.139,-4.1522,-4.1091,-4.0324,-4.1091,-4.1307,-4.1091,-4.0462,-4.0255,-4.0255,0.0,-3.151,-3.0974,-3.1591,-3.188,-3.1984,-3.1864,-3.2496,-3.2916,-3.2805,-3.2214,-3.164,-3.1196,-3.074,-3.0385,-3.0061,-2.969,-2.9244,-2.8657,-2.9321,-2.9337,-2.8367,-2.948,-2.9976,-2.9546,-2.9509,-2.9676,-2.9963,-2.9146,-2.8574,-2.8309,-2.8216,-2.7794,-2.718,-2.7837,-2.7808,0.0,0.0,-2.9149,-3.1765,-3.3948,0.0,-3.8261,-4.1673,-4.3174,-4.3509,-4.3568,-4.3492,-4.3021,-4.0675,-3.8141,0.0,-3.3668,-3.2182,-3.0372,0.0,-2.6389,-2.6872,0.0,0.0,0.0,-2.2184,-2.2184,0.0,0.0,-2.4089,-2.4605,-2.6891,-2.7088,-2.7145,-2.8147,-2.8237,-2.8097,-2.812,-3.1058,-3.3265,-3.3176,-3.6305,-3.8517,-3.818,-3.8109,-3.8038,-3.7925,-3.7925,-3.7801,-3.7548,-3.7576,-3.7216,-3.6553,-3.6492,-3.6492,-3.6492,-3.6492,-3.6492,-3.6492,-3.683,-3.7402,-3.8145,-3.8955,-3.9703,-4.0453,-4.0878,-4.1153,-4.1323,-4.1323,-4.139,-4.1588,-4.1588,-4.1374,-4.1107,-4.1456,-4.1588,-4.1588,-4.1174,-4.1039,-4.1039,0.0,0.0,-2.9452,-3.0176,-3.0767,-3.116,-3.1247,-3.2204,-3.2852,-3.2573,-3.1793,-3.1117,-3.0819,-3.0842,-3.0692,-3.0299,-3.0576,-3.0252,-2.8949,-2.9527,-2.9041,-2.712,-2.8405,-2.894,-2.8549,-2.8907,-2.9551,-3.0384,-2.9802,-2.9267,-2.8795,-2.8701,-2.7997,-2.6865,-2.8623,-2.8497,0.0,0.0,0.0,-3.2719,0.0,-3.7126,-3.9854,-4.2473,-4.3432,-4.3372,-4.3432,-4.3432,-4.3108,-4.1645,-3.8177,-3.4539,-3.5388,-3.3361,0.0,0.0,0.0,0.0,0.0,0.0,0.0,0.0,0.0,-2.2752,0.0,0.0,0.0,-2.7839,0.0,0.0,0.0,0.0,0.0,-2.6717,0.0,0.0,0.0,-3.2176,0.0,-3.5344,-3.6424,-3.6808,-3.5583,-3.5456,-3.5717,-3.6365,-3.6592,-3.663,-3.6522,-3.6492,-3.6492,-3.6492,-3.6492,-3.6492,-3.6492,-3.7153,-3.791,-3.8769,-3.9385,-4.0148,-4.0966,-4.0966,-4.1086,-4.1189,-4.1189,-4.1323,-4.1538,-4.1522,-4.1522,-4.1522,-4.1588,-4.1588,-4.1588,-4.1588,-4.1588,-4.1588,-3.0075,-3.0008,0.0,-3.152,-3.1892,-3.2121,-3.2513,-3.2809,-3.2687,-3.1771,-3.1039,-3.0463,-3.0065,-3.1998,0.0,0.0,-3.5822,-3.5603,-3.1972,-3.2362,-3.0949,-2.7,-2.7748,-2.8476,-2.9018,-2.846,-2.8756,-3.006,-2.8946,-2.8397,-2.8352,-2.7997,-2.8018,-2.8388,-3.0765,0.0,0.0,0.0,-3.3414,0.0,-3.5914,-3.7245,0.0,-4.2069,-4.3068,-4.3113,-4.3174,-4.3174,-4.2818,-4.0668,-3.9172,-3.7229,0.0,-3.3576,-3.5102,-2.6046,0.0,0.0,0.0,0.0,0.0,0.0,-2.2184,-2.2255,-2.2583,0.0,-2.2521,-2.2315,0.0,-2.207,-2.2004,0.0,0.0,0.0,0.0,0.0,-2.3507,-2.6213,-2.8015,-2.7559,-3.3045,-3.5619,-3.2465,-3.214,-3.3363,-3.6201,-3.3907,-3.3621,-3.6368,-3.6492,-3.6492,-3.6492,-3.6492,-3.6492,-3.6492,-3.7153,-3.7846,-3.8508,-3.92,-3.9878,-4.0608,-4.0608,-4.0662,-4.0867,-4.0867,-4.095,-4.1169,-4.1272,-4.1307,-4.1323,-4.1522,-4.1588,-4.1588,-4.139,-4.1456,-4.1522,-2.8933,-2.8979,0.0,-2.9707,-3.0181,-3.0695,-3.1372,-3.2119,-3.2214,-3.1227,-3.0934,-3.0632,0.0,0.0,0.0,0.0,0.0,-3.4761,0.0,0.0,-3.0888,-2.6961,-2.7571,-2.811,-2.8388,-2.8535,-2.909,-3.0119,-2.9621,-2.9255,-2.8982,-2.8764,-2.8227,-2.762,-3.1299,0.0,-3.0284,0.0,-3.3875,0.0,0.0,-3.7167,0.0,-4.2409,-4.3416,-4.3235,-4.3235,-4.3295,-4.324,-4.22,-3.93,-3.6194,0.0,0.0,0.0,-2.9246,0.0,0.0,0.0,0.0,0.0,0.0,0.0,-2.4572,-2.2743,-2.2324,-2.2253,-2.209,0.0,0.0,0.0,0.0,0.0,0.0,-2.1918,-2.2798,0.0,0.0,-2.7677,-2.6894,-2.8949,-3.0338,-2.9925,-3.0727,-3.2488,-3.5311,-3.314,-3.3076,-3.6353,-3.6492,-3.6492,-3.6492,-3.6492,-3.6676,-3.7076,-3.7754,-3.8596,-3.9638,-4.0325,-4.081,-4.1091,-4.1091,-4.0972,-4.0799,-4.0799,-4.0882,-4.1102,-4.1169,-4.1153,-4.1221,-4.1288,-4.1406,-4.1588,-4.1522,-4.1456,-4.139,-2.8172,0.0,0.0,0.0,-2.8938,-2.9603,-3.0505,-3.1177,-3.1403,-3.0954,-3.0801,0.0,-3.0359,-3.1806,0.0,0.0,-3.6435,-3.6225,0.0,0.0,-3.1681,-2.804,-2.7492,-2.7914,-2.928,-2.8698,-2.8983,-3.0119,-2.995,-2.9691,-2.938,-2.9348,-2.8618,-2.7527,-3.1637,-3.2785,-3.1667,0.0,-3.5397,-3.6934,-3.7275,-3.8127,-3.947,-4.2695,-4.3697,-4.3312,-4.3372,-4.3432,-4.341,-4.268,-3.9371,-3.6161,-3.9699,-3.6564,-3.1703,0.0,0.0,0.0,-2.514,-2.5732,-2.6896,-2.3339,-2.425,-2.5429,-2.3094,-2.2509,-2.2555,-2.2873,-2.2629,0.0,0.0,0.0,-2.091,-2.0768,0.0,-2.2055,0.0,-2.2934,0.0,-2.4454,-2.4538,-2.5537,-2.7722,-2.8266,-3.0041,-3.385,-3.1877,-3.2374,-3.6628,-3.6785,-3.6662,-3.6662,-3.6739,-3.7015,-3.7507,-3.8534,-3.9511,-4.0498,-4.1373,-4.1771,-4.1771,-4.1771,-4.1459,-4.0972,-4.0972,-4.1003,-4.0966,-4.0966,-4.1034,-4.1034,-4.1117,-4.1236,-4.1472,-4.139,-4.1323,-4.1205,-2.8134,-2.8154,0.0,0.0,0.0,-2.968,-3.0809,-3.03,0.0,0.0,0.0,0.0,0.0,0.0,0.0,0.0,0.0,-4.3253,-3.6335,0.0,-3.4501,0.0,0.0,-2.7935,0.0,-2.8942,-2.7851,-2.9902,-2.9274,-2.9,-2.912,-2.912,-2.9088,-2.915,-3.2161,-3.3682,-3.4136,-3.6447,-3.9221,-4.1994,-4.1454,-4.06,-3.9989,-4.2774,-4.3502,-4.3113,-4.3312,-4.3372,-4.3059,-4.0861,-3.9723,-3.8805,-3.6296,-3.697,-3.7918,-3.4574,-3.5895,0.0,-2.9983,-2.8688,-2.833,-2.4133,-2.3142,-2.3185,-2.3098,-2.2828,-2.2828,-2.361,-2.3465,-2.3493,-2.4364,-2.3196,-2.2366,-2.3071,-2.1041,0.0,0.0,-1.9261,-1.8229,-1.7178,-1.9776,-2.289,-2.5966,-2.3587,-2.4688,-3.1582,-2.9184,-3.0479,-3.7492,-3.7417,-3.7194,-3.7194,-3.7374,-3.7477,-3.7507,-3.9469,-4.0467,-4.0498,-4.1804,-4.2458,-4.2458,-4.2458,-4.2078,-4.1459,-4.1459,-4.1075,-4.0524,-4.073,-4.0799,-4.0799,-4.1034,-4.1117,-4.1102,-4.0882,-4.095,-4.1034,0.0,0.0,0.0,0.0,0.0,0.0,0.0,-2.9632,0.0,0.0,-3.3,0.0,0.0,-3.7547,-3.9488,0.0,0.0,-4.2157,-3.6317,-3.6225,0.0,0.0,0.0,-2.8147,0.0,-2.9468,-2.8583,-2.9146,-2.9416,-2.9572,-2.9621,-2.9335,-2.9125,-2.901,-3.2089,-3.4401,0.0,0.0,0.0,0.0,0.0,-3.8504,-4.0353,-4.0994,-4.0661,-4.0304,-4.3006,-4.3789,-4.3393,-4.2633,-4.0869,-3.9201,-4.0393,-3.8427,-3.5782,-3.648,-3.6011,-3.4663,-3.2071,-3.3134,-3.3628,-2.7959,-2.8128,-2.8624,-2.4492,-2.3494,-2.336,-2.3251,-2.3701,-2.38,-2.2631,-2.2592,0.0,-2.182,-2.1004,-2.0428,0.0,-1.9642,-1.8992,-1.8771,-2.1237,0.0,-2.306,-2.4391,-2.7045,-3.1434,-3.0874,-3.2463,-3.7297,-3.7653,-3.7918,-3.8483,-3.8603,-3.9116,-4.0146,-4.0796,-4.1633,-4.2472,-4.2961,-4.3136,-4.3136,-4.3136,-4.2831,-4.2141,-4.1706,-4.1641,-4.1771,-4.1393,-4.1656,-4.2205,-4.1607,-4.1475,-4.1672,-4.1205,-4.095,-4.0882,-2.7642,0.0,0.0,0.0,0.0,0.0,0.0,0.0,0.0,0.0,-3.3912,0.0,-3.833,0.0,-4.1208,0.0,-4.4082,-4.2356,-3.6484,-3.7439,0.0,-3.162,-3.0765,-3.1681,0.0,0.0,-3.0608,-3.0598,-3.0163,-2.9946,-2.9946,-2.9665,-2.9424,-2.9329,-3.1396,-3.4225,-3.7399,-3.7894,-3.9915,0.0,0.0,-3.6504,0.0,-3.8233,-3.842,-3.9343,-4.3141,-4.4236,-4.3848,-4.3848,-4.2353,-4.0844,-4.2973,-4.0729,-3.7796,-3.9642,-3.8674,-3.675,-3.5428,-3.6628,-3.6917,-3.1565,-3.182,-3.195,-2.6516,-2.5175,-2.4658,-2.3225,-2.3382,-2.3367,-2.217,-2.2323,-2.2356,0.0,0.0,0.0,0.0,-1.9945,-1.9624,-1.9624,-2.1054,0.0,0.0,-2.3774,-2.6321,-3.0898,-3.1357,-3.3022,-3.6741,-3.8164,-3.9224,-3.9894,-3.9978,-4.0485,-4.1513,-4.1955,-4.2616,-4.3512,-4.3781,-4.3914,-4.3914,-4.3914,-4.3529,-4.2831,-4.2395,-4.2332,-4.2458,-4.2013,-4.2269,-4.2753,-4.2252,-4.2013,-4.1917,-4.1205,-4.0814,-4.0662,-2.6982,0.0,0.0,0.0,-2.7906,0.0,0.0,0.0,-2.8951,0.0,-3.3389,-3.4755,-3.8866,-4.1577,-4.3147,-4.3205,-4.5541,-4.4096,-3.7167,-3.9792,0.0,0.0,-3.6103,-3.7922,-4.1181,0.0,0.0,0.0,-3.1276,-3.0017,-3.0017,-3.0017,-3.0017,-3.0017,-3.029,0.0,-3.7729,-3.798,-4.099,-4.501,-3.7813,-3.4906,-3.4958,-3.5136,-3.7195,-4.0392,-4.3727,-4.4652,-4.435,-4.435,-4.4023,-4.3611,-4.3611,-4.3628,-4.3628,-4.3628,-4.3628,-4.2956,-4.0028,-3.9232,-3.8417,-3.4923,-3.4043,-3.3042,-2.9198,-2.8013,-2.6954,-2.4115,-2.3136,-2.2885,-2.3215,-2.2745,-2.2197,0.0,0.0,0.0,-2.0345,-2.0,-1.9696,-1.9398,-1.9213,0.0,0.0,-2.1723,-2.2714,-3.003,-3.0478,-3.2174,-3.6124,-3.8958,-4.068,-4.1238,-4.1471,-4.159,-4.1638,-4.2927,-4.3571,-4.3571,-4.4253,-4.4587,-4.4587,-4.4587,-4.4236,-4.3571,-4.3512,-4.3196,-4.2629,-4.2567,-4.2629,-4.2691,-4.2982,-4.2661,-4.198,-4.0919,-4.0524,-4.0524,-2.7709,-2.7776,-2.7771,0.0,-2.762,-2.7668,0.0,0.0,0.0,0.0,-3.6481,-3.8214,-4.4269,-4.5534,-4.5962,-4.5942,-4.6613,0.0,0.0,0.0,0.0,-3.867,-3.8025,-3.8572,-4.0376,-3.6457,-3.4033,-3.3316,-3.1193,-3.0146,-3.0146,-3.0231,-3.0231,-3.0146,-3.0231,-3.1616,-3.3919,-3.3953,-3.5417,-3.7637,-3.5792,-3.5169,-3.5626,-3.8219,-3.9896,-4.1263,-4.4319,-4.5142,-4.4763,-4.4763,-4.4446,-4.4138,-4.4138,-4.3906,-4.3628,-4.3628,-4.3628,-4.3403,-4.2659,-4.2402,-4.1634,-3.8428,-3.7654,-3.68,-3.342,-3.2611,-3.2192,-3.0907,-3.1037,-3.0186,-2.631,-2.5947,-2.5142,0.0,0.0,0.0,0.0,0.0,0.0,-2.0462,-1.9945,-1.9872,-2.0703,-2.2188,-2.4948,-2.9515,-2.9922,-3.2756,-3.9159,-3.8027,-3.8731,-4.2268,-4.2518,-4.2924,-4.3573,-4.4078,-4.431,-4.431,-4.4514,-4.4587,-4.4587,-4.4587,-4.4514,-4.431,-4.4013,-4.4054,-4.4356,-4.4061,-4.4328,-4.4912,-4.4271,-4.3343,-4.2285,-4.1557,-4.1122,-4.1003,-2.7359,0.0,0.0,-2.7264,0.0,0.0,-2.938,-2.7805,0.0,-3.6857,-3.722,0.0,-4.4339,-4.6166,-4.6998,-4.6924,-4.6998,0.0,-4.1635,0.0,0.0,-4.0253,-4.1339,-4.2175,-4.2502,-3.9792,0.0,-3.5521,-3.3261,-3.1523,-3.029,-3.0359,-3.0375,-3.029,0.0,-3.1382,-3.3447,-3.5737,-3.6104,-3.5285,-3.6864,-3.758,0.0,-3.9905,-4.1789,-4.358,-4.5277,-4.558,-4.523,-4.534,-4.5089,-4.4791,-4.4934,-4.458,-4.4092,-4.4092,-4.386,-4.3628,-4.3628,-4.3568,-4.3112,-4.1362,-4.0836,-3.987,-3.6381,-3.5613,-3.5045,-3.3064,-3.2951,-3.2238,-2.9011,-2.7695,-2.5747,0.0,0.0,0.0,0.0,0.0,0.0,0.0,-2.0204,-1.9818,-1.9376,-2.1326,-2.4135,-2.7778,-2.82,-3.021,-3.4595,-3.6108,-3.8063,-4.0875,-4.1067,-4.2148,-4.4179,-4.2837,-4.2946,-4.444,-4.457,-4.4587,-4.4587,-4.4587,-4.4587,-4.457,-4.4502,-4.4669,-4.4978,-4.491,-4.5161,-4.558,-4.4875,-4.4271,-4.3623,-4.2769,-4.1933,-4.1339,-2.6688,0.0,0.0,0.0,0.0,0.0,0.0,-2.9772,0.0,-3.6804,0.0,-3.8556,-4.2433,-4.5308,-4.6906,-4.6802,-4.697,-4.582,-4.2757,-4.5515,-4.5559,-4.1693,-4.5098,-4.6659,-4.5828,-4.389,-4.1525,0.0,-3.5977,-3.322,-3.0401,-3.0401,-3.0401,-3.0401,0.0,0.0,0.0,-3.8915,-3.8703,-3.5723,-3.9206,-4.0609,-4.0662,-4.1173,-4.3353,-4.6172,-4.6172,-4.5972,-4.5736,-4.5952,-4.575,-4.5503,-4.5711,-4.5302,-4.4793,-4.4693,-4.4235,-4.3684,-4.3585,-4.3492,-4.3372,-4.3372,-4.3235,-4.2217,-3.8829,-3.8075,-3.7128,-3.3953,-3.3208,-3.2804,-3.1787,-2.8544,-2.4978,0.0,0.0,-2.1674,0.0,0.0,0.0,0.0,-2.0996,0.0,-1.9589,-2.0065,-2.2003,-2.5749,-2.5847,-2.6578,-2.8582,-3.4143,-3.7915,-3.9191,-3.936,-4.0702,-4.3361,-4.0894,-4.0998,-4.3586,-4.4277,-4.457,-4.4587,-4.4587,-4.4587,-4.4643,-4.494,-4.5032,-4.5086,-4.5389,-4.5477,-4.5494,-4.5178,-4.5161,-4.5197,-4.4118,-4.297,-4.1835,-2.7115,0.0,0.0,0.0,0.0,-3.2266,-3.5685,-3.5151,-3.6068,-4.0887,-4.077,-4.1654,-4.5458,-4.636,-4.6637,-4.6655,-4.6702,0.0,0.0,0.0,0.0,-4.5936,-4.6978,-4.7327,-4.6783,-4.4254,-4.1604,-3.8747,-3.5941,-3.3143,-3.0485,-3.0485,-3.0485,0.0,0.0,0.0,-3.2957,-3.2916,0.0,-3.5363,-3.9123,-4.0658,-4.0961,-4.4177,-4.5721,-4.6172,-4.6172,-4.6172,-4.609,-4.6162,-4.5892,-4.5596,-4.561,-4.5456,-4.5186,-4.4565,-4.438,-4.4207,-4.3597,-4.3312,-4.3174,-4.3174,-4.3113,-4.2933,-4.225,-4.2103,-4.1923,-4.1226,-4.1096,-3.9928,-3.6117,-2.9456,-2.434,-2.3867,-2.4084,-2.5281,-2.807,0.0,0.0,0.0,0.0,-2.3939,-2.034,-2.0444,-2.2126,-2.5436,-2.3506,-2.6216,-3.5465,-3.4363,-3.634,-4.2526,-4.2932,-4.1838,-3.942,-4.1937,-4.2102,-3.9851,-4.2918,-4.444,-4.4587,-4.4587,-4.4587,-4.4643,-4.514,-4.5336,-4.5389,-4.5854,-4.6073,-4.6073,-4.6023,-4.5717,-4.525,-4.5074,-4.4232,-4.3092,0.0,0.0,0.0,0.0,0.0,0.0,0.0,-4.0817,-4.1777,-4.2151,-4.1783,-4.2136,-4.3978,-4.5634,-4.659,-4.6495,-4.6731,-4.6842,-4.6702,-4.716,-4.7312,-4.698,-4.7338,-4.7381,-4.7143,-4.5891,-4.3172,-3.8946,-3.7577,-3.4695,-3.0526,-3.0526,-3.0526,-3.0659,0.0,-3.2765,0.0,-3.5734,-3.7324,-3.8467,-4.2115,-4.3522,-4.3704,-4.5598,-4.627,-4.6172,-4.6172,-4.6172,-4.6242,-4.6426,-4.6343,-4.6186,-4.6315,-4.5815,-4.506,-4.4774,-4.4215,-4.3638,-4.3295,-4.3113,-4.3007,-4.3007,-4.2929,-4.2867,-4.2867,-4.2867,-4.2867,-4.2867,-4.2867,-4.1488,-3.7031,-3.0794,-2.6486,-2.7017,-2.5671,-2.5838,-2.9475,-3.0486,-3.0101,0.0,0.0,0.0,-2.2774,-2.118,-2.0994,-2.273,-2.1863,-2.4492,-3.1879,-3.2406,-3.5069,-4.0647,-4.094,-4.1045,-4.1122,-4.1138,-4.1318,-4.1502,-4.3412,-4.4367,-4.444,-4.472,-4.4737,-4.4626,-4.5336,-4.5529,-4.5441,-4.5972,-4.6172,-4.6172,-4.6172,-4.6005,-4.5717,-4.5425,-4.4749,-4.3848,0.0,-2.9065,0.0,0.0,-3.5935,-3.8338,-4.1626,-4.4858,-4.5952,-4.3288,-4.2864,-4.2864,-4.2926,-4.5121,-4.659,-4.6542,-4.6888,-4.7043,-4.6778,-4.7276,-4.7486,-4.716,-4.7294,-4.7407,-4.7407,-4.732,-4.4925,-4.001,-3.9452,-3.6409,-3.1149,-3.089,-3.1113,-3.1796,-3.382,-3.4917,-3.5566,-4.0349,-4.2382,-4.2579,-4.522,-4.627,-4.6239,-4.627,-4.627,-4.6221,-4.627,-4.627,-4.6291,-4.6325,-4.6361,-4.6413,-4.6625,-4.5826,-4.479,-4.4739,-4.394,-4.3042,-4.2999,-4.2873,-4.2778,-4.2778,-4.2707,-4.2634,-4.2634,-4.2634,-4.2634,-4.2634,-4.2391,-4.0809,-3.6508,-3.2176,-2.9291,-2.9203,-2.7554,-2.7274,-3.0266,-3.1629,-3.1955,0.0,0.0,0.0,-2.5909,-2.2385,-2.0495,-2.1384,-2.1834,-2.3886,-2.8036,-3.0777,-3.4112,-3.8096,-3.8247,-3.9242,-4.1276,-4.0147,-4.0654,-4.2732,-4.3729,-4.4253,-4.4253,-4.4703,-4.4814,-4.4665,-4.5424,-4.5701,-4.5598,-4.6023,-4.6172,-4.6172,-4.6172,-4.6172,-4.6122,-4.5649,-4.5091,-4.4529,0.0,0.0,0.0,0.0,0.0,-3.7277,-4.1938,-4.494,-4.6578,-4.6387,-4.6147,-4.6005,-4.6147,-4.6413,-4.6684,-4.6934,-4.6998,-4.707,-4.7214,-4.732,-4.7425,-4.7633,-4.7657,-4.7657,-4.7657,-4.7407,-4.5878,-4.3019,-4.0512,-3.723,-3.3274,-3.2124,-3.28,-3.4966,-3.5042,-3.7669,-4.2123,-4.2482,-4.3997,-4.6118,-4.6418,-4.6416,-4.6221,-4.6447,-4.6398,-4.6221,-4.6495,-4.6542,-4.6454,-4.5567,-4.526,-4.5277,-4.5299,-4.4898,-4.4302,-4.3663,-4.3442,-4.3288,-4.2642,-4.2468,-4.2451,-4.2451,-4.2545,-4.2634,-4.2634,-4.2634,-4.2634,-4.2634,-4.1598,-3.9379,-3.5088,-3.324,-3.1404,-2.8375,-3.0741,-3.3048,-3.317,-3.6857,-3.8235,-3.4644,0.0,0.0,-2.9251,-2.4289,-2.2264,-2.492,-2.5035,-2.7064,-3.1748,-3.1682,-3.3568,-3.8166,-3.8195,-3.6754,-3.3865,-4.0022,-4.168,-3.8952,-4.2355,-4.3998,-4.4155,-4.4406,-4.4614,-4.4708,-4.5372,-4.5803,-4.6122,-4.6172,-4.6172,-4.6172,-4.6172,-4.6172,-4.6172,-4.6122,-4.5717,-4.5197,0.0,0.0,-3.6016,-4.0382,-4.0541,-4.1374,-4.5122,-4.6418,-4.698,-4.7043,-4.6888,-4.6795,-4.6842,-4.6842,-4.6888,-4.6998,-4.7116,-4.7232,-4.7302,-4.745,-4.7615,-4.7717,-4.7717,-4.7717,-4.7717,-4.7597,-4.6176,-4.34,-4.0801,-3.787,-3.4673,-3.4164,-3.5257,-3.7708,-3.9287,-4.1092,-4.3085,-4.4463,-4.5629,-4.659,-4.659,-4.6542,-4.6447,-4.6749,-4.6795,-4.6702,-4.6795,-4.6795,-4.6649,-4.6253,-4.5735,-4.5164,-4.4566,-4.392,-4.3398,-4.321,-4.2824,-4.2467,-4.2291,-4.2284,-4.2353,-4.2267,-4.2336,-4.243,-4.2319,-4.2393,-4.237,-4.1927,-4.0782,-3.9363,-3.7647,-3.4872,-3.3111,-3.4103,-3.381,-3.4151,-3.6381,-3.8395,0.0,-3.4349,0.0,-2.9235,-2.929,-2.3063,-2.0702,-2.4808,-2.3911,-2.4996,-2.9154,-3.074,-3.2585,-3.4864,-3.8725,-3.9255,-3.6123,-4.1077,-4.3016,-4.1866,-4.3394,-4.4155,-4.4253,-4.478,-4.5213,-4.5477,-4.558,-4.5854,-4.6172,-4.6172,-4.6172,-4.6172,-4.6172,-4.6172,-4.6172,-4.6172,-4.5819,-4.5303,-3.9228,-3.91,-3.9952,-4.3846,-4.3447,-4.3685,-4.6993,-4.7312,-4.7178,-4.7267,-4.7223,-4.7116,-4.7088,-4.707,-4.7116,-4.7223,-4.7294,-4.7363,-4.7363,-4.7511,-4.7572,-4.7572,-4.7572,-4.7572,-4.7572,-4.7572,-4.6621,-4.4599,-4.2096,-3.97,-3.7374,-3.665,-3.7822,-4.0607,-4.2477,-4.3725,-4.4517,-4.614,-4.6824,-4.6824,-4.6824,-4.6778,-4.6731,-4.698,-4.707,-4.6998,-4.707,-4.7025,-4.688,-4.6557,-4.6067,-4.5453,-4.46,-4.3839,-4.323,-4.3071,-4.2632,-4.2171,-4.1987,-4.2117,-4.2244,-4.2109,-4.221,-4.2316,-4.2272,-4.2266,-4.2076,-4.1193,-4.0173,-3.9412,-3.9201,-3.6605,-3.5037,-3.6702,-3.573,-3.5326,-3.6983,-3.815,-3.7478,-3.3874,-3.0364,-2.8813,-3.0323,-2.4039,-2.2149,-2.7636,-2.588,-2.5612,-2.8092,-2.9939,-3.1758,-3.3653,-3.8179,-3.962,-3.7668,-4.1488,-4.3531,-4.3779,-4.4192,-4.435,-4.4406,-4.5052,-4.5598,-4.5972,-4.5854,-4.5955,-4.6172,-4.6172,-4.6172,-4.6172,-4.6172,-4.6172,-4.6172,-4.6172,-4.5938,-4.5528,-4.1978,-3.9782,-3.9462,-4.6006,-4.3817,-4.2465,-4.6391,-4.6998,-4.7116,-4.7468,-4.7511,-4.7425,-4.7241,-4.7249,-4.7407,-4.7675,-4.7554,-4.7511,-4.7511,-4.7363,-4.7302,-4.7302,-4.7302,-4.7302,-4.7302,-4.7302,-4.7345,-4.7457,-4.4975,-4.3212,-4.2073,-3.9619,-4.042,-4.3942,-4.3701,-4.5114,-4.7621,-4.7389,-4.7302,-4.7302,-4.7302,-4.7187,-4.7025,-4.7232,-4.7187,-4.7043,-4.7232,-4.732,-4.7106,-4.6007,-4.5784,-4.5917,-4.5595,-4.4926,-4.4112,-4.3253,-4.2996,-4.2775,-4.185,-4.1754,-4.195,-4.2068,-4.2078,-4.221,-4.2492,-4.2328,-4.1732,-4.0558,-3.9902,-3.9266,-3.8537,-3.8488,-3.7357,-3.3761,-3.6307,-3.7474,-3.3876,-3.6296,-3.7243,-3.397,-3.0595,-2.9858,-3.3412,-2.877,-2.8336,-3.5137,-3.2957,-3.1016,-3.041,-2.9708,-3.1411,-3.5907,-3.5993,-3.6026,-3.6107,-4.0675,-4.2992,-4.3009,-4.3996,-4.4502,-4.4502,-4.5106,-4.5598,-4.6023,-4.6122,-4.6189,-4.6172,-4.6172,-4.6172,-4.6172,-4.6172,-4.6172,-4.6172,-4.6172,-4.6189,-4.6172,-4.5198,-4.4574,-4.451,-4.6978,-4.6209,-4.5728,-4.7008,-4.7178,-4.7178,-4.7267,-4.7338,-4.732,-4.7223,-4.7338,-4.7407,-4.7407,-4.7468,-4.7468,-4.7363,-4.7407,-4.7407,-4.7302,-4.7302,-4.7302,-4.7302,-4.7302,-4.7363,-4.7511,-4.5029,-4.3674,-4.3404,-4.2609,-4.379,-4.6517,-4.6434,-4.6892,-4.7657,-4.7407,-4.7302,-4.7302,-4.7302,-4.7258,-4.7232,-4.7468,-4.7529,-4.7486,-4.7468,-4.7363,-4.7222,-4.6882,-4.6722,-4.6695,-4.6668,-4.5579,-4.4236,-4.3943,-4.3545,-4.3129,-4.2661,-4.2437,-4.2261,-4.2005,-4.2129,-4.2255,-4.2142,-4.1665,-4.1035,-4.0396,-3.9754,-3.9232,-3.9002,-3.8711,-3.8091,-3.701,-3.7867,-3.8264,-3.7085,-3.5834,-3.3664,-2.9957,-2.6536,-2.6049,-2.9984,-2.6177,-2.5864,-3.155,-2.8407,-2.7604,-3.083,-3.24,-3.2923,-3.2326,-3.6933,-3.8388,-3.6107,-4.0352,-4.2715,-4.3276,-4.3623,-4.4286,-4.523,-4.5336,-4.5598,-4.5972,-4.6023,-4.6122,-4.6172,-4.6172,-4.6172,-4.6172,-4.6172,-4.6172,-4.6172,-4.6172,-4.6172,-4.6172,-4.6569,-4.6779,-4.6952,-4.7564,-4.7447,-4.7294,-4.732,-4.7276,-4.7267,-4.7267,-4.7276,-4.7276,-4.7196,-4.7312,-4.7381,-4.732,-4.7338,-4.7338,-4.7294,-4.7294,-4.7294,-4.7187,-4.7187,-4.7187,-4.7187,-4.7187,-4.7232,-4.7399,-4.587,-4.5191,-4.5391,-4.5332,-4.6187,-4.7717,-4.7717,-4.7717,-4.7699,-4.7511,-4.745,-4.745,-4.745,-4.745,-4.7468,-4.7615,-4.7717,-4.7699,-4.7615,-4.7511,-4.7363,-4.732,-4.7232,-4.7116,-4.7133,-4.632,-4.533,-4.4955,-4.4343,-4.3667,-4.3156,-4.262,-4.2227,-4.1943,-4.1989,-4.2056,-4.1847,-4.1323,-4.0779,-4.0263,-3.9681,-3.9152,-3.9007,-3.8711,-3.8504,-3.8576,-3.8616,-3.8105,-3.6755,-3.4675,-3.1952,-2.8109,-2.588,-2.6264,-3.0448,-2.8693,-2.9302,-3.4093,-3.1948,-3.1807,-3.4973,-3.3889,-3.3554,-3.4351,-3.8738,-3.9982,-3.7732,-4.073,-4.2381,-4.2717,-4.349,-4.4491,-4.5667,-4.5667,-4.5803,-4.6073,-4.6073,-4.6122,-4.6172,-4.6172,-4.6172,-4.6172,-4.6172,-4.6172,-4.6172,-4.6172,-4.6172,-4.6172,-4.6335,-4.673,-4.7137,-4.7791,-4.7662,-4.745,-4.7302,-4.7302,-4.7302,-4.7302,-4.732,-4.7276,-4.7196,-4.7196,-4.7223,-4.7276,-4.7205,-4.7196,-4.7196,-4.7088,-4.6998,-4.6998,-4.6998,-4.6998,-4.6998,-4.6998,-4.7088,-4.7196,-4.7294,-4.7407,-4.7657,-4.7554,-4.7554,-4.7717,-4.7699,-4.7699,-4.7717,-4.7717,-4.7717,-4.7717,-4.7717,-4.7717,-4.7717,-4.7717,-4.7717,-4.7717,-4.7699,-4.7615,-4.7468,-4.7363,-4.7302,-4.7232,-4.707,-4.7088,-4.7008,-4.6069,-4.5232,-4.4421,-4.3395,-4.2555,-4.1974,-4.196,-4.1801,-4.163,-4.1612,-4.134,-4.0951,-4.0239,-3.9697,-3.9206,-3.8821,-3.8711,-3.8655,-3.8672,-3.8421,-3.7031,-3.3599,-3.2918,-3.1554,-2.8241,-2.7994,-2.9755,-3.4032,-3.4954,-3.6928,-4.0876,-4.1157,-4.1157,-4.12,-3.4518,-3.3808,-4.0595,-4.103,-4.092,-4.0449,-4.1635,-4.2033,-4.1646,-4.3575,-4.4902,-4.5751,-4.5835,-4.602,-4.6172,-4.6172,-4.6172,-4.6172,-4.6172,-4.6172,-4.6172,-4.6172,-4.6172,-4.6172,-4.6172,-4.6172,-4.6172,-4.6384,-4.6778,-4.7216,-4.7802,-4.7599,-4.7363,-4.7302,-4.7302,-4.7302,-4.7302,-4.7249,-4.7223,-4.7196,-4.7088,-4.7025,-4.707,-4.7133,-4.7151,-4.7043,-4.7088,-4.7088,-4.698,-4.6998,-4.6998,-4.6998,-4.6998,-4.7088,-4.7196,-4.7294,-4.7363,-4.7554,-4.7407,-4.745,-4.7717,-4.7597,-4.7615,-4.7717,-4.7717,-4.7717,-4.7717,-4.7717,-4.7717,-4.7717,-4.7717,-4.7717,-4.7675,-4.7554,-4.7468,-4.7363,-4.7302,-4.7187,-4.707,-4.7133,-4.7088,-4.7007,-4.6783,-4.5819,-4.4821,-4.4367,-4.3474,-4.2617,-4.2415,-4.2225,-4.2009,-4.1752,-4.1603,-4.1372,-4.0943,-4.075,-4.0559,-4.0302,-3.9817,-3.9404,-3.9259,-3.6615,-3.4251,-3.3404,-3.1128,-2.933,-2.8586,-2.8892,-3.0831,-3.5165,-3.5374,-3.608,-3.8078,-3.7842,-3.7801,-3.8183,-3.6673,-3.7334,-4.0681,-4.1331,-4.1331,-4.0707,-4.1359,-4.1667,-4.1629,-4.3297,-4.441,-4.4933,-4.5099,-4.5562,-4.6172,-4.6172,-4.6172,-4.6172,-4.6172,-4.6172,-4.6172,-4.6172,-4.6172,-4.6172,-4.6172,-4.6172,-4.6172,-4.6954,-4.7121,-4.7364,-4.7985,-4.7757,-4.7468,-4.7468,-4.7468,-4.7468,-4.7407,-4.7381,-4.7294,-4.7249,-4.7178,-4.7088,-4.7143,-4.7133,-4.7088,-4.698,-4.7088,-4.7088,-4.698,-4.6998,-4.6998,-4.6998,-4.6998,-4.7088,-4.7196,-4.716,-4.7232,-4.7407,-4.7294,-4.7338,-4.7529,-4.7847,-4.8009,-4.8157,-4.8114,-4.8114,-4.8121,-4.7698,-4.7511,-4.7511,-4.7511,-4.7511,-4.7511,-4.7511,-4.7407,-4.7302,-4.7302,-4.7232,-4.7143,-4.7133,-4.7088,-4.7017,-4.6659,-4.5825,-4.4869,-4.4324,-4.3483,-4.2714,-4.2483,-4.2326,-4.2193,-4.2033,-4.1965,-4.1788,-4.1366,-4.1168,-4.103,-4.0703,-4.0201,-3.9851,-3.9919,-3.632,-3.3604,-3.3802,-3.0783,-2.9273,-3.1066,-3.1743,-3.3775,-3.8006,-3.8192,-3.8467,-3.9447,-3.9247,-3.9247,-3.9622,-3.9777,-4.0388,-4.1552,-4.2139,-4.2162,-4.1569,-4.1543,-4.1677,-4.2102,-4.2805,-4.348,-4.4118,-4.4663,-4.5145,-4.5614,-4.6032,-4.6172,-4.6172,-4.6172,-4.6172,-4.6172,-4.6172,-4.6172,-4.6172,-4.6172,-4.6172,-4.6172,-4.7665,-4.7596,-4.7592,-4.8294,-4.8025,-4.7717,-4.7717,-4.7717,-4.7657,-4.7554,-4.7511,-4.7468,-4.7345,-4.7249,-4.7267,-4.732,-4.7143,-4.7025,-4.7025,-4.7043,-4.7043,-4.7043,-4.7043,-4.7043,-4.6998,-4.6998,-4.7088,-4.7196,-4.7088,-4.7116,-4.7276,-4.7223,-4.7277,-4.7517,-4.8075,-4.8443,-4.864,-4.8425,-4.8371,-4.8424,-4.7633,-4.7302,-4.7302,-4.7302,-4.7302,-4.7363,-4.7468,-4.7425,-4.732,-4.732,-4.7302,-4.7232,-4.707,-4.7088,-4.7017,-4.6086,-4.5437,-4.4821,-4.387,-4.3162,-4.2591,-4.2432,-4.2369,-4.2369,-4.2391,-4.2328,-4.2187,-4.176,-4.1481,-4.1213,-4.0856,-4.0525,-4.0212,-3.9907,-3.6039,-3.3208,-3.3719,-3.0862,-3.0204,-3.4176,-3.5659,-3.7685,-4.1192,-4.163,-4.1881,-4.2369,-4.2391,-4.249,-4.2649,-4.267,-4.267,-4.267,-4.3013,-4.2995,-4.2559,-4.2032,-4.1983,-4.2507,-4.2306,-4.2554,-4.3256,-4.4077,-4.4642,-4.4953,-4.5667,-4.6067,-4.6172,-4.6172,-4.6172,-4.6172,-4.6172,-4.6172,-4.6172,-4.6172,-4.6172,-4.6172,-4.7868,-4.8062,-4.8276,-4.8399,-4.8025,-4.7717,-4.7717,-4.7717,-4.7699,-4.7657,-4.7554,-4.7511,-4.7468,-4.7363,-4.7276,-4.7302,-4.7205,-4.7178,-4.7232,-4.7223,-4.7196,-4.7196,-4.7196,-4.7133,-4.6998,-4.6998,-4.7088,-4.7196,-4.7088,-4.7088,-4.7223,-4.7088,-4.7473,-4.829,-4.768,-4.7806,-4.8515,-4.7787,-4.7499,-4.7481,-4.7356,-4.7302,-4.7302,-4.7302,-4.7363,-4.7468,-4.7511,-4.7511,-4.745,-4.7363,-4.7232,-4.7178,-4.7043,-4.698,-4.6802,-4.5509,-4.509,-4.4821,-4.4057,-4.3364,-4.2862,-4.2806,-4.267,-4.2609,-4.2786,-4.2552,-4.2328,-4.2432,-4.2414,-4.2292,-4.2068,-4.1846,-4.0629,-3.7447,-3.2548,-2.9537,-3.0768,-2.9745,-3.0695,-3.5669,-3.9387,-4.1815,-4.2562,-4.2673,-4.2729,-4.2806,-4.2824,-4.2806,-4.2844,-4.3013,-4.3087,-4.3087,-4.3178,-4.3087,-4.2844,-4.292,-4.2512,-4.171,-4.2058,-4.2247,-4.2406,-4.2575,-4.3436,-4.4918,-4.504,-4.5509,-4.6172,-4.6172,-4.6172,-4.6172,-4.6172,-4.6172,-4.6172,-4.6172,-4.6172,-4.6172,-4.8426,-4.8541,-4.8535,-4.8452,-4.8111,-4.7849,-4.7729,-4.7717,-4.7717,-4.7717,-4.7657,-4.7615,-4.7615,-4.7511,-4.7468,-4.7511,-4.7425,-4.7381,-4.7407,-4.7205,-4.7088,-4.7088,-4.7088,-4.7043,-4.6998,-4.6998,-4.7043,-4.7088,-4.7472,-4.7686,-4.7732,-4.7686,-4.7911,-4.8325,-4.7939,-4.802,-4.8416,-4.7949,-4.785,-4.786,-4.7322,-4.716,-4.716,-4.716,-4.7205,-4.7249,-4.7294,-4.7356,-4.7356,-4.7249,-4.7223,-4.7196,-4.7043,-4.6739,-4.6275,-4.53,-4.4453,-4.3797,-4.3457,-4.3134,-4.2882,-4.2882,-4.2824,-4.2786,-4.29,-4.2747,-4.267,-4.2747,-4.2688,-4.257,-4.249,-4.2292,-4.106,-3.7665,-3.4534,-3.2669,-3.2946,-3.2998,-3.4666,-3.9045,-4.1481,-4.2844,-4.2882,-4.2882,-4.2882,-4.2882,-4.2882,-4.2938,-4.305,-4.316,-4.3251,-4.3358,-4.3339,-4.3304,-4.3214,-4.3142,-4.2846,-4.2302,-4.2115,-4.2033,-4.2051,-4.2306,-4.287,-4.3728,-4.4616,-4.5242,-4.5659,-4.6063,-4.6172,-4.6172,-4.6172,-4.6172,-4.6172,-4.6172,-4.6172,-4.6172,-4.89,-4.8839,-4.8622,-4.8452,-4.8201,-4.7939,-4.7723,-4.7717,-4.7717,-4.7717,-4.7717,-4.7717,-4.7717,-4.7615,-4.7615,-4.7699,-4.7572,-4.7511,-4.7468,-4.7205,-4.7043,-4.7043,-4.7043,-4.7025,-4.707,-4.7025,-4.7069,-4.7293,-4.774,-4.7997,-4.8175,-4.7997,-4.7936,-4.8028,-4.7936,-4.7939,-4.8003,-4.7957,-4.7939,-4.7878,-4.7267,-4.6998,-4.6998,-4.6998,-4.7043,-4.7043,-4.7133,-4.7223,-4.7223,-4.7196,-4.7196,-4.716,-4.6874,-4.6391,-4.5842,-4.5,-4.3866,-4.2936,-4.3118,-4.3172,-4.3172,-4.3172,-4.3027,-4.2882,-4.2882,-4.2882,-4.2882,-4.2882,-4.2786,-4.267,-4.267,-4.2552,-4.1393,-3.8241,-3.6844,-3.6006,-3.5527,-3.5701,-3.752,-4.1887,-4.279,-4.3032,-4.3032,-4.3032,-4.3032,-4.3032,-4.3032,-4.3123,-4.3268,-4.3268,-4.3339,-4.3513,-4.3532,-4.3532,-4.3513,-4.3267,-4.3105,-4.3014,-4.2462,-4.2098,-4.2008,-4.2388,-4.2615,-4.2787,-4.4056,-4.4794,-4.515,-4.5663,-4.6014,-4.6172,-4.6172,-4.6172,-4.6172,-4.6172,-4.6172,-4.6189,-4.8984,-4.8839,-4.8622,-4.8452,-4.8201,-4.7939,-4.7723,-4.7717,-4.7717,-4.7717,-4.7717,-4.7717,-4.7717,-4.7699,-4.7699,-4.7717,-4.7572,-4.7468,-4.7302,-4.7205,-4.7196,-4.7196,-4.7088,-4.707,-4.7258,-4.7116,-4.7382,-4.8217,-4.7436,-4.7461,-4.8157,-4.7426,-4.7232,-4.7461,-4.7187,-4.6996,-4.683,-4.7016,-4.6838,-4.6488,-4.6847,-4.6998,-4.6998,-4.6998,-4.7088,-4.7196,-4.7196,-4.7249,-4.7276,-4.7223,-4.7196,-4.7071,-4.6319,-4.605,-4.5735,-4.4381,-4.3475,-4.3045,-4.3806,-4.4005,-4.4005,-4.4005,-4.3444,-4.2882,-4.2882,-4.2882,-4.2882,-4.2882,-4.2882,-4.29,-4.29,-4.2862,-4.1683,-3.8097,-3.653,-3.5782,-3.5844,-3.4627,-3.6118,-4.2642,-4.3444,-4.3463,-4.3463,-4.3463,-4.3463,-4.3463,-4.3463,-4.3444,-4.3497,-4.3497,-4.3513,-4.3582,-4.3513,-4.3513,-4.3582,-4.3582,-4.3408,-4.3087,-4.3051,-4.2736,-4.2266,-4.2418,-4.2721,-4.3059,-4.3129,-4.3878,-4.5098,-4.5036,-4.5474,-4.6172,-4.6172,-4.6172,-4.6172,-4.6172,-4.6172,-4.6172,-4.7312,-4.7241,-4.7138,-4.6955,-4.6708,-4.6487,-4.6239,-4.6126,-4.6026,-4.6026,-4.6026,-4.6026,-4.6026,-4.6026,-4.6224,-4.6729,-4.6722,-4.6834,-4.7232,-4.7223,-4.7133,-4.7088,-4.7043,-4.7025,-4.7116,-4.7025,-4.7168,-4.75,-4.7668,-4.789,-4.8175,-4.7872,-4.7626,-4.7396,-4.6816,-4.6362,-4.5945,-4.6078,-4.6023,-4.5903,-4.641,-4.6625,-4.6636,-4.6892,-4.7043,-4.7088,-4.7088,-4.707,-4.7116,-4.707,-4.7088,-4.6945,-4.6247,-4.5699,-4.5174,-4.4303,-4.4183,-4.4458,-4.4765,-4.4114,-4.3353,-4.3353,-4.3118,-4.2882,-4.2882,-4.2882,-4.2882,-4.2882,-4.2882,-4.2882,-4.2882,-4.2882,-4.1832,-3.854,-3.9329,-3.8985,-3.5062,-3.7515,-4.065,-4.3204,-4.3497,-4.3497,-4.3497,-4.3497,-4.3497,-4.3497,-4.3497,-4.3497,-4.3497,-4.3548,-4.36,-4.3719,-4.3686,-4.3686,-4.3719,-4.3767,-4.3716,-4.3579,-4.3371,-4.3159,-4.2978,-4.2792,-4.2781,-4.2947,-4.3409,-4.4043,-4.4741,-4.5191,-4.5628,-4.6073,-4.6073,-4.6023,-4.5972,-4.6023,-4.6023,-4.5972,-4.629,-4.629,-4.6195,-4.5942,-4.577,-4.5603,-4.5247,-4.5094,-4.5,-4.5,-4.5,-4.5,-4.5,-4.5,-4.5216,-4.5773,-4.5809,-4.6108,-4.6766,-4.708,-4.716,-4.7116,-4.7025,-4.7025,-4.7116,-4.7025,-4.7105,-4.7372,-4.7658,-4.7925,-4.8204,-4.7813,-4.7294,-4.6765,-4.6282,-4.5688,-4.5131,-4.5461,-4.5553,-4.5462,-4.6002,-4.6313,-4.644,-4.6701,-4.6901,-4.6998,-4.6998,-4.6998,-4.6998,-4.6998,-4.6998,-4.6864,-4.5899,-4.5168,-4.4651,-4.4527,-4.4693,-4.491,-4.491,-4.3914,-4.2955,-4.3208,-4.3081,-4.2882,-4.2882,-4.2882,-4.2882,-4.2882,-4.2882,-4.2882,-4.2882,-4.2938,-4.2268,-4.0142,-4.1739,-4.1721,-3.7323,-4.0638,-4.3497,-4.3497,-4.3497,-4.3497,-4.3497,-4.3497,-4.3497,-4.3497,-4.3497,-4.3532,-4.3513,-4.36,-4.3701,-4.3837,-4.3818,-4.3851,-4.3851,-4.3883,-4.3897,-4.3929,-4.3712,-4.3594,-4.3526,-4.3283,-4.3105,-4.2995,-4.3521,-4.396,-4.4402,-4.5165,-4.5612,-4.5852,-4.6147,-4.6154,-4.6055,-4.6204,-4.6266,-4.6297,-4.6274,-4.6274,-4.6127,-4.5754,-4.5683,-4.5509,-4.5047,-4.4982,-4.4982,-4.4982,-4.4982,-4.4982,-4.4982,-4.4982,-4.4982,-4.4982,-4.4982,-4.5282,-4.5942,-4.6801,-4.7302,-4.732,-4.7116,-4.7116,-4.732,-4.7116,-4.7372,-4.8175,-4.7372,-4.739,-4.8186,-4.6906,-4.6011,-4.551,-4.551,-4.5018,-4.4246,-4.5202,-4.5369,-4.5035,-4.557,-4.6022,-4.639,-4.6409,-4.6661,-4.698,-4.6998,-4.6998,-4.6998,-4.6998,-4.6998,-4.6739,-4.5255,-4.4443,-4.4177,-4.5034,-4.4729,-4.4095,-4.4095,-4.3498,-4.3081,-4.3878,-4.348,-4.2882,-4.2882,-4.2882,-4.2882,-4.2882,-4.2882,-4.2882,-4.2882,-4.2994,-4.3104,-4.3104,-4.3287,-4.3376,-4.3321,-4.341,-4.3497,-4.3497,-4.3497,-4.3497,-4.3497,-4.3497,-4.3497,-4.3497,-4.3497,-4.3513,-4.3582,-4.3719,-4.3818,-4.3915,-4.3897,-4.3929,-4.4005,-4.3929,-4.3929,-4.4005,-4.4005,-4.3992,-4.3897,-4.3974,-4.3763,-4.3303,-4.3248,-4.3524,-4.4056,-4.4718,-4.5179,-4.5595,-4.6404,-4.6631,-4.6619,-4.6678,-4.7008,-4.7299,-4.4394,-4.4394,-4.4364,-4.4229,-4.3968,-4.3779,-4.362,-4.3297,-4.3125,-4.3125,-4.3125,-4.3125,-4.3125,-4.3125,-4.334,-4.3888,-4.3942,-4.4581,-4.6054,-4.7035,-4.7639,-4.7788,-4.7407,-4.7232,-4.7302,-4.7116,-4.7105,-4.7354,-4.7105,-4.7105,-4.7319,-4.6654,-4.6011,-4.5492,-4.5187,-4.4761,-4.4221,-4.46,-4.4687,-4.4617,-4.5097,-4.5392,-4.555,-4.6157,-4.647,-4.6608,-4.6919,-4.6998,-4.6998,-4.6998,-4.6605,-4.6025,-4.5179,-4.4502,-4.4177,-4.5034,-4.4729,-4.4095,-4.4095,-4.3498,-4.2955,-4.319,-4.3063,-4.2882,-4.2882,-4.2882,-4.2882,-4.2882,-4.2882,-4.2938,-4.3012,-4.3049,-4.3141,-4.3287,-4.3359,-4.3411,-4.3444,-4.3479,-4.3497,-4.3497,-4.3497,-4.3497,-4.3497,-4.3497,-4.3513,-4.3548,-4.3652,-4.3753,-4.38,-4.3851,-4.3897,-4.3974,-4.3974,-4.3974,-4.4005,-4.3974,-4.3974,-4.4005,-4.4005,-4.4005,-4.3974,-4.4005,-4.3923,-4.3795,-4.3777,-4.4021,-4.4492,-4.5277,-4.5733,-4.609,-4.688,-4.7124,-4.7035,-4.7124,-4.7212,-4.7237,-4.3568,-4.3628,-4.3588,-4.3523,-4.3301,-4.3049,-4.2878,-4.257,-4.2399,-4.2323,-4.2287,-4.2287,-4.2287,-4.2287,-4.2483,-4.2983,-4.3674,-4.4737,-4.6206,-4.7181,-4.7783,-4.7992,-4.756,-4.7363,-4.7468,-4.716,-4.6998,-4.6998,-4.6998,-4.6998,-4.6962,-4.6338,-4.5867,-4.5513,-4.4934,-4.4519,-4.4285,-4.4373,-4.4411,-4.4449,-4.4771,-4.4972,-4.5189,-4.5881,-4.6241,-4.6434,-4.6874,-4.6998,-4.6998,-4.6998,-4.6248,-4.5346,-4.5437,-4.4754,-4.4097,-4.5034,-4.4729,-4.4023,-4.3697,-4.3262,-4.2882,-4.2882,-4.2882,-4.2882,-4.2882,-4.2882,-4.2882,-4.2882,-4.2882,-4.2938,-4.3067,-4.3123,-4.3196,-4.3359,-4.3411,-4.3446,-4.3479,-4.3497,-4.3497,-4.3497,-4.3497,-4.3497,-4.3497,-4.3497,-4.3532,-4.3582,-4.3753,-4.3851,-4.3915,-4.3929,-4.3961,-4.4005,-4.4005,-4.4005,-4.4005,-4.4005,-4.4005,-4.4005,-4.4005,-4.4005,-4.4005,-4.4005,-4.4005,-4.4005,-4.4005,-4.4138,-4.4441,-4.5619,-4.6048,-4.6055,-4.722,-4.7596,-4.7494,-4.7614,-4.7738,-4.782,-4.3509,-4.3628,-4.3514,-4.3328,-4.3314,-4.3113,-4.2695,-4.2693,-4.2617,-4.2335,-4.2382,-4.2399,-4.2287,-4.2287,-4.2364,-4.2417,-4.4114,-4.5526,-4.6472,-4.7288,-4.7824,-4.7992,-4.756,-4.7407,-4.7657,-4.7223,-4.6998,-4.6998,-4.6998,-4.6998,-4.7007,-4.6041,-4.5607,-4.5571,-4.4679,-4.4344,-4.4383,-4.4411,-4.444,-4.4515,-4.4515,-4.4707,-4.5106,-4.5549,-4.597,-4.6409,-4.6811,-4.6972,-4.6962,-4.6819,-4.5766,-4.4686,-4.5652,-4.4928,-4.389,-4.4925,-4.4621,-4.3824,-4.3081,-4.2882,-4.2882,-4.2882,-4.2882,-4.2882,-4.2882,-4.2882,-4.2882,-4.2882,-4.29,-4.2938,-4.3104,-4.316,-4.3251,-4.3394,-4.3463,-4.3497,-4.3497,-4.3497,-4.3497,-4.3497,-4.3532,-4.3532,-4.3497,-4.3532,-4.3566,-4.3615,-4.38,-4.3897,-4.3897,-4.3974,-4.4005,-4.4005,-4.4005,-4.4005,-4.4005,-4.4005,-4.4005,-4.4005,-4.4005,-4.4005,-4.4005,-4.4005,-4.4005,-4.4005,-4.4005,-4.4005,-4.4135,-4.5807,-4.6168,-4.5827,-4.7494,-4.8096,-4.798,-4.8135,-4.8439,-4.8732,-4.3509,-4.3628,-4.3578,-4.3514,-4.3267,-4.3048,-4.2953,-4.327,-4.3227,-4.2435,-4.2969,-4.3153,-4.2399,-4.2287,-4.2619,-4.3432,-4.5273,-4.6509,-4.6731,-4.7514,-4.7951,-4.7992,-4.756,-4.732,-4.7407,-4.7116,-4.6998,-4.6998,-4.6998,-4.6998,-4.7007,-4.6041,-4.5607,-4.5571,-4.4724,-4.4383,-4.4411,-4.4458,-4.4487,-4.4515,-4.4515,-4.4552,-4.4691,-4.5087,-4.5512,-4.599,-4.6372,-4.6755,-4.6801,-4.5552,-4.4517,-4.3828,-4.4181,-4.3652,-4.3062,-4.4093,-4.3788,-4.3118,-4.2936,-4.2882,-4.2882,-4.2882,-4.2882,-4.2882,-4.2882,-4.2882,-4.2882,-4.2882,-4.2994,-4.3086,-4.3142,-4.3269,-4.3376,-4.3463,-4.3497,-4.3497,-4.3497,-4.3497,-4.3497,-4.3497,-4.3566,-4.3548,-4.3532,-4.3652,-4.3719,-4.3771,-4.3897,-4.3974,-4.3974,-4.4005,-4.4005,-4.4005,-4.4005,-4.4005,-4.4005,-4.4005,-4.4005,-4.4005,-4.4005,-4.4005,-4.4005,-4.4005,-4.4005,-4.4005,-4.4005,-4.3974,-4.4059,-4.5793,-4.6357,-4.6297,-4.8066,-4.8695,-4.8695,-4.8714,-4.8785,-4.8785,-4.3146,-4.3449,-4.3628,-4.3628,-4.3411,-4.3237,-4.3148,-4.3383,-4.3296,-4.2546,-4.2914,-4.3191,-4.3041,-4.3005,-4.3616,-4.511,-4.6218,-4.6934,-4.7335,-4.7755,-4.7951,-4.7847,-4.7493,-4.7302,-4.7302,-4.7116,-4.6998,-4.6998,-4.6998,-4.6998,-4.6989,-4.6081,-4.5718,-4.5682,-4.4836,-4.4458,-4.444,-4.4487,-4.4515,-4.4515,-4.4515,-4.4515,-4.4533,-4.4954,-4.5253,-4.5549,-4.6176,-4.6403,-4.623,-4.5017,-4.4125,-4.356,-4.3732,-4.3256,-4.2793,-4.3821,-4.3516,-4.2882,-4.2882,-4.2882,-4.2882,-4.2882,-4.2882,-4.2882,-4.2882,-4.2882,-4.2882,-4.2882,-4.3012,-4.3141,-4.3178,-4.3305,-4.3411,-4.3497,-4.3497,-4.3497,-4.3497,-4.3497,-4.3497,-4.3497,-4.3548,-4.3615,-4.3652,-4.3753,-4.3851,-4.3851,-4.3961,-4.4005,-4.4005,-4.4005,-4.4005,-4.4005,-4.4005,-4.4005,-4.4005,-4.4005,-4.4005,-4.4005,-4.4005,-4.4005,-4.4005,-4.4005,-4.4005,-4.4005,-4.4005,-4.3942,-4.4027,-4.5774,-4.6409,-4.6471,-4.8224,-4.8909,-4.8909,-4.8909,-4.8909,-4.8874,-4.2759,-4.3267,-4.3628,-4.3628,-4.3571,-4.3506,-4.3322,-4.3423,-4.3271,-4.2667,-4.2914,-4.3315,-4.3737,-4.4133,-4.4979,-4.6661,-4.6955,-4.7359,-4.7995,-4.8032,-4.7929,-4.7699,-4.745,-4.7258,-4.7276,-4.707,-4.6998,-4.6998,-4.6998,-4.6954,-4.6883,-4.6145,-4.5773,-4.5643,-4.4841,-4.4515,-4.4515,-4.4515,-4.4515,-4.4515,-4.4515,-4.4515,-4.4543,-4.4867,-4.5026,-4.5175,-4.5916,-4.5869,-4.5372,-4.4642,-4.3929,-4.3346,-4.3535,-4.3149,-4.2814,-4.3658,-4.3407,-4.2882,-4.2882,-4.2882,-4.2882,-4.2882,-4.2882,-4.2882,-4.2882,-4.2882,-4.29,-4.2938,-4.3031,-4.3123,-4.3214,-4.3322,-4.3446,-4.3497,-4.3497,-4.3497,-4.3497,-4.3497,-4.3479,-4.3532,-4.36,-4.3667,-4.3804,-4.3883,-4.3897,-4.3897,-4.3942,-4.4005,-4.4005,-4.4005,-4.4005,-4.4005,-4.4005,-4.4005,-4.4005,-4.4005,-4.4005,-4.4005,-4.4005,-4.4005,-4.4005,-4.4005,-4.4005,-4.4005,-4.4005,-4.4035,-4.423,-4.5848,-4.6502,-4.6675,-4.828,-4.8909,-4.8909,-4.8909,-4.8909,-4.8909,-4.2759,-4.3267,-4.3628,-4.3628,-4.3487,-4.3339,-4.3293,-4.3889,-4.3927,-4.2759,-4.4165,-4.4918,-4.3904,-4.5349,-4.6494,-4.6752,-4.7584,-4.8139,-4.8267,-4.8111,-4.7929,-4.7699,-4.745,-4.7232,-4.7025,-4.7025,-4.6998,-4.6998,-4.6998,-4.6802,-4.647,-4.6006,-4.5585,-4.5171,-4.4718,-4.4515,-4.4515,-4.4515,-4.4515,-4.4515,-4.4515,-4.4515,-4.4505,-4.4571,-4.4797,-4.5111,-4.5216,-4.4839,-4.4173,-4.3787,-4.3185,-4.2665,-4.2749,-4.2778,-4.2802,-4.2989,-4.2973,-4.2882,-4.2882,-4.2882,-4.2882,-4.2882,-4.2882,-4.2882,-4.2882,-4.2882,-4.2938,-4.3049,-4.3105,-4.3214,-4.334,-4.3446,-4.3497,-4.3497,-4.3497,-4.3497,-4.3497,-4.3497,-4.3513,-4.3582,-4.3719,-4.3786,-4.3883,-4.3897,-4.3897,-4.3897,-4.3942,-4.4005,-4.4005,-4.4005,-4.4005,-4.4005,-4.4005,-4.4005,-4.4005,-4.4005,-4.4005,-4.4005,-4.4005,-4.4005,-4.4005,-4.4005,-4.4005,-4.4005,-4.4005,-4.435,-4.5008,-4.6071,-4.6888,-4.7509,-4.8521,-4.8909,-4.8909,-4.8909,-4.8909,-4.8909,-4.2381,-4.3068,-4.3628,-4.3628,-4.3523,-4.3463,-4.3463,-4.3922,-4.4004,-4.3302,-4.4406,-4.5204,-4.5084,-4.6615,-4.7659,-4.7659,-4.8047,-4.8267,-4.8151,-4.8032,-4.7829,-4.7511,-4.7363,-4.7187,-4.698,-4.6998,-4.6998,-4.6998,-4.6783,-4.656,-4.639,-4.5736,-4.5293,-4.5069,-4.4662,-4.4515,-4.4515,-4.4515,-4.4515,-4.4515,-4.4515,-4.4515,-4.4515,-4.4515,-4.4589,-4.4778,-4.5021,-4.4773,-4.429,-4.3884,-4.334,-4.2747,-4.2649,-4.2688,-4.2822,-4.2862,-4.2882,-4.2957,-4.3142,-4.305,-4.2957,-4.3142,-4.305,-4.2882,-4.2882,-4.2938,-4.3049,-4.3104,-4.316,-4.3251,-4.3394,-4.3428,-4.3497,-4.3497,-4.3497,-4.3497,-4.3497,-4.3513,-4.3615,-4.3767,-4.3818,-4.3883,-4.3915,-4.3929,-4.3961,-4.3897,-4.3942,-4.4005,-4.4005,-4.4005,-4.4005,-4.4005,-4.4005,-4.4005,-4.4005,-4.4005,-4.4005,-4.4005,-4.4005,-4.4005,-4.4005,-4.4005,-4.4005,-4.4005,-4.4005,-4.4406,-4.5175,-4.6108,-4.691,-4.7675,-4.8558,-4.8909,-4.8909,-4.8909,-4.8909,-4.8909]},{"header":{"parameterUnit":"m.s-1","parameterCategory":1,"la1":30.6,"la2":28.766,"lo1":-90.7593,"lo2":-88.6598,"dy":0.0162,"dx":0.0183,"nx":116,"ny":114,"refTime":"2023-04-23T18:00:00:Z","depth":0,"parameterNumber":3,"parameterNumberName":"V-component_of_WINDS"},"data":[0.0,0.0,0.0,0.0,0.0,0.0,0.0,0.0,0.0,0.0,0.0,0.0,0.0,0.0,0.0,0.0,0.0,0.0,0.0,0.0,0.0,0.0,0.0,0.0,0.0,0.0,0.0,0.0,0.0,0.0,0.0,0.0,0.0,0.0,0.0,0.0,0.0,0.0,0.0,0.0,0.0,0.0,0.0,0.0,0.0,0.0,0.0,0.0,0.0,0.0,0.0,0.0,0.0,0.0,0.0,0.0,0.0,0.0,0.0,0.0,0.0,0.0,0.0,0.0,0.0,0.0,0.0,0.0,0.0,0.0,0.0,0.0,0.0,0.0,0.0,0.0,0.0,0.0,0.0,0.0,0.0,0.0,0.0,0.0,0.0,0.0,0.0,0.0,0.0,0.0,0.0,0.0,0.0,0.0,0.0,0.0,0.0,0.0,0.0,0.0,0.0,0.0,0.0,0.0,0.0,0.0,0.0,0.0,0.0,0.0,0.0,0.0,0.0,0.0,0.0,0.0,0.0,0.0,0.0,0.0,0.0,0.0,0.0,0.0,0.0,0.0,0.0,0.0,0.0,0.0,0.0,0.0,0.0,0.0,0.0,0.0,0.0,0.0,0.0,0.0,0.0,0.0,0.0,0.0,0.0,0.0,0.0,0.0,0.0,0.0,0.0,0.0,0.0,0.0,0.0,0.0,0.0,0.0,0.0,0.0,0.0,0.0,0.0,0.0,0.0,0.0,0.0,0.0,0.0,0.0,0.0,0.0,0.0,0.0,0.0,0.0,0.0,0.0,0.0,0.0,0.0,0.0,0.0,0.0,0.0,0.0,0.0,0.0,0.0,0.0,0.0,0.0,0.0,0.0,0.0,0.0,0.0,0.0,0.0,0.0,0.0,0.0,0.0,0.0,0.0,0.0,0.0,0.0,0.0,0.0,0.0,0.0,0.0,0.0,0.0,0.0,0.0,0.0,0.0,0.0,0.0,0.0,0.0,0.0,0.0,0.0,0.0,0.0,0.0,0.0,0.0,0.0,0.0,0.0,0.0,0.0,0.0,0.0,0.0,0.0,0.0,0.0,0.0,0.0,0.0,0.0,0.0,0.0,0.0,0.0,0.0,0.0,0.0,0.0,0.0,0.0,0.0,0.0,0.0,0.0,0.0,0.0,0.0,0.0,0.0,0.0,0.0,0.0,0.0,0.0,0.0,0.0,0.0,0.0,0.0,0.0,0.0,0.0,0.0,0.0,0.0,0.0,0.0,0.0,0.0,0.0,0.0,0.0,0.0,0.0,0.0,0.0,0.0,0.0,0.0,0.0,0.0,0.0,0.0,0.0,0.0,0.0,0.0,0.0,0.0,0.0,0.0,0.0,0.0,0.0,0.0,0.0,0.0,0.0,0.0,0.0,0.0,0.0,0.0,0.0,0.0,0.0,0.0,0.0,0.0,0.0,0.0,0.0,0.0,0.0,0.0,0.0,0.0,0.0,0.0,0.0,0.0,0.0,0.0,0.0,0.0,0.0,0.0,0.0,0.0,0.0,0.0,0.0,0.0,0.0,0.0,0.0,0.0,0.0,0.0,0.0,0.0,0.0,0.0,0.0,0.0,0.0,0.0,0.0,0.0,0.0,0.0,0.0,0.0,0.0,0.0,0.0,0.0,0.0,0.0,0.0,0.0,0.0,0.0,0.0,0.0,0.0,0.0,0.0,0.0,0.0,0.0,0.0,0.0,0.0,0.0,0.0,0.0,0.0,0.0,0.0,0.0,0.0,0.0,0.0,0.0,0.0,0.0,0.0,0.0,0.0,0.0,0.0,0.0,0.0,0.0,0.0,0.0,0.0,0.0,0.0,0.0,0.0,0.0,0.0,0.0,0.0,0.0,0.0,0.0,0.0,0.0,0.0,0.0,0.0,0.0,0.0,0.0,0.0,0.0,0.0,0.0,0.0,0.0,0.0,0.0,0.0,0.0,0.0,0.0,0.0,0.0,0.0,0.0,0.0,0.0,0.0,0.0,0.0,0.0,0.0,0.0,0.0,0.0,0.0,0.0,0.0,0.0,0.0,0.0,0.0,0.0,0.0,0.0,0.0,0.0,0.0,0.0,0.0,0.0,0.0,0.0,0.0,0.0,0.0,0.0,0.0,0.0,0.0,0.0,0.0,0.0,0.0,0.0,0.0,0.0,0.0,0.0,0.0,0.0,0.0,0.0,0.0,0.0,0.0,0.0,0.0,0.0,0.0,0.0,0.0,0.0,0.0,0.0,0.0,0.0,0.0,0.0,0.0,0.0,0.0,0.0,0.0,0.0,0.0,0.0,0.0,0.0,0.0,0.0,0.0,0.0,0.0,0.0,0.0,0.0,0.0,0.0,0.0,0.0,0.0,0.0,0.0,0.0,0.0,0.0,0.0,0.0,0.0,0.0,0.0,0.0,0.0,0.0,0.0,0.0,0.0,0.0,0.0,0.0,0.0,0.0,0.0,0.0,0.0,0.0,0.0,0.0,0.0,0.0,0.0,0.0,0.0,0.0,0.0,0.0,0.0,0.0,0.0,0.0,0.0,0.0,0.0,0.0,0.0,0.0,0.0,0.0,0.0,0.0,0.0,0.0,0.0,0.0,0.0,0.0,0.0,0.0,0.0,0.0,0.0,0.0,0.0,0.0,0.0,0.0,0.0,0.0,0.0,0.0,0.0,0.0,0.0,0.0,0.0,0.0,0.0,0.0,0.0,0.0,0.0,0.0,0.0,0.0,0.0,0.0,0.0,0.0,0.0,0.0,0.0,0.0,0.0,0.0,0.0,0.0,0.0,0.0,0.0,0.0,0.0,0.0,0.0,0.0,0.0,0.0,0.0,0.0,0.0,0.0,0.0,0.0,0.0,0.0,0.0,0.0,0.0,0.0,0.0,0.0,0.0,0.0,0.0,0.0,0.0,0.0,0.0,0.0,0.0,0.0,0.0,0.0,0.0,0.0,0.0,0.0,0.0,0.0,0.0,0.0,0.0,0.0,0.0,0.0,0.0,0.0,0.0,0.0,0.0,0.0,0.0,0.0,0.0,0.0,0.0,0.0,0.0,0.0,0.0,0.0,0.0,0.0,0.0,0.0,0.0,0.0,0.0,0.0,0.0,0.0,0.0,0.0,0.0,0.0,0.0,0.0,0.0,0.0,0.0,0.0,0.0,0.0,0.0,0.0,0.0,0.0,0.0,0.0,0.0,0.0,0.0,0.0,0.0,0.0,0.0,0.0,0.0,0.0,0.0,0.0,0.0,0.0,0.0,0.0,0.0,0.0,0.0,0.0,0.0,0.0,0.0,0.0,0.0,0.0,0.0,0.0,0.0,0.0,0.0,0.0,0.0,0.0,0.0,0.0,0.0,0.0,0.0,0.0,0.0,0.0,0.0,0.0,0.0,0.0,0.0,0.0,0.0,0.0,0.0,0.0,0.0,0.0,0.0,0.0,0.0,0.0,0.0,0.0,0.0,0.0,0.0,0.0,0.0,0.0,0.0,0.0,0.0,0.0,0.0,0.0,0.0,0.0,0.0,0.0,0.0,0.0,0.0,0.0,0.0,0.0,0.0,0.0,0.0,0.0,0.0,0.0,0.0,0.0,0.0,0.0,0.0,0.0,0.0,0.0,0.0,0.0,0.0,0.0,0.0,0.0,0.0,0.0,0.0,0.0,0.0,0.0,0.0,0.0,0.0,0.0,0.0,0.0,0.0,0.0,0.0,0.0,0.0,0.0,0.0,0.0,0.0,0.0,0.0,0.0,0.0,0.0,0.0,0.0,0.0,0.0,0.0,0.0,0.0,0.0,0.0,0.0,0.0,0.0,0.0,0.0,0.0,0.0,0.0,0.0,0.0,0.0,0.0,0.0,0.0,0.0,0.0,0.0,0.0,0.0,0.0,0.0,0.0,0.0,0.0,0.0,0.0,0.0,0.0,0.0,0.0,0.0,0.0,0.0,0.0,0.0,0.0,0.0,0.0,0.0,0.0,0.0,0.0,0.0,0.0,0.0,0.0,0.0,0.0,0.0,0.0,0.0,0.0,0.0,0.0,0.0,0.0,0.0,0.0,0.0,0.0,0.0,0.0,0.0,0.0,0.0,0.0,0.0,0.0,0.0,0.0,0.0,0.0,0.0,0.0,0.0,0.0,0.0,0.0,0.0,0.0,0.0,0.0,0.0,0.0,0.0,0.0,0.0,0.0,0.0,0.0,0.0,0.0,0.0,0.0,0.0,0.0,0.0,0.0,0.0,0.0,0.0,0.0,0.0,0.0,0.0,0.0,0.0,0.0,0.0,0.0,0.0,0.0,0.0,0.0,0.0,0.0,0.0,0.0,0.0,0.0,0.0,0.0,0.0,0.0,0.0,0.0,0.0,0.0,0.0,0.0,0.0,0.0,0.0,0.0,0.0,0.0,0.0,0.0,0.0,0.0,0.0,0.0,0.0,0.0,0.0,0.0,0.0,0.0,0.0,0.0,0.0,0.0,0.0,0.0,0.0,0.0,0.0,0.0,0.0,0.0,0.0,0.0,0.0,0.0,0.0,0.0,0.0,0.0,0.0,0.0,0.0,0.0,0.0,0.0,0.0,0.0,0.0,0.0,0.0,0.0,0.0,0.0,0.0,0.0,0.0,0.0,0.0,0.0,0.0,0.0,0.0,0.0,0.0,0.0,0.0,0.0,0.0,0.0,0.0,0.0,0.0,0.0,0.0,0.0,0.0,0.0,0.0,0.0,0.0,0.0,0.0,0.0,0.0,0.0,0.0,0.0,0.0,0.0,0.0,0.0,0.0,0.0,0.0,0.0,0.0,0.0,0.0,0.0,0.0,0.0,0.0,0.0,0.0,0.0,0.0,0.0,0.0,0.0,0.0,0.0,0.0,0.0,0.0,0.0,0.0,0.0,0.0,0.0,0.0,0.0,0.0,0.0,0.0,0.0,0.0,0.0,0.0,0.0,0.0,0.0,0.0,0.0,0.0,0.0,0.0,0.0,0.0,0.0,0.0,0.0,0.0,0.0,0.0,0.0,0.0,0.0,0.0,0.0,0.0,0.0,0.0,0.0,0.0,0.0,0.0,0.0,0.0,0.0,0.0,0.0,0.0,0.0,0.0,0.0,0.0,0.0,0.0,0.0,0.0,0.0,0.0,0.0,0.0,0.0,0.0,0.0,0.0,0.0,0.0,0.0,0.0,0.0,0.0,0.0,0.0,0.0,0.0,0.0,0.0,0.0,0.0,0.0,0.0,0.0,0.0,0.0,0.0,0.0,0.0,0.0,0.0,0.0,0.0,0.0,0.0,0.0,0.0,0.0,0.0,0.0,0.0,0.0,0.0,0.0,0.0,0.0,0.0,0.0,0.0,0.0,0.0,0.0,0.0,0.0,0.0,0.0,0.0,0.0,0.0,0.0,0.0,0.0,0.0,0.0,0.0,0.0,0.0,0.0,0.0,0.0,0.0,0.0,0.0,0.0,0.0,0.0,0.0,0.0,0.0,0.0,0.0,0.0,0.0,0.0,0.0,0.0,0.0,0.0,0.0,0.0,0.0,0.0,0.0,0.0,0.0,0.0,0.0,0.0,0.0,0.0,0.0,0.0,0.0,0.0,0.0,0.0,0.0,0.0,0.0,0.0,0.0,0.0,0.0,0.0,0.0,0.0,0.0,0.0,0.0,0.0,0.0,0.0,0.0,0.0,0.0,0.0,0.0,0.0,0.0,0.0,0.0,0.0,0.0,0.0,0.0,0.0,0.0,0.0,0.0,0.0,0.0,0.0,0.0,0.0,0.0,0.0,0.0,0.0,0.0,0.0,0.0,0.0,0.0,0.0,0.0,0.0,0.0,0.0,0.0,0.0,0.0,0.0,0.0,0.0,0.0,0.0,0.0,0.0,0.0,0.0,0.0,0.0,0.0,0.0,0.0,0.0,0.0,0.0,0.0,0.0,0.0,0.0,0.0,0.0,0.0,0.0,0.0,0.0,0.0,0.0,0.0,0.0,0.0,0.0,0.0,0.0,0.0,0.0,0.0,0.0,0.0,0.0,0.0,0.0,0.0,0.0,0.0,0.0,0.0,0.0,0.0,0.0,0.0,0.0,0.0,0.0,0.0,0.0,0.0,0.0,2.567,2.4377,0.0,0.0,0.0,0.0,0.0,0.0,0.0,0.0,0.0,0.0,0.0,0.0,0.0,0.0,0.0,0.0,0.0,0.0,0.0,0.0,0.0,0.0,0.0,0.0,0.0,0.0,0.0,0.0,0.0,0.0,0.0,0.0,0.0,0.0,0.0,0.0,0.0,0.0,2.3482,2.2972,2.2491,2.1843,2.0771,1.9369,0.0,0.0,0.0,0.0,0.0,0.0,0.0,0.0,0.0,0.0,0.0,0.0,0.0,0.0,0.0,0.0,0.0,0.0,0.0,0.0,0.0,0.0,0.0,0.0,0.0,0.0,0.0,0.0,0.0,0.0,0.0,0.0,0.0,0.0,0.0,0.0,0.0,0.0,0.0,0.0,0.0,0.0,0.0,0.0,0.0,0.0,0.0,0.0,0.0,0.0,0.0,0.0,0.0,0.0,0.0,0.0,0.0,0.0,0.0,0.0,0.0,0.0,0.0,0.0,0.0,0.0,0.0,0.0,0.0,0.0,2.8667,2.7036,0.0,0.0,0.0,0.0,0.0,0.0,0.0,0.0,0.0,0.0,0.0,0.0,0.0,0.0,0.0,0.0,0.0,0.0,0.0,0.0,0.0,0.0,0.0,1.4052,1.6119,1.6243,1.9982,2.2651,0.0,0.0,0.0,0.0,0.0,0.0,0.0,2.736,2.6283,2.5799,2.6099,2.5709,2.4713,2.4948,2.3915,2.1812,2.1397,0.0,0.0,0.0,0.0,0.0,0.0,0.0,0.0,0.0,0.0,0.0,0.0,0.0,0.0,0.0,0.0,0.0,0.0,0.0,0.0,0.0,0.0,0.0,0.0,0.0,0.0,0.0,0.0,0.0,0.0,0.0,0.0,0.0,0.0,0.0,0.0,0.0,0.0,0.0,0.0,0.0,0.0,0.0,0.0,0.0,0.0,0.0,0.0,0.0,0.0,0.0,0.0,0.0,0.0,0.0,0.0,0.0,0.0,0.0,0.0,0.0,0.0,0.0,3.1704,3.1683,3.1859,3.2833,3.2664,3.1617,3.2831,3.099,2.7241,2.7834,0.0,0.0,0.0,0.0,0.0,0.0,0.0,0.0,0.0,0.0,0.0,0.0,0.0,0.0,0.0,0.0,0.0,0.0,0.0,0.0,0.0,1.6979,1.9846,1.9697,2.2566,2.4522,2.4732,0.0,0.0,0.0,0.0,0.0,3.1568,2.9851,2.8813,2.8572,2.7817,2.7381,2.7235,2.8307,2.878,2.8665,2.5664,2.4071,2.375,0.0,0.0,0.0,0.0,0.0,0.0,0.0,0.0,0.0,0.0,0.0,0.0,0.0,0.0,0.0,0.0,0.0,0.0,0.0,0.0,0.0,0.0,0.0,0.0,0.0,0.0,0.0,0.0,0.0,0.0,0.0,0.0,0.0,0.0,0.0,0.0,0.0,0.0,0.0,0.0,0.0,2.8532,2.6278,0.0,0.0,0.0,0.0,0.0,0.0,0.0,0.0,0.0,0.0,0.0,0.0,0.0,3.1209,3.0092,3.0491,3.0101,2.8896,3.1186,3.2308,3.2391,3.5383,3.6761,3.6887,3.7597,0.0,2.9708,2.7265,0.0,0.0,0.0,0.0,0.0,0.0,0.0,0.0,0.0,0.0,0.0,0.0,0.0,0.0,0.0,0.0,0.0,0.0,0.0,0.0,0.0,1.6887,2.0357,2.2299,2.3885,2.5734,2.7959,2.7719,0.0,0.0,0.0,3.1027,3.2458,3.1888,3.1534,3.1462,3.0422,3.0307,3.1035,3.1565,3.1951,3.2094,3.0589,2.8674,2.6535,2.5715,0.0,0.0,0.0,0.0,0.0,0.0,0.0,0.0,0.0,0.0,0.0,0.0,0.0,0.0,0.0,0.0,0.0,0.0,0.0,0.0,0.0,0.0,0.0,0.0,0.0,0.0,0.0,0.0,0.0,0.0,0.0,0.0,0.0,0.0,0.0,0.0,0.0,0.0,0.0,2.8388,2.8468,2.6247,2.728,2.7808,0.0,0.0,0.0,0.0,0.0,0.0,0.0,0.0,0.0,2.9383,3.2315,3.3209,3.1769,3.3707,3.4619,3.4416,3.588,3.6776,3.7173,3.8207,3.8916,3.9358,3.8958,3.7744,3.5919,3.2258,3.0708,3.0458,0.0,0.0,0.0,0.0,3.2329,3.2216,0.0,0.0,0.0,0.0,0.0,0.0,0.0,0.0,0.0,0.0,0.0,0.0,1.3851,1.7581,2.1135,2.3703,2.5018,2.6905,2.9852,2.9429,2.9468,3.0483,3.1208,3.2059,3.306,3.3488,3.3711,3.3713,3.3258,3.3574,3.4615,3.4965,3.515,3.5185,3.4956,3.2934,2.9508,2.7817,2.6882,2.6383,0.0,0.0,0.0,0.0,0.0,0.0,0.0,0.0,0.0,0.0,0.0,0.0,0.0,0.0,0.0,0.0,0.0,0.0,0.0,0.0,0.0,0.0,0.0,0.0,0.0,0.0,0.0,0.0,0.0,0.0,0.0,0.0,0.0,0.0,0.0,0.0,0.0,2.8681,2.9166,2.6673,2.7722,2.8384,0.0,0.0,0.0,0.0,0.0,0.0,2.8949,3.2077,3.3179,3.1566,3.4775,3.5937,3.4706,3.7225,3.8811,3.9251,3.9596,3.9928,4.0309,3.9885,3.9913,4.0256,3.9496,3.9711,4.0322,3.6501,3.4211,3.3207,3.2863,3.367,3.4981,3.4881,3.4705,3.4471,0.0,0.0,0.0,0.0,0.0,0.0,0.0,0.0,0.0,0.0,0.0,1.7374,1.668,2.081,2.3606,2.3519,2.638,2.8318,2.8763,2.9508,3.0254,3.1057,3.1941,3.2865,3.38,3.4428,3.4757,3.4832,3.6298,3.7124,3.7297,3.8603,3.9076,3.8904,3.8173,3.5955,3.2675,3.2563,3.216,3.1496,2.9839,0.0,0.0,0.0,0.0,0.0,0.0,0.0,0.0,0.0,0.0,0.0,0.0,0.0,0.0,0.0,0.0,0.0,0.0,0.0,0.0,0.0,0.0,0.0,0.0,0.0,0.0,0.0,0.0,0.0,0.0,0.0,0.0,0.0,0.0,0.0,0.0,0.0,0.0,2.8379,2.9416,0.0,0.0,0.0,0.0,3.2361,3.3085,3.2906,3.1775,3.4897,3.612,3.4926,3.8132,3.9786,3.9754,3.993,3.9811,3.947,3.9532,3.9345,3.9125,3.9489,3.9734,3.978,4.0161,4.0317,4.017,3.6987,3.6307,3.706,3.456,3.3567,3.3618,3.2764,3.2062,3.1519,0.0,0.0,0.0,0.0,0.0,0.0,0.0,0.0,1.299,1.2863,1.5796,1.781,1.7571,2.0239,2.2955,2.5129,2.7713,3.0012,3.1847,3.1666,3.1785,3.2495,3.1993,3.2597,3.4523,3.5602,3.6253,3.6459,3.7666,3.8193,3.8098,3.8374,3.8415,3.8343,3.81,3.7254,3.5989,3.3852,3.276,3.2321,3.1297,3.0592,0.0,0.0,0.0,0.0,0.0,0.0,0.0,0.0,0.0,0.0,0.0,0.0,0.0,0.0,0.0,0.0,0.0,0.0,0.0,0.0,0.0,0.0,0.0,0.0,0.0,0.0,0.0,0.0,0.0,0.0,0.0,0.0,0.0,0.0,0.0,0.0,0.0,3.1186,3.2373,0.0,3.2462,3.147,3.1616,3.3401,3.4634,3.5087,3.4545,3.7744,3.9168,3.8357,3.9875,4.048,4.0075,4.0523,4.0855,4.099,4.1475,4.1685,4.1606,4.1326,4.1325,4.1582,4.1201,4.1393,4.1707,4.0593,3.9835,3.9287,3.8364,3.8263,3.8631,3.8309,3.8372,3.86,0.0,0.0,0.0,0.0,0.0,0.0,0.0,0.0,1.442,1.4573,1.6808,1.8416,1.851,2.0511,2.3164,2.6492,2.9174,3.1359,3.2856,3.2726,3.2368,3.1786,3.1671,3.2702,3.5103,3.6222,3.7032,3.748,3.8188,3.8528,3.86,3.8359,3.8246,3.8205,3.8205,3.8033,3.7632,3.5426,3.4471,3.4312,3.3263,3.2118,3.1022,0.0,0.0,0.0,0.0,0.0,0.0,0.0,0.0,0.0,0.0,0.0,0.0,0.0,0.0,0.0,0.0,0.0,0.0,0.0,0.0,0.0,0.0,0.0,0.0,0.0,0.0,0.0,0.0,0.0,0.0,0.0,0.0,0.0,0.0,0.0,3.3627,3.3845,3.4808,3.5623,3.5937,3.4611,3.4451,3.6224,3.7458,3.8051,3.7976,4.0301,4.1411,4.1016,4.154,4.1688,4.1269,4.174,4.2089,4.2392,4.29,4.319,4.3235,4.2615,4.2506,4.2743,4.2142,4.2142,4.2634,4.2634,4.2013,4.1111,4.0894,4.1044,4.1459,4.1245,4.1459,4.1868,0.0,0.0,0.0,0.0,0.0,0.0,0.0,1.5248,1.6866,1.7627,1.8714,1.9564,1.98,2.1944,2.4478,2.7468,3.0762,3.2337,3.1456,3.2493,3.1908,2.9014,3.1067,3.3307,3.5584,3.6312,3.708,3.7934,3.7918,3.8303,3.9028,3.8974,3.8936,3.8788,3.8788,3.8303,3.748,3.7539,3.7642,3.7722,3.6126,3.4571,3.3064,0.0,0.0,0.0,0.0,0.0,0.0,0.0,0.0,0.0,0.0,0.0,0.0,0.0,0.0,0.0,0.0,0.0,0.0,0.0,0.0,0.0,0.0,0.0,0.0,0.0,0.0,0.0,0.0,0.0,0.0,0.0,0.0,0.0,3.1036,3.5108,3.7486,3.6214,3.6714,3.745,3.8301,3.8003,3.8756,4.109,4.1733,4.1988,4.1916,4.2455,4.2748,4.2748,4.3306,4.3628,4.3628,4.3628,4.3628,4.3628,4.3628,4.3628,4.3568,4.3235,4.3113,4.3113,4.2743,4.2634,4.2634,4.2634,4.2634,4.2492,4.1803,4.1525,4.1459,4.0758,4.0485,4.0554,0.0,0.0,0.0,0.0,0.0,0.0,0.0,1.5626,1.74,1.8314,2.0719,2.1935,2.085,2.4161,2.6704,2.7532,3.1471,3.3718,3.3421,3.3005,3.2222,3.1039,3.399,3.5795,3.61,3.7388,3.8379,3.9007,3.8832,3.8978,3.9454,3.8995,3.8668,3.8423,3.8423,3.8116,3.7539,3.7653,3.7653,3.7567,3.7207,3.6083,3.4594,0.0,0.0,0.0,0.0,0.0,0.0,0.0,0.0,0.0,0.0,0.0,0.0,0.0,0.0,0.0,0.0,0.0,0.0,0.0,0.0,0.0,0.0,0.0,0.0,0.0,0.0,0.0,0.0,0.0,0.0,0.0,0.0,3.619,3.614,3.6603,3.7656,3.9671,4.0397,4.1003,4.1741,4.164,4.1966,4.3049,4.3281,4.3281,4.3149,4.3273,4.3372,4.3372,4.3512,4.3628,4.3628,4.3628,4.3628,4.3628,4.3628,4.3568,4.3449,4.3235,4.3052,4.2945,4.2696,4.2634,4.2634,4.2634,4.2634,4.2571,4.2365,4.2285,4.2285,4.2077,4.1948,4.1819,0.0,0.0,0.0,0.0,0.0,0.0,0.0,1.5686,1.7092,1.8358,2.0188,2.1408,2.1372,2.374,2.6276,2.8747,3.1124,3.2551,3.2824,3.2348,3.2716,3.4249,3.6025,3.7135,3.7481,3.8834,3.9669,3.9957,3.9711,3.9818,4.0288,3.9554,3.9193,3.9032,3.9032,3.8739,3.823,3.8067,3.7953,3.7828,3.7943,3.6805,3.5125,3.5198,3.4885,3.4333,3.3906,3.4609,3.5434,3.3731,0.0,0.0,0.0,0.0,0.0,0.0,0.0,0.0,0.0,0.0,0.0,0.0,0.0,0.0,0.0,0.0,0.0,0.0,0.0,0.0,0.0,0.0,0.0,0.0,3.6788,3.927,4.0463,4.0088,4.0398,4.2389,4.2791,4.3105,4.3541,4.3461,4.353,4.3864,4.3822,4.3704,4.3509,4.3568,4.3568,4.3509,4.3568,4.3568,4.3509,4.3568,4.3568,4.3509,4.3432,4.3372,4.3235,4.2929,4.2805,4.2759,4.2571,4.2571,4.2634,4.2634,4.2571,4.2508,0.0,0.0,0.0,0.0,4.2318,4.2141,0.0,0.0,0.0,0.0,0.0,0.0,0.0,1.5463,1.6208,1.7856,1.8508,1.9655,2.1607,2.221,2.4746,3.0377,3.037,3.0432,3.1279,3.1604,3.3588,3.7605,3.7357,3.7692,3.909,4.0087,4.0685,4.0877,4.0665,4.0875,4.1546,4.0662,4.0255,4.0205,4.0087,3.9697,3.9152,3.8668,3.8446,3.8407,3.8334,3.7145,3.5457,3.6088,3.5475,3.4405,3.5534,3.5971,3.5943,3.571,0.0,0.0,0.0,0.0,0.0,0.0,0.0,0.0,0.0,0.0,0.0,0.0,0.0,0.0,0.0,0.0,0.0,0.0,0.0,0.0,0.0,0.0,0.0,0.0,3.77,4.0463,4.3671,4.4114,4.4155,4.4253,4.4155,4.4114,4.4114,4.3939,4.3839,4.3839,4.3704,4.3509,4.3388,4.3492,0.0,0.0,0.0,4.3509,4.3372,4.3509,4.3509,4.3372,4.3235,4.3113,4.3052,4.2618,4.2508,4.2571,4.2445,4.2508,4.2634,4.2571,4.2508,4.2381,4.2508,4.2445,4.2318,4.2125,4.2012,4.1898,0.0,0.0,0.0,0.0,0.0,0.0,0.0,1.479,1.586,1.6569,1.9304,2.1375,2.192,2.4115,2.7025,3.0579,3.0878,3.1653,3.3397,3.436,3.5732,3.7656,3.7961,3.8461,3.9166,3.9272,4.0219,4.1998,4.1994,4.2638,4.3917,4.2445,4.1674,4.1498,4.0441,3.9697,3.9189,3.9265,3.9176,3.9028,3.8707,3.8241,3.7734,3.8335,3.8702,3.8888,3.8841,3.9401,3.9933,3.8191,3.7948,3.7958,3.5553,3.3883,0.0,0.0,0.0,0.0,0.0,0.0,0.0,0.0,0.0,0.0,0.0,0.0,0.0,0.0,0.0,0.0,0.0,0.0,0.0,3.6346,3.974,4.2713,4.3956,4.3998,4.3998,4.4097,4.3998,4.3956,4.3956,4.3763,4.3628,4.3509,4.3432,4.3449,4.3372,4.3235,4.3235,4.3388,4.3235,4.3235,4.3372,4.3449,4.3449,4.3372,4.3372,0.0,4.2945,4.2696,4.2571,4.2571,4.2445,4.2508,4.2571,4.2508,4.2318,4.2174,4.2174,4.2174,4.2125,4.2012,4.1898,4.1898,0.0,0.0,0.0,0.0,0.0,0.0,0.0,1.3631,1.486,1.5695,1.8198,2.0218,2.1155,2.2777,2.5151,2.8426,2.9833,3.1334,3.3231,3.4701,3.6457,3.8503,3.8701,3.9467,4.1019,4.0791,4.1767,4.3955,4.3874,4.416,4.4884,4.3223,4.2404,4.2265,4.0985,4.0286,4.0037,3.9664,3.9508,3.9401,3.9209,3.9049,3.8903,3.9489,3.9885,4.0235,4.0336,4.0597,4.0763,3.9945,3.9898,3.9748,3.738,3.6269,3.5236,0.0,0.0,0.0,0.0,0.0,0.0,0.0,0.0,0.0,0.0,0.0,0.0,0.0,0.0,3.2836,0.0,0.0,3.8355,3.807,4.1106,4.3552,4.3805,4.3822,4.3747,4.3864,4.3822,4.3687,4.3509,4.3509,4.3432,4.3235,4.3235,4.3251,4.3129,4.3113,4.3113,4.3146,4.3068,4.3068,4.3146,4.3052,4.299,4.3007,4.2805,4.268,4.2508,4.2238,4.2125,4.227,4.2206,4.2254,4.2508,4.2318,4.2125,4.2012,4.1916,4.1931,4.2012,4.1817,4.1752,4.1752,0.0,0.0,0.0,0.0,0.0,0.0,0.0,1.2684,1.4101,1.5249,1.697,1.8818,2.0568,2.1139,2.2719,2.6219,2.8739,3.0877,3.2586,3.4516,3.677,3.9424,3.932,4.0173,4.2364,4.2274,4.3117,4.5075,4.528,4.528,4.5057,4.3648,4.2871,4.2559,4.1371,4.0776,4.0728,4.0037,3.9765,3.9714,3.9731,3.9679,3.9679,4.0153,4.0351,4.04,4.0935,4.0664,4.0216,4.0861,4.0943,4.054,3.9076,3.8567,3.7754,3.3874,3.4622,0.0,0.0,0.0,0.0,0.0,0.0,0.0,0.0,0.0,3.3846,3.6632,3.6611,3.6067,3.6067,3.8471,4.0204,3.9515,4.191,4.3763,4.3628,4.3568,4.3568,4.3492,4.3568,4.3432,4.3113,4.3312,4.3312,4.3052,4.3052,4.3007,4.2837,4.2929,4.2929,4.2837,4.2837,4.2775,4.2775,4.2618,4.2539,4.2571,4.2302,4.2109,4.2061,4.1801,4.1752,4.1914,4.2123,4.2285,4.227,4.2334,4.2124,4.1833,4.167,4.167,4.1833,4.167,4.1588,4.1588,0.0,0.0,0.0,0.0,0.0,0.0,0.0,0.0,1.4469,1.5596,1.7349,1.9338,2.1582,2.1865,2.3178,2.6215,2.9196,3.1517,3.3032,3.512,3.7294,3.9482,3.9486,3.9841,4.0603,4.1388,4.2187,4.3123,4.5062,4.553,4.4678,4.4228,4.3437,4.2312,4.1051,4.0419,4.0188,4.032,4.0271,4.007,4.0171,4.0288,4.0419,4.071,4.0823,4.0823,4.1047,4.0238,3.9311,4.0711,4.0349,3.9581,4.1096,4.0387,3.8638,3.6701,3.5613,3.4464,3.2107,3.307,3.454,3.3738,3.4669,3.5864,0.0,0.0,3.5262,3.5564,3.5442,3.5345,3.5345,3.7653,3.9515,3.9432,4.1763,4.3628,4.3628,4.3509,4.3372,4.3174,4.3295,4.3312,4.3113,4.3312,4.319,4.268,4.2821,4.2837,4.2634,4.2508,4.2508,4.2634,4.2508,4.2445,4.2445,4.2445,4.2445,4.2445,4.2381,4.219,4.1898,4.1898,4.1898,4.1946,4.2911,4.2815,4.2011,4.2748,4.2489,4.1654,4.1588,4.1588,4.1654,4.1588,4.1588,4.1588,0.0,0.0,0.0,0.0,0.0,0.0,0.0,0.0,0.0,1.5332,1.649,1.7879,1.9477,2.0511,2.206,2.4373,2.7718,2.9947,3.0531,3.4405,3.718,3.8302,3.9234,4.042,4.1847,4.2088,4.2892,4.4249,4.5475,4.5921,4.5556,4.436,4.3306,4.2423,4.1094,4.0254,3.9833,4.0121,4.0425,4.0747,4.0508,4.0593,4.095,4.1013,4.0982,4.0814,3.9963,3.9469,0.0,3.966,3.9451,3.9407,4.156,4.0637,3.8466,3.7099,3.6556,3.6592,3.7479,3.704,3.6573,0.0,3.825,3.8871,3.8975,3.8941,3.9175,4.0338,4.0414,4.0271,4.0271,4.1145,4.1846,0.0,4.2774,4.3492,4.3492,4.3267,4.3007,4.2805,4.2805,4.2743,4.268,4.2759,4.2696,4.2302,4.2381,4.2381,4.2302,4.2381,4.2381,4.2302,4.2238,4.2254,4.2254,4.2045,4.1996,4.2093,4.1996,4.1866,4.1736,4.1736,4.1736,4.1767,4.2347,4.2234,4.1767,4.2266,4.2137,4.1588,4.1588,4.1588,4.1588,4.1588,4.1588,4.1588,0.0,0.0,0.0,0.0,0.0,0.0,0.0,0.0,0.0,0.0,1.5911,1.7033,1.8531,2.0387,2.2142,2.3589,2.6465,2.8429,2.9114,3.3609,3.665,3.7446,3.9168,4.0842,4.2264,4.2392,4.3039,4.4309,4.5096,4.5248,4.4707,4.3456,4.233,4.1388,4.0357,3.9714,3.9401,3.9523,4.0184,4.1032,4.0256,4.051,4.1274,4.0971,4.0568,4.004,3.8824,3.8405,3.831,3.7788,3.7579,3.786,3.973,3.9276,3.775,3.6324,3.5909,3.6602,3.9398,3.9071,3.8328,4.016,4.1325,4.194,4.1741,4.1903,4.252,4.403,4.4097,4.3956,4.3956,4.3822,4.3687,4.3628,4.3509,4.3372,4.3267,4.3023,4.2759,4.2571,4.2381,4.2254,4.2254,4.2318,4.2318,4.2109,4.2109,4.2109,4.2109,4.219,4.2206,4.2061,4.2061,4.1996,4.198,4.172,4.167,4.1833,4.167,4.1588,4.1588,4.1588,4.1588,4.1604,4.2023,4.1992,4.1604,4.2023,4.1926,4.1588,4.1588,4.1588,4.1588,4.1588,4.1588,4.1588,0.0,0.0,0.0,0.0,0.0,0.0,0.0,0.0,0.0,0.0,0.0,0.0,0.0,2.2686,2.4425,2.5092,2.6058,2.7721,3.0205,3.3085,3.5571,3.7476,3.9485,4.0493,4.0578,4.1543,4.1945,4.1694,4.3239,4.2913,4.0889,4.1155,4.0282,3.8455,3.8423,3.8535,3.8788,3.8479,3.9292,4.0679,3.9265,3.9814,4.1477,4.0576,3.9451,3.8342,3.7976,3.6893,3.554,3.492,3.4337,3.4006,3.4854,3.5907,3.6474,3.4464,3.295,3.2331,3.4453,3.6429,3.8333,4.0213,4.2627,4.4468,4.4468,4.4339,4.4226,4.4293,4.4196,4.4097,4.4097,4.3998,4.3839,4.3628,4.3509,4.3267,4.2961,4.2759,4.2571,4.2445,4.2157,4.1914,0.0,4.2206,4.2318,4.2109,4.2109,4.2109,4.2109,4.1947,4.1898,4.1914,4.1914,4.1817,4.1588,4.1588,4.1588,4.1588,4.1588,4.1588,4.1588,4.1588,4.1588,4.162,4.25,4.242,4.1652,4.2516,4.2404,4.1588,4.1588,4.1588,4.1588,4.1588,4.1588,4.1588,0.0,0.0,0.0,0.0,0.0,0.0,0.0,0.0,0.0,0.0,0.0,0.0,0.0,0.0,0.0,0.0,2.6239,2.7483,2.8335,3.1754,3.4434,3.6075,3.8075,3.9549,4.0439,4.1409,4.2077,4.25,4.2506,4.2377,4.2177,4.067,3.9469,3.8451,3.8334,3.8124,3.787,3.8181,3.8942,3.9827,3.9199,3.9818,4.095,3.9355,3.8637,3.8121,0.0,3.3981,3.3404,3.3719,3.3154,3.2819,3.537,3.5037,3.3474,3.2179,3.2835,3.4386,3.6355,3.8441,4.0629,4.2478,4.3602,4.4286,4.4286,4.44,4.4497,4.4497,4.3166,4.2013,4.2013,4.1738,4.1458,4.1402,4.1829,4.2237,4.2634,4.1933,4.1541,4.2012,4.1882,0.0,0.0,0.0,0.0,4.1947,4.1963,4.1963,4.1963,4.1898,4.1833,4.1736,4.1833,4.1817,4.1588,4.1588,4.1588,4.1588,4.1588,4.1588,4.1588,4.1588,4.1588,4.1604,4.1907,4.1876,4.1604,4.1907,4.186,4.1588,4.1588,4.1588,4.1588,4.1588,4.1588,4.1588,0.0,0.0,0.0,0.0,0.0,0.0,0.0,0.0,0.0,0.0,0.0,0.0,0.0,0.0,0.0,0.0,0.0,2.7027,2.7708,3.0606,3.2901,3.4244,3.6064,3.7659,3.8939,3.9566,4.0408,4.1592,4.1091,4.1043,4.1299,3.9796,3.86,3.7806,3.771,3.7562,3.7417,3.7562,3.8065,3.8666,3.8068,3.8372,3.8958,3.7682,3.699,0.0,3.406,3.2686,3.1967,3.195,3.1704,3.1679,3.3488,3.2847,3.1512,3.1839,3.3343,3.5497,3.8353,4.0171,4.1747,4.3642,4.4155,4.4286,4.4286,4.4457,4.4587,4.4587,4.2669,4.1011,4.1011,3.9648,3.8698,3.9086,3.9153,3.9681,4.1155,4.069,4.0639,4.1656,4.1522,4.1522,0.0,0.0,0.0,4.2077,4.2252,4.2218,4.1963,4.2507,4.2391,4.1604,4.2055,4.2071,4.1588,4.1588,4.1588,4.1588,4.1588,4.1588,4.1588,4.1588,4.1588,4.1588,4.1588,4.1456,4.1241,4.1241,4.1024,4.0805,4.0805,4.0805,4.0805,4.0805,4.0805,4.0888,0.0,0.0,0.0,0.0,0.0,0.0,0.0,0.0,0.0,0.0,0.0,0.0,0.0,0.0,0.0,0.0,0.0,0.0,2.8139,2.967,3.1087,3.2302,3.3648,3.4957,3.6285,3.6301,3.7174,3.9069,3.9086,3.8782,3.8149,3.8185,3.7507,3.6338,3.6276,3.6628,3.7137,3.6568,3.6641,3.707,3.5941,3.5659,3.5856,3.5684,3.4711,3.3556,3.3917,3.2973,3.1291,2.9898,3.0109,3.0784,2.979,2.9929,3.0946,3.3493,3.4523,3.5802,4.0102,4.1341,4.1844,4.3692,4.4344,4.4587,4.4587,4.4587,4.4553,4.4434,4.25,4.0776,0.0,0.0,3.5756,3.6868,3.5958,3.6037,3.8793,3.9312,3.993,0.0,0.0,0.0,0.0,0.0,0.0,4.2366,4.2896,4.2845,4.2205,4.3453,4.3432,4.1749,4.2531,4.2563,4.1765,4.1765,4.1765,4.1765,4.1765,4.1765,4.1765,4.1667,4.1652,4.1636,4.1538,4.1091,4.0409,4.0478,3.996,3.932,3.932,3.9305,3.9305,3.9305,3.9463,3.9692,0.0,0.0,0.0,0.0,0.0,0.0,0.0,0.0,0.0,0.0,0.0,0.0,0.0,0.0,0.0,0.0,0.0,0.0,2.7632,2.8901,3.0243,3.1586,3.2458,3.3964,3.6269,3.6301,3.6934,3.8272,3.695,3.6382,3.6467,3.4738,3.4151,3.4451,3.3752,3.3712,3.4179,3.3655,3.3755,3.4202,3.4133,3.4642,3.5404,3.4762,3.4583,3.4555,3.386,3.3277,3.2717,3.1605,0.0,0.0,0.0,3.4756,3.5392,3.6832,3.8339,3.9765,4.09,4.2462,4.3859,4.4378,4.4514,4.4587,4.4587,4.4587,4.4096,4.2422,4.0172,3.8048,0.0,0.0,0.0,3.5997,3.7141,0.0,3.9735,3.9352,0.0,3.9984,0.0,4.0255,4.0393,4.1423,0.0,0.0,4.2427,4.2541,4.2893,4.3113,4.3078,4.2579,4.3464,4.3818,4.3626,4.3626,4.3626,4.3626,4.3626,4.3626,4.3611,4.2884,4.228,4.1688,4.1038,4.0324,3.9606,3.9763,3.9692,3.955,3.9677,3.9748,3.9748,3.9748,3.9748,3.9763,0.0,0.0,0.0,0.0,0.0,0.0,0.0,0.0,0.0,0.0,0.0,0.0,0.0,0.0,0.0,0.0,0.0,0.0,0.0,2.7958,2.8839,2.965,3.0434,3.1997,3.4356,3.4563,3.5124,3.6142,3.5967,3.5457,3.4546,3.416,3.3921,3.3783,3.3002,3.2857,3.3055,3.2602,3.2353,0.0,0.0,3.2967,3.3433,3.2945,3.355,3.4524,3.359,3.3632,0.0,0.0,0.0,3.4968,3.5844,3.6439,3.7163,3.8724,0.0,4.139,4.2428,4.3647,4.4587,4.4587,4.4587,4.4316,4.3318,4.3098,4.2455,4.0223,3.7812,0.0,3.4538,3.3844,0.0,0.0,0.0,0.0,3.8635,3.8447,3.8557,0.0,3.9677,0.0,3.999,4.0662,4.1365,0.0,4.2505,4.2805,4.2833,4.2832,4.2416,4.1601,4.3121,4.4018,4.417,4.4118,4.3738,4.32,4.3874,4.3548,4.2369,4.273,4.2155,4.0806,4.0578,3.9905,3.8957,3.9045,3.8972,3.8767,3.8841,3.8899,3.8899,3.8899,3.8914,3.8929,0.0,0.0,0.0,0.0,0.0,0.0,0.0,0.0,0.0,0.0,0.0,0.0,0.0,0.0,0.0,0.0,0.0,0.0,0.0,0.0,2.7554,2.7515,2.8367,2.9737,3.1706,3.1987,3.2574,3.3504,3.5087,3.4741,3.2626,3.4269,3.4374,3.3221,3.2728,3.2521,3.2521,3.2059,3.1482,3.0826,3.094,3.1005,3.1104,0.0,3.2323,3.3802,3.3401,3.3889,0.0,0.0,3.7255,3.6371,3.6549,3.7205,3.8305,4.0144,4.1197,4.2236,4.4198,4.4654,4.4587,4.4587,4.4587,4.3978,4.1728,4.1204,4.0493,3.7973,0.0,3.4086,3.3845,3.2159,3.1236,3.2526,0.0,3.4029,3.693,3.741,3.8065,3.9466,3.932,3.932,3.9849,3.9625,3.9968,4.126,4.2568,4.294,4.2307,4.2388,4.1878,4.0598,4.2482,4.3769,4.4093,4.3737,4.3075,4.2179,4.3268,4.2629,4.0582,4.1987,4.1572,3.9685,4.0091,3.955,3.8397,3.8397,3.8113,3.7625,3.7687,3.7687,3.7687,3.7687,3.7792,3.7973,0.0,0.0,0.0,0.0,0.0,0.0,0.0,0.0,0.0,0.0,1.5557,1.6707,0.0,0.0,0.0,0.0,0.0,0.0,0.0,0.0,0.0,2.7545,2.8107,2.9122,3.0482,3.0545,3.1059,3.1994,3.156,3.1191,3.0912,3.0101,3.0022,3.0448,2.9594,2.9401,2.9754,2.927,2.9228,2.9437,2.9484,3.0062,3.1014,3.157,0.0,0.0,3.373,0.0,0.0,0.0,3.7961,3.883,3.9771,4.1593,4.3389,4.3439,4.4152,4.5026,4.5409,4.5094,4.4587,4.4587,4.4587,4.3978,4.1728,4.1204,0.0,0.0,3.4617,3.3661,3.1817,3.1765,3.2442,3.382,0.0,0.0,0.0,0.0,3.8106,0.0,0.0,0.0,3.8277,3.9476,0.0,0.0,4.0837,4.107,4.1392,4.1413,4.216,4.3843,4.4236,4.4519,4.4605,4.3403,4.3214,4.4024,4.3198,4.3152,4.3662,4.2209,4.0959,3.998,3.9371,3.856,3.7763,3.7929,3.7929,3.7853,3.8066,3.8127,3.8127,3.8127,3.8142,3.8142,0.0,0.0,0.0,0.0,0.0,0.0,0.0,1.4625,1.5482,1.6066,1.6526,1.7308,1.8805,2.133,2.3243,0.0,0.0,0.0,0.0,0.0,0.0,0.0,2.8162,2.9079,3.018,3.0307,3.0541,3.0862,0.0,3.0571,2.9777,2.9715,2.9761,2.975,2.9044,2.892,2.9182,2.8716,2.8748,2.9198,2.9029,2.994,3.1413,0.0,0.0,0.0,0.0,0.0,0.0,0.0,3.6927,3.8762,4.0293,4.1828,4.3006,4.2808,4.3371,4.4075,4.4482,4.4273,4.4105,4.4497,4.4587,4.369,4.0257,0.0,0.0,0.0,3.2572,3.2169,3.1113,0.0,0.0,0.0,0.0,0.0,0.0,0.0,0.0,0.0,0.0,0.0,0.0,3.8463,3.8925,3.8925,3.915,3.9728,4.0716,4.0051,4.0525,4.2428,4.2386,4.2643,4.3432,4.269,4.2245,4.2215,4.2391,4.2046,4.1228,4.1229,4.0405,3.894,3.8855,3.8427,3.7777,3.7882,3.7944,3.8066,3.8127,3.8202,3.8202,3.8202,3.8202,3.8202,0.0,0.0,0.0,0.0,0.0,0.0,0.0,1.4543,1.5417,1.6457,1.7509,1.8211,1.8318,2.1777,2.4023,0.0,0.0,0.0,0.0,0.0,0.0,0.0,0.0,0.0,0.0,0.0,0.0,2.9959,3.0832,0.0,0.0,0.0,0.0,0.0,2.9182,2.9106,2.9183,2.8763,2.8889,0.0,0.0,2.9864,0.0,0.0,0.0,0.0,0.0,0.0,0.0,0.0,3.5223,3.7029,3.8652,4.0037,4.1002,4.1002,4.1502,4.2288,4.3312,4.3449,4.3393,4.3989,4.4253,4.3204,3.8706,3.781,0.0,0.0,3.0952,3.0912,3.0871,0.0,3.1849,0.0,3.3648,3.5169,0.0,0.0,0.0,0.0,0.0,0.0,3.7625,3.7534,0.0,3.7625,3.7915,3.8631,3.9847,3.9091,3.9195,4.0351,4.0233,4.0709,4.1885,4.1382,4.0845,4.01,4.0992,4.0397,3.8631,3.9991,3.9609,3.8005,3.8501,3.8427,3.7929,3.7958,3.8095,3.8202,3.8202,3.8202,3.8202,3.8202,3.8202,3.8202,0.0,0.0,0.0,0.0,0.0,0.0,0.0,1.5014,1.6297,1.6557,1.7761,1.8862,1.9486,2.2268,2.4439,0.0,0.0,0.0,0.0,0.0,0.0,0.0,0.0,0.0,0.0,0.0,0.0,2.9215,2.9366,0.0,0.0,0.0,0.0,0.0,0.0,2.8842,2.8842,2.8684,0.0,0.0,0.0,0.0,0.0,0.0,0.0,0.0,0.0,0.0,0.0,0.0,0.0,3.3141,3.4552,3.6925,3.925,3.9408,0.0,0.0,4.3179,4.3149,4.2583,4.2707,4.3136,4.2443,3.7994,0.0,0.0,3.2121,3.1032,3.0871,3.0733,3.0523,3.0733,3.189,3.1858,3.2697,0.0,0.0,0.0,0.0,0.0,0.0,3.7625,3.7303,3.7226,3.7548,3.761,3.7853,3.835,3.9565,4.0232,4.0381,4.0381,4.0411,4.0529,3.9239,3.9075,4.01,3.9046,3.9046,3.9921,3.8883,3.8396,3.8202,3.8202,3.8202,3.8202,3.8202,3.8202,3.8202,3.8202,3.8202,3.8202,3.8202,3.8202,3.8202,0.0,0.0,0.0,0.0,0.0,0.0,1.3199,1.4588,1.5585,1.5831,1.7183,1.8566,1.9512,2.13,2.3011,2.446,0.0,0.0,0.0,0.0,0.0,0.0,0.0,0.0,0.0,0.0,2.8366,2.8653,2.8706,0.0,0.0,0.0,0.0,0.0,0.0,2.8732,2.8794,2.8811,0.0,0.0,0.0,0.0,0.0,0.0,0.0,0.0,0.0,0.0,0.0,0.0,0.0,0.0,3.112,3.2336,0.0,0.0,3.8529,3.9359,4.1757,4.2108,4.2013,4.2395,4.1792,4.0369,3.7541,0.0,3.4588,3.1549,3.0576,3.0351,3.0485,3.006,2.9833,3.0386,3.0881,3.1536,3.2497,0.0,0.0,0.0,0.0,0.0,0.0,0.0,3.6772,3.7226,3.7226,3.7303,3.7443,3.804,3.8384,3.8384,3.8626,3.8702,3.8702,3.8393,3.8468,3.8942,3.8468,3.8483,3.8927,3.8454,3.8202,3.8202,3.8202,3.8202,3.8202,3.8202,3.8202,3.8202,3.8202,3.8202,3.8202,3.8202,3.8202,3.8202,0.0,0.0,0.0,0.0,0.0,1.1973,1.326,1.4312,1.5103,1.5655,1.6884,1.8067,1.9171,2.0442,2.1707,2.2876,2.4139,0.0,0.0,0.0,0.0,0.0,0.0,0.0,0.0,0.0,2.7985,2.8073,2.8221,2.8271,0.0,0.0,2.8396,2.8268,0.0,0.0,0.0,0.0,0.0,0.0,0.0,0.0,0.0,0.0,0.0,0.0,0.0,0.0,0.0,0.0,0.0,0.0,0.0,0.0,0.0,0.0,3.6352,3.7281,3.9687,4.0739,4.1343,4.1771,4.0553,3.8739,0.0,0.0,3.3172,3.0983,3.0192,2.9876,2.9865,2.9454,2.909,2.9088,2.9639,3.0129,3.0347,3.0951,0.0,0.0,0.0,3.3858,0.0,3.6295,3.647,3.6587,3.6758,3.6758,3.6587,3.6587,3.6744,3.6978,3.7303,3.738,3.738,3.7859,3.8098,3.8098,3.825,3.8265,3.825,3.8214,3.8202,3.8202,3.8202,3.8202,3.8202,3.8202,3.8202,3.8202,3.8202,3.8127,3.8142,3.8202,3.8127,3.8142,0.0,0.0,0.0,0.0,0.0,0.0,1.3078,1.4259,1.5312,1.6287,1.6971,1.7698,1.8405,2.0019,2.1037,2.1049,2.2063,0.0,0.0,0.0,0.0,0.0,0.0,0.0,0.0,0.0,2.8366,2.7297,2.7861,2.7966,2.773,2.8317,2.835,2.7913,0.0,0.0,0.0,0.0,0.0,0.0,0.0,0.0,0.0,0.0,0.0,0.0,0.0,0.0,0.0,0.0,0.0,0.0,0.0,0.0,0.0,0.0,3.3129,3.4953,3.6969,3.9,4.0524,4.0524,3.9479,3.8054,0.0,0.0,3.311,3.0619,2.9989,2.9625,2.8763,2.8575,2.8463,2.8336,2.7879,2.8181,2.993,0.0,0.0,0.0,0.0,3.1792,3.39,3.5544,3.6232,3.5723,3.6138,3.6232,3.5723,3.571,3.6111,3.6978,3.6978,3.6978,3.6978,3.7583,3.7892,3.7892,3.8303,3.8539,3.8525,3.8265,3.8202,3.8202,3.8202,3.8202,3.8202,3.8202,3.8202,3.8202,3.8202,3.8066,3.7929,3.8142,3.8066,3.7929,0.0,0.0,0.0,0.0,0.0,0.0,0.0,1.3848,1.5095,1.6239,1.6832,1.7492,1.8201,1.9057,1.9541,1.9541,2.1632,0.0,0.0,0.0,0.0,0.0,0.0,0.0,0.0,0.0,2.64,2.6127,2.6228,2.6279,2.6279,2.6444,2.6731,2.7063,2.6737,2.716,0.0,0.0,0.0,0.0,0.0,0.0,0.0,0.0,0.0,0.0,0.0,0.0,0.0,0.0,0.0,0.0,0.0,0.0,0.0,2.9348,3.1042,0.0,3.4979,3.5998,3.6492,3.66,3.5167,3.3748,3.3498,0.0,3.0222,2.9518,2.8995,2.8623,2.8417,2.8094,2.7898,2.8255,2.775,2.7622,0.0,0.0,0.0,0.0,0.0,3.6424,0.0,0.0,3.6769,3.6593,3.621,3.5884,3.571,3.571,3.5965,3.6549,3.6628,3.6693,3.6978,3.7175,3.7274,3.7274,3.7678,3.791,3.791,3.8077,3.8202,3.8202,3.8202,3.8202,3.8202,3.8202,3.8202,3.8202,3.8202,3.8066,3.7929,3.8142,3.8066,3.7929,0.0,0.0,0.0,0.0,0.0,0.0,0.0,1.3777,1.487,1.5998,1.6493,1.6951,1.7443,1.7944,1.8277,1.8446,2.0028,0.0,0.0,0.0,0.0,0.0,0.0,0.0,2.5548,2.5613,2.5494,2.5274,2.5105,2.5171,2.5377,2.5633,2.598,2.6361,2.613,2.6623,0.0,0.0,0.0,0.0,0.0,0.0,2.9241,0.0,0.0,0.0,0.0,0.0,0.0,0.0,0.0,0.0,0.0,0.0,0.0,0.0,2.9521,3.1083,0.0,3.4074,3.4721,3.4778,3.3184,0.0,0.0,0.0,2.8779,2.8686,2.8306,2.7947,2.778,2.7444,2.7342,2.768,2.7378,2.7388,0.0,0.0,0.0,0.0,0.0,0.0,0.0,3.7316,3.7469,3.7469,3.6661,3.6225,3.6225,3.5845,3.5898,3.6405,3.6232,3.6298,3.6508,3.6744,3.6855,3.6855,3.7265,3.7515,3.7501,3.7787,3.7976,3.7976,3.8127,3.8202,0.0,3.8202,3.8202,3.8202,3.8052,3.7839,3.7701,3.7749,3.7596,3.7457,0.0,0.0,0.0,0.0,0.0,0.0,0.0,1.3899,1.4698,1.5551,1.6013,1.6276,1.6407,1.6819,1.7282,1.7735,0.0,0.0,0.0,0.0,0.0,0.0,0.0,0.0,2.4187,2.5168,2.5283,2.4482,2.4376,2.4482,2.4797,2.5445,2.5782,2.5769,2.5903,2.6462,0.0,0.0,0.0,0.0,0.0,0.0,0.0,0.0,0.0,0.0,0.0,0.0,0.0,0.0,0.0,0.0,0.0,0.0,0.0,0.0,0.0,0.0,0.0,3.2936,0.0,0.0,0.0,0.0,0.0,0.0,0.0,2.8143,2.7947,2.763,2.6937,2.6779,2.6779,2.6779,2.6779,2.7393,0.0,0.0,0.0,0.0,3.4794,0.0,3.5677,3.7198,3.8269,3.8269,3.7538,3.7126,3.7126,3.632,3.6074,3.646,3.6033,3.5764,3.5723,3.6266,3.6537,3.6537,3.6975,3.7234,3.722,3.7494,3.7534,3.7625,3.7976,3.8127,3.8127,3.8127,3.8127,3.8127,3.7687,3.7457,3.7226,3.707,3.69,3.6744,0.0,0.0,0.0,0.0,0.0,0.0,0.0,0.0,0.0,0.0,1.5788,1.6052,1.6611,1.6789,1.702,0.0,0.0,0.0,0.0,0.0,0.0,0.0,0.0,0.0,2.2532,2.2635,2.2679,2.2571,2.2519,2.2519,2.2468,2.333,2.3929,2.4381,2.4491,2.4936,0.0,0.0,0.0,0.0,0.0,0.0,0.0,0.0,0.0,0.0,3.1328,3.0898,0.0,0.0,0.0,0.0,0.0,0.0,0.0,0.0,2.9121,2.8936,2.9325,0.0,3.0315,3.0429,2.9889,2.9301,0.0,0.0,0.0,0.0,0.0,0.0,0.0,2.6779,2.6779,2.6779,2.6659,2.7256,0.0,0.0,0.0,0.0,3.8756,3.955,3.9409,3.9243,3.9229,3.9229,3.8408,3.791,3.791,3.7676,3.7387,3.6852,3.6757,3.6538,3.6232,3.6021,3.5927,3.5927,3.6358,3.6612,3.6598,3.6985,3.7148,3.7148,3.7534,3.7763,3.7763,3.7763,3.7763,3.7687,3.7303,3.6978,3.6822,3.6978,3.69,3.6744,0.0,0.0,0.0,0.0,0.0,0.0,0.0,0.0,0.0,0.0,0.0,1.5128,1.5506,1.5489,0.0,0.0,0.0,0.0,0.0,0.0,0.0,0.0,0.0,2.1881,2.2021,2.2117,2.2114,2.2001,2.2192,2.2126,2.1822,2.295,2.3636,2.3918,2.4628,2.4956,0.0,0.0,0.0,0.0,2.6467,0.0,0.0,0.0,0.0,0.0,3.0624,3.016,0.0,3.0201,2.9368,2.8324,0.0,0.0,0.0,0.0,2.9213,2.8653,2.8685,2.8826,2.8967,2.8905,2.8716,2.8525,2.8284,0.0,0.0,0.0,0.0,0.0,0.0,0.0,0.0,2.6841,2.7151,0.0,0.0,0.0,0.0,0.0,3.8426,3.9299,0.0,4.0164,3.9955,4.0026,3.9298,3.8783,3.8783,3.8436,3.7965,3.7552,3.7195,3.6674,3.6058,3.5804,3.571,3.571,3.5978,3.6058,3.6058,3.6536,3.6693,3.6772,3.707,3.7226,3.7303,3.7226,3.7226,3.7303,3.6836,3.6693,3.6536,3.6429,3.635,3.627,0.0,0.0,0.0,0.0,0.0,0.0,0.0,0.0,0.0,0.0,0.0,0.0,0.0,0.0,0.0,0.0,0.0,0.0,0.0,0.0,0.0,0.0,2.0952,2.1801,2.1601,2.2046,2.218,2.1931,2.2233,2.218,2.1754,2.3258,2.3973,2.4121,2.5273,2.5453,0.0,0.0,0.0,0.0,2.5467,0.0,0.0,0.0,0.0,0.0,0.0,0.0,0.0,3.0304,2.9673,2.8673,2.935,0.0,0.0,0.0,0.0,0.0,2.8605,2.9107,2.9422,2.8729,2.8525,2.8429,2.8073,0.0,0.0,0.0,0.0,0.0,0.0,0.0,0.0,0.0,0.0,0.0,0.0,0.0,0.0,3.6157,3.6828,0.0,4.0204,4.0399,4.0471,4.0702,4.004,3.9662,3.9662,3.9005,3.8519,3.8422,3.7759,3.6893,3.5953,3.5764,3.571,3.571,3.571,3.571,3.571,3.6138,3.6312,3.6312,3.6522,3.6665,3.6822,3.6665,3.6665,3.6836,3.6457,3.6312,3.6232,3.5884,3.571,3.571,0.0,0.0,0.0,0.0,0.0,0.0,0.0,0.0,0.0,0.0,0.0,0.0,0.0,0.0,0.0,0.0,0.0,0.0,0.0,0.0,0.0,1.7688,1.8872,1.9567,1.9654,1.984,2.0283,2.107,2.0744,2.068,2.0906,2.2469,2.3771,2.4813,2.5077,2.5005,2.4835,2.4991,2.4865,2.458,2.5175,0.0,0.0,0.0,0.0,0.0,0.0,0.0,0.0,3.0828,3.0366,2.9381,3.0058,0.0,0.0,0.0,0.0,0.0,2.8284,3.0007,3.1259,2.9015,2.825,2.8054,2.789,0.0,0.0,0.0,0.0,0.0,0.0,0.0,0.0,0.0,0.0,3.2082,0.0,0.0,3.7479,3.7826,0.0,3.9396,4.0343,4.0413,4.0471,4.0702,4.0617,4.0561,4.0561,4.0377,4.0012,3.9312,3.9215,3.8367,3.6839,3.6062,3.571,3.571,3.571,3.571,3.571,3.5804,3.5804,3.5804,3.6031,3.6111,3.6111,3.6111,3.6111,3.6111,3.5884,3.5804,3.5804,3.5723,3.571,3.5723,0.0,0.0,0.0,0.0,0.0,0.0,0.0,0.0,0.0,0.0,0.0,0.0,0.0,0.0,0.0,0.0,0.0,0.0,0.0,0.0,1.7783,1.7155,1.7991,1.8542,1.859,1.9109,1.9475,1.9695,2.0308,2.0411,2.0131,2.2009,2.3635,2.5005,2.5005,2.4948,2.4778,2.4778,2.4721,2.4593,0.0,0.0,0.0,0.0,0.0,0.0,0.0,0.0,0.0,0.0,3.0458,3.0012,3.032,0.0,0.0,0.0,0.0,0.0,2.8186,2.8971,2.9819,3.0046,3.0925,3.1438,3.0408,0.0,0.0,0.0,0.0,0.0,0.0,0.0,2.8335,2.9743,0.0,3.2506,3.3958,3.4764,3.5517,0.0,0.0,3.8339,3.9913,4.0065,4.0124,4.027,4.0457,4.0558,4.0558,4.0616,4.0575,4.0195,3.9704,3.9089,3.8367,3.7099,3.613,3.571,3.571,3.571,3.571,3.571,3.571,3.571,3.5562,3.5562,3.5629,3.548,3.548,3.5629,3.5562,3.5642,3.571,3.571,3.5562,3.548,0.0,0.0,0.0,0.0,0.0,0.0,0.0,0.0,0.0,0.0,0.0,0.0,0.0,0.0,0.0,0.0,0.0,0.0,0.0,1.7362,1.7256,1.7078,1.7556,1.7929,1.805,1.8738,1.9044,1.898,1.9961,2.0404,2.0384,2.2023,2.3581,2.5005,2.5005,2.4892,2.4721,2.4721,2.4721,2.4664,0.0,0.0,0.0,0.0,0.0,0.0,0.0,0.0,0.0,0.0,0.0,0.0,0.0,0.0,0.0,2.9357,2.8648,2.8005,2.8152,2.8344,2.8951,3.0821,3.2254,3.3051,3.2576,3.1884,0.0,0.0,0.0,0.0,0.0,2.7613,0.0,3.272,3.2848,3.3024,3.4559,3.4255,3.4421,3.5852,3.6626,3.7731,3.9637,3.9766,3.9715,3.9934,4.0023,4.0053,4.0053,4.0195,4.0266,4.0266,3.9648,3.9243,3.9089,3.7758,3.6729,3.6008,3.5791,3.571,3.571,3.571,3.571,3.571,3.5236,3.5154,3.5318,3.4921,3.5003,3.5236,3.5318,3.548,3.5642,3.571,3.548,3.5249,0.0,0.0,0.0,0.0,0.0,0.0,0.0,0.0,0.0,0.0,0.0,0.0,0.0,0.0,0.0,0.0,0.0,0.0,0.0,1.7323,1.7423,1.7267,1.7134,1.7346,1.7897,1.8104,1.8685,1.9695,1.9328,2.031,2.2591,2.2738,2.3581,2.5005,2.5005,2.4835,2.462,2.462,2.4492,2.435,2.435,0.0,0.0,0.0,0.0,0.0,0.0,0.0,0.0,0.0,0.0,0.0,0.0,0.0,3.0053,2.8679,2.8183,2.802,2.8005,2.9599,3.115,3.0687,2.9364,0.0,3.2353,3.1132,0.0,3.0473,0.0,0.0,0.0,2.8253,2.9421,3.1988,3.3414,3.4733,3.6325,0.0,3.7634,3.7993,3.8699,3.952,4.0277,3.9781,3.955,3.9802,3.9269,3.9002,3.9002,3.9002,3.9002,3.9002,3.8959,3.8555,3.771,3.7412,3.7112,3.6893,3.6076,3.571,3.571,3.571,3.571,3.571,3.5236,3.5086,3.5086,3.4921,3.4839,3.4839,3.5086,3.5236,3.548,3.5642,3.5562,3.5399,0.0,0.0,0.0,0.0,0.0,0.0,0.0,0.0,0.0,0.0,0.0,0.0,0.0,0.0,0.0,0.0,0.0,0.0,0.0,1.6765,1.6775,1.7078,1.7011,1.7123,1.7346,1.739,1.7765,1.8513,1.9556,2.081,2.2348,2.311,2.4053,2.5005,2.4892,2.4778,2.462,2.4492,2.435,2.4292,2.4292,2.4478,0.0,0.0,0.0,0.0,0.0,0.0,0.0,0.0,3.1382,3.1274,3.0455,3.0017,2.9561,2.8427,2.8054,2.7955,2.7905,2.8976,3.028,3.0991,2.9862,0.0,0.0,3.2858,3.2299,3.2701,3.2291,0.0,0.0,0.0,3.0517,3.2581,3.4244,3.5384,3.6015,3.7107,3.7859,3.7838,3.8422,3.8908,3.9045,3.8809,3.8699,3.8825,3.8726,3.8615,3.8615,3.8779,3.8861,3.8861,3.8861,3.8749,3.8415,3.7794,3.7356,3.7207,3.6171,3.571,3.571,3.571,3.571,3.571,3.5236,3.5154,3.5236,3.4743,3.4743,3.5003,3.5086,3.5154,3.5236,3.548,3.5318,3.5086,0.0,0.0,0.0,0.0,0.0,0.0,0.0,0.0,0.0,0.0,0.0,0.0,0.0,0.0,0.0,0.0,0.0,0.0,1.6379,1.6312,1.6368,1.6775,1.6899,1.7011,1.7078,1.7011,1.7234,1.7776,1.9751,2.112,2.2021,2.3281,2.4269,2.4948,2.4835,2.4664,2.4492,2.435,2.4292,2.4292,2.4176,2.4363,0.0,0.0,0.0,0.0,0.0,0.0,0.0,0.0,3.1106,3.1083,3.0158,2.9613,2.9173,2.8202,2.7689,2.7409,2.7275,2.7603,2.834,2.9871,0.0,0.0,3.2901,3.328,3.3234,3.3978,3.3332,3.2486,3.1675,0.0,0.0,0.0,3.419,3.5196,3.4996,3.6031,3.6789,3.6701,3.725,3.7702,3.8075,3.7924,3.7896,3.8061,3.8059,3.8028,3.8028,3.819,3.8271,3.8271,3.8271,3.8271,3.8271,3.7676,3.7226,3.7013,3.617,3.5804,3.571,3.571,3.571,3.571,3.5318,3.5236,3.5318,3.4743,3.466,3.4908,3.5003,3.5003,3.5003,3.5236,3.5086,3.4839,0.0,0.0,0.0,0.0,0.0,0.0,0.0,0.0,0.0,0.0,0.0,0.0,0.0,0.0,0.0,0.0,0.0,0.0,1.5352,1.5968,1.6301,1.6312,1.6775,1.7078,1.7278,1.7078,1.729,1.7897,1.9805,2.112,2.2021,2.3281,2.4227,2.4778,2.4791,2.4607,2.4292,2.4292,2.4292,2.4292,2.3956,2.4144,2.4505,0.0,0.0,0.0,0.0,0.0,0.0,0.0,3.0403,3.0752,2.9431,2.9093,2.9007,2.8087,2.7031,2.6184,2.6144,2.5603,2.5483,0.0,0.0,0.0,3.205,3.1837,3.1694,3.393,3.3508,3.2449,3.149,3.206,0.0,3.2051,3.3262,3.4097,3.3522,3.4035,3.4568,3.4733,3.5319,3.6253,3.7729,3.7305,3.7206,3.7812,3.733,3.6978,3.6978,3.6978,3.6978,3.6978,3.6978,3.6978,3.6978,3.6772,3.6642,3.6405,3.6166,3.5978,3.571,3.571,3.571,3.571,3.548,3.5399,3.5399,3.5003,3.466,3.4397,3.4673,3.4756,3.4839,3.5003,3.5003,3.4756,0.0,0.0,0.0,0.0,0.0,0.0,0.0,0.0,0.0,0.0,0.0,0.0,0.0,0.0,0.0,0.0,0.0,0.0,1.5294,1.5459,1.5738,1.6301,1.6909,1.7211,1.7278,1.7078,1.7335,1.805,2.0457,2.1732,2.2034,2.3761,2.4617,2.4791,2.4858,2.4688,2.4319,2.4517,2.4419,2.4157,2.4041,2.4144,2.4305,0.0,0.0,0.0,0.0,0.0,0.0,0.0,0.0,0.0,2.9061,2.8622,2.8247,2.7786,2.7475,2.731,2.7175,2.8166,0.0,0.0,0.0,0.0,0.0,3.324,0.0,0.0,3.4358,3.2886,3.1528,3.1674,0.0,3.067,3.1838,3.2609,3.2085,3.2717,3.3329,3.3383,3.4045,3.4537,3.4791,3.571,3.6277,3.6344,3.6749,3.6978,3.6978,3.6978,3.6978,3.6978,3.6978,3.6978,3.6978,3.6915,3.6772,3.6405,3.6325,3.6072,3.571,3.571,3.571,3.571,3.548,3.548,3.5562,3.5154,3.4743,3.4397,3.4481,3.4494,3.4577,3.4839,3.4756,3.4577,0.0,0.0,0.0,0.0,0.0,0.0,0.0,0.0,0.0,0.0,0.0,0.0,0.0,0.0,0.0,0.0,0.0,0.0,0.0,1.505,1.5459,1.5911,1.6797,1.7366,1.7427,1.7761,1.8295,1.8981,2.0662,2.1767,2.2343,2.3983,2.4727,2.4837,2.4708,2.4517,2.4367,2.445,2.4248,2.3878,2.3878,2.3982,2.4041,0.0,0.0,0.0,0.0,0.0,0.0,0.0,0.0,0.0,2.852,2.8173,2.7795,2.703,2.6612,2.6468,2.6746,2.7715,0.0,0.0,0.0,3.2675,3.3737,0.0,0.0,0.0,3.4036,3.3035,3.1773,3.1588,0.0,3.0541,3.0931,3.1208,3.0647,3.1047,3.1449,3.1503,3.223,3.283,3.3118,3.4347,3.5101,3.5156,3.5642,3.6056,3.648,3.6494,3.6652,3.6978,3.6978,3.6978,3.6978,3.6978,3.685,3.6563,3.6563,3.6312,3.5898,3.5723,3.571,3.571,3.5562,3.548,3.548,3.5236,3.4825,3.4397,3.4397,3.4397,3.4397,3.4577,3.4577,3.4397,0.0,0.0,0.0,0.0,0.0,0.0,0.0,0.0,0.0,0.0,1.1398,0.0,0.0,0.0,0.0,0.0,0.0,0.0,0.0,1.4734,1.5469,1.5469,1.6686,1.7492,1.7728,1.884,1.9737,2.0449,2.0761,2.1624,2.2876,2.4081,2.4734,2.4896,2.4491,2.432,2.4436,2.4175,2.3916,2.3628,2.3628,2.3654,2.3816,2.4554,0.0,0.0,0.0,0.0,0.0,0.0,0.0,0.0,2.7936,2.779,2.7505,2.6097,2.5214,2.4925,2.5619,0.0,0.0,0.0,0.0,0.0,3.5216,3.4633,3.3538,3.3219,0.0,3.2748,3.2101,3.1859,3.1577,3.1223,3.0556,2.9881,2.9304,2.9232,2.9301,2.9452,3.0159,3.1112,3.2313,3.3135,3.3804,3.4236,3.4306,3.4733,3.5655,3.5669,3.6084,3.6978,3.6978,3.6978,3.6978,3.6978,3.6915,3.6721,3.6721,3.6498,3.6154,3.5831,3.571,3.571,3.571,3.548,3.5086,3.5086,3.4825,3.4397,3.4397,3.4397,3.4397,3.4397,3.4397,3.4397,0.0,0.0,0.0,0.0,0.0,0.0,0.0,0.0,0.0,0.0,0.0,0.0,0.0,0.0,0.0,0.0,0.0,0.0,0.0,1.4944,1.5797,1.5797,1.7233,1.8038,1.8073,1.9089,2.0194,2.1304,2.2393,2.3052,2.3362,2.4386,2.4865,2.4862,2.4442,2.4359,2.461,2.4285,2.4099,2.3995,2.3688,2.3957,2.4391,2.4043,2.5269,0.0,0.0,0.0,0.0,0.0,0.0,0.0,2.772,2.759,2.7306,2.6562,2.715,2.8024,2.7742,2.9319,0.0,0.0,0.0,3.3469,3.403,3.3449,3.2971,3.4079,3.3183,3.215,3.2025,3.2115,3.1835,3.0784,3.0469,2.9985,2.8811,2.8679,2.8679,2.8759,2.9367,3.0135,3.0839,3.2039,3.3059,3.3602,3.3998,3.4733,3.5655,3.5669,3.6084,3.6978,3.6978,3.6978,3.6978,3.6978,3.6915,3.6721,3.6721,3.6719,3.6729,3.6197,3.5898,3.571,3.571,3.548,3.5086,3.5086,3.4825,3.4397,3.4397,3.4397,3.4397,3.4397,3.4397,3.4397,0.0,0.0,0.0,0.0,0.0,0.0,0.0,0.0,0.0,0.0,0.0,0.0,0.0,0.0,0.0,0.0,0.0,0.0,0.0,0.0,1.6296,1.6992,1.7864,1.8427,1.8552,1.9939,2.0922,2.1266,2.3334,2.4204,2.4023,2.4543,2.4909,2.5081,2.4651,2.4579,2.4733,2.4246,2.4064,2.4051,2.3965,2.4144,2.4474,2.4788,2.5654,2.671,2.7032,0.0,0.0,0.0,0.0,0.0,0.0,0.0,2.7312,2.6292,2.6755,2.7726,0.0,0.0,0.0,0.0,0.0,0.0,3.3458,3.3142,3.2959,3.3283,3.2623,3.2038,3.2288,3.2167,3.181,3.122,3.0817,3.0199,2.9141,2.9032,2.8867,2.8534,2.9117,2.9703,2.983,3.1144,3.2134,3.2773,3.294,3.3649,3.4979,3.465,3.4992,3.6322,3.6401,3.6573,3.6978,3.6978,3.6915,3.685,3.685,3.6781,3.6686,3.6415,3.6076,3.571,3.571,3.548,3.5086,3.5086,3.4825,3.4397,3.4397,3.4397,3.4397,3.4397,3.4397,3.4397,0.0,0.0,0.0,0.0,0.0,0.0,0.0,0.0,0.0,0.0,0.0,0.0,0.0,0.0,0.0,0.0,0.0,0.0,0.0,0.0,0.0,1.8082,1.8511,1.8763,1.8956,2.0723,2.1393,2.088,2.3591,2.476,2.4477,2.4723,2.4934,2.5218,2.4805,2.4619,2.4671,2.409,2.3863,2.3977,2.4211,2.4262,2.4389,2.5463,2.5875,2.601,2.7028,2.7544,2.7724,2.7703,0.0,0.0,0.0,0.0,2.7253,2.5899,2.5949,2.6751,0.0,0.0,0.0,0.0,0.0,0.0,3.3202,3.3215,3.3056,3.2288,3.2125,3.2201,3.2624,3.2277,3.1858,3.1916,3.1435,3.0679,2.9894,2.9821,2.9545,2.8783,2.9258,2.9525,2.9374,3.0241,3.1113,3.1847,3.1724,3.2278,3.383,3.3344,3.3746,3.5413,3.5575,3.6084,3.673,3.69,3.6978,3.6978,3.7125,3.6888,3.6419,3.662,3.6375,3.571,3.571,3.548,3.5154,3.5086,3.4825,3.4481,3.4397,3.4397,3.4397,3.4397,3.4397,3.4397,0.0,0.0,0.0,0.0,0.0,0.0,0.0,0.0,0.0,0.0,0.0,0.0,0.0,0.0,0.0,0.0,0.0,0.0,0.0,0.0,0.0,1.7984,1.8808,1.918,1.9114,2.0289,2.0876,2.0824,2.2882,2.3953,2.4001,2.4847,2.5179,2.5039,2.4368,2.4154,2.4241,2.3669,2.3633,2.3888,2.3744,2.4099,2.4571,2.4326,2.4853,2.5823,2.5994,2.6504,2.7085,2.735,2.7452,0.0,0.0,0.0,2.6922,2.6236,2.7102,2.8313,0.0,0.0,0.0,0.0,0.0,0.0,0.0,0.0,3.2797,0.0,3.2636,3.2624,3.2711,3.2834,3.2719,3.1978,3.1841,3.1509,3.0704,3.063,3.0339,2.9557,2.9557,2.9594,2.9594,2.9576,2.9854,3.0624,3.0846,3.1467,3.2432,3.2814,3.3479,3.4472,3.5237,3.5749,3.591,3.6652,3.6978,3.7007,3.7685,3.7481,3.6432,3.707,3.6795,3.571,3.571,3.5562,3.5318,3.5154,3.5003,3.4756,3.4481,3.4397,3.4397,3.4397,3.4397,3.4397,0.0,0.0,0.0,0.0,0.0,0.0,0.0,0.0,0.0,0.0,0.0,0.0,0.0,0.0,0.0,0.0,0.0,0.0,0.0,0.0,0.0,1.7881,1.8721,1.9274,1.9407,2.0204,2.059,2.0291,2.2567,2.3638,0.0,2.4983,2.5586,2.5496,2.4746,2.4494,2.457,2.3771,2.3701,2.4163,2.4102,2.4557,2.5287,2.4489,2.4677,2.5355,2.5212,2.5329,2.5714,2.6616,2.6841,2.6841,2.7115,0.0,0.0,0.0,2.7238,0.0,2.9366,0.0,0.0,0.0,0.0,0.0,0.0,0.0,3.3129,3.2797,3.281,3.2896,3.2896,3.2982,3.2993,3.2669,3.2534,3.2347,3.1534,3.1447,3.1153,3.0351,3.029,3.0098,2.9618,2.9791,3.0102,3.0493,3.0445,3.0833,3.17,3.1831,3.2201,3.3091,3.3817,3.4664,3.5669,3.6084,3.6494,3.7007,3.7852,3.7565,3.6446,3.7152,3.6863,3.571,3.571,3.5562,3.5399,3.5318,3.5086,3.4756,3.4673,3.4494,3.4397,3.4397,3.4397,3.4397,0.0,0.0,0.0,0.0,0.0,0.0,0.0,0.0,0.0,0.0,0.0,0.0,0.0,0.0,0.0,0.0,0.0,0.0,0.0,0.0,0.0,1.7658,1.871,1.9341,1.9539,1.9966,2.0031,1.9736,2.2198,2.3316,2.327,2.5153,2.6038,2.6013,2.53,2.491,2.4671,2.3961,2.3968,2.4425,2.4582,2.5109,2.5629,2.4391,2.4112,2.4374,2.4132,2.3973,2.4139,2.5833,2.6336,2.6336,2.6736,2.6959,0.0,0.0,0.0,0.0,0.0,0.0,0.0,0.0,0.0,0.0,0.0,0.0,3.3556,0.0,3.2982,3.3081,3.3081,3.3081,3.3081,3.3081,3.3081,3.293,3.2262,3.2199,3.1903,3.1178,3.1104,3.0811,3.0012,3.0114,3.0253,3.0318,3.0053,3.0202,3.0822,3.0784,3.0992,3.1642,3.2406,3.3444,3.4779,3.5426,3.6004,3.6665,3.7688,3.7565,3.6446,3.7152,3.6863,3.571,3.571,3.5642,3.548,3.5399,3.5236,3.4921,3.4839,3.4673,3.4481,3.4397,3.4397,3.4397,0.0,0.0,0.0,0.0,0.0,0.0,0.0,0.0,0.0,0.0,0.0,0.0,1.4396,1.4437,1.4367,1.4347,1.4394,1.441,1.4425,1.5728,1.6678,1.7101,1.87,0.0,1.9351,1.9208,1.9208,1.9351,2.1498,0.0,2.3068,2.5413,2.6483,2.6458,2.5812,2.4996,2.4104,2.4264,2.4374,2.4427,2.5006,2.5269,2.5153,2.3369,2.2726,2.2675,2.2318,0.0,0.0,0.0,0.0,2.6068,2.5988,2.634,2.6606,0.0,0.0,0.0,0.0,0.0,0.0,0.0,0.0,0.0,0.0,0.0,0.0,3.3154,3.3081,3.3081,3.3081,3.3081,3.3081,3.3081,3.3081,3.3068,3.3043,3.3031,3.2744,3.1928,3.1854,3.1559,3.0836,3.0086,2.9618,2.9675,2.9479,2.934,2.9422,2.9845,3.0122,3.0206,3.1521,3.2286,3.2369,3.455,3.5749,3.5763,3.7428,3.7565,3.6446,3.7152,3.6863,3.571,3.571,3.571,3.5629,3.548,3.5399,3.5318,3.4921,3.4756,3.4756,3.4481,3.4397,3.4397,0.0,0.0,0.0,0.0,0.0,0.0,0.0,0.0,0.0,0.0,0.0,0.0,0.0,1.4458,1.4364,1.4194,1.4072,1.4281,1.4966,1.607,1.7042,1.7784,1.8844,1.9341,1.9285,1.9142,1.9142,1.9285,2.0751,2.1744,2.2391,2.3886,2.4853,2.5278,2.5172,2.5124,2.5165,2.4274,0.0,0.0,0.0,0.0,0.0,0.0,0.0,0.0,0.0,0.0,0.0,0.0,0.0,0.0,0.0,0.0,0.0,0.0,0.0,0.0,0.0,0.0,0.0,0.0,0.0,3.2564,3.2214,3.3177,3.4063,3.3556,3.3471,3.3398,3.3154,3.3081,3.3081,3.3081,3.3081,3.3081,3.3081,3.3081,3.3006,3.2707,3.2694,3.2384,3.1571,3.1252,3.0679,2.9642,2.9525,2.9298,2.8811,2.9292,2.9581,2.9581,3.0408,3.1255,3.2164,3.3584,3.4444,3.4815,3.565,3.5902,3.5494,3.6052,3.6055,3.571,3.571,3.571,3.571,3.5642,3.5562,3.5399,3.5236,3.5086,3.5003,3.4743,3.4673,3.466,0.0,0.0,0.0,0.0,0.0,0.0,0.0,0.0,0.0,1.326,0.0,0.0,0.0,0.0,1.4497,1.4353,1.4346,1.4689,1.5517,1.6627,1.7522,1.82,1.8844,1.9208,1.9208,1.8961,1.8961,1.9208,1.956,2.0512,2.1958,2.2876,2.3818,2.4755,2.4671,2.4949,0.0,0.0,0.0,2.4429,0.0,0.0,2.6411,0.0,0.0,0.0,0.0,0.0,0.0,0.0,0.0,0.0,0.0,0.0,0.0,0.0,0.0,0.0,2.5949,0.0,0.0,0.0,0.0,3.0653,3.1299,0.0,3.3213,3.3643,3.3556,3.3398,3.3154,3.3081,3.3081,3.3081,3.3081,3.3081,3.3081,3.3081,3.3081,3.3081,3.3081,3.293,3.2384,3.21,3.1351,3.0098,2.9772,2.9294,2.8534,2.8847,2.9112,2.9292,2.9641,3.0396,3.1484,3.237,3.3049,3.3617,3.4309,3.464,3.4551,3.4959,3.4992,3.4772,3.4772,3.5114,3.571,3.5386,3.5386,3.5467,3.5059,3.5059,3.5154,3.5003,3.4921,3.4839,0.0,0.0,0.0,0.0,0.0,0.0,0.0,0.0,1.3237,1.3237,0.0,0.0,0.0,0.0,0.0,1.4935,1.5251,1.5658,1.607,1.7375,1.82,1.82,1.8777,1.9075,1.9075,1.8602,1.8582,1.9044,1.8032,1.9009,2.1855,2.2538,2.3622,2.495,2.4406,2.4419,2.4795,0.0,2.4646,2.428,0.0,2.6788,2.7275,0.0,0.0,0.0,2.2975,2.236,0.0,2.5633,0.0,0.0,0.0,0.0,0.0,0.0,0.0,0.0,0.0,0.0,0.0,0.0,0.0,0.0,3.0803,0.0,3.1048,3.3149,3.3297,3.3079,3.3154,3.3081,3.3081,3.3081,3.3081,3.3081,3.3081,3.3081,3.3081,3.3081,3.3081,3.3081,3.3081,3.2409,3.1596,3.086,3.0086,2.9306,2.8534,2.851,2.8751,2.9256,2.928,2.9532,3.0062,3.0927,3.1599,3.2152,3.3392,3.3914,3.3661,3.3979,3.3682,3.298,3.298,3.4011,3.5548,3.4729,3.4895,3.5548,3.4454,3.4551,3.5318,3.5154,3.5086,3.5086,0.0,0.0,0.0,0.0,0.0,0.0,1.2739,1.3621,1.4194,0.0,0.0,0.0,1.4792,1.5338,1.5666,1.5666,1.628,1.6895,1.758,1.7988,1.8355,1.8654,1.8798,1.8875,1.8875,1.8324,1.8161,1.8469,1.8659,1.9345,2.0529,2.1663,2.2957,2.428,2.3992,2.4004,2.4381,2.4086,0.0,2.423,2.639,2.6788,0.0,0.0,0.0,0.0,0.0,2.4388,2.5561,0.0,2.5784,2.4345,0.0,0.0,0.0,0.0,0.0,0.0,2.2964,0.0,0.0,0.0,0.0,0.0,0.0,0.0,2.9621,3.1659,3.1824,3.2016,3.325,3.3313,3.3081,3.3081,3.3081,3.3081,3.3081,3.3081,3.3081,3.3081,3.3081,3.3081,3.3081,3.293,3.2187,3.0885,3.0593,2.9858,2.8558,2.851,2.8582,2.8727,2.8727,2.8979,2.9508,2.9755,3.0175,3.0711,3.1235,3.1736,3.2162,3.2476,3.2723,3.298,3.298,3.3237,3.3759,3.3505,3.394,3.4634,3.3674,3.342,3.3674,3.4121,3.4288,3.4301,0.0,0.0,0.0,0.0,0.0,1.3401,1.3401,1.4037,1.4641,0.0,0.0,0.0,1.5417,1.6088,1.6489,1.6576,1.7257,1.7794,1.8161,1.8522,1.867,1.8322,1.842,1.8456,1.8456,1.8325,1.8348,1.8561,1.8428,1.9168,2.0625,2.1205,2.2348,2.3824,0.0,0.0,0.0,0.0,0.0,0.0,2.5936,0.0,0.0,2.6197,2.7023,0.0,0.0,0.0,2.7408,2.7437,2.6017,0.0,0.0,0.0,0.0,0.0,0.0,0.0,0.0,0.0,0.0,0.0,0.0,0.0,2.6236,2.7494,2.9134,0.0,3.262,3.271,3.3817,3.381,3.3569,3.3398,3.3313,3.3326,3.3167,3.3081,3.3081,3.3081,3.3081,3.3081,3.3081,3.3081,3.2619,3.1314,3.0947,3.011,2.857,2.851,2.851,2.851,2.851,2.8655,2.8967,2.8967,2.9258,2.9917,3.0058,3.0501,3.1168,3.1316,3.1536,3.1865,3.1865,3.204,3.2389,3.1952,3.2649,3.3687,3.2821,3.2649,3.3079,3.342,3.359,3.3602,0.0,0.0,1.0651,1.1786,1.2904,1.3677,1.3747,1.4222,1.4641,0.0,1.4935,1.5426,1.6376,1.6904,1.7326,1.751,1.825,1.8527,1.8219,1.9078,1.9017,1.7812,1.7887,1.8001,1.8001,1.8385,1.869,1.8992,1.8062,1.8866,2.1346,2.1247,2.1979,2.3497,2.339,0.0,0.0,0.0,0.0,2.3368,2.5095,2.6118,0.0,0.0,2.7406,2.8065,2.7072,2.7469,2.8383,2.7945,2.6771,0.0,0.0,0.0,0.0,0.0,2.1993,0.0,0.0,0.0,0.0,0.0,2.1704,0.0,2.7023,2.7626,2.8439,0.0,3.3383,3.3289,3.3485,3.3524,3.3255,3.2782,3.2944,3.3122,3.3189,3.3154,3.3154,3.3154,3.3154,3.3154,3.3081,3.3081,3.2757,3.194,3.1153,3.0037,2.857,2.851,2.851,2.851,2.851,2.851,2.851,2.851,2.8853,2.9665,2.9713,3.0001,3.0586,3.0644,3.0487,3.0216,3.0216,3.0656,3.1359,3.0566,3.1258,3.2735,3.1789,3.1965,3.2722,3.2821,3.2809,3.2809,0.0,0.0,1.1935,1.258,1.3439,1.4173,1.4617,1.453,1.4577,1.4872,1.5426,1.6184,1.7285,1.7891,1.823,1.8307,1.9121,1.9327,1.8712,1.9078,1.9034,1.8224,1.8309,1.8485,1.8609,1.8076,1.7988,1.8516,1.8924,1.9648,2.086,2.2284,2.2867,2.2798,2.3065,0.0,0.0,0.0,0.0,2.415,2.5971,2.6042,2.5261,2.7668,2.8115,2.749,2.7222,2.7408,2.7656,2.6748,2.673,2.676,0.0,0.0,0.0,2.2609,0.0,0.0,0.0,0.0,0.0,0.0,2.1456,0.0,2.2636,2.2837,2.3485,0.0,2.6062,2.6307,2.7798,2.7723,2.7301,2.6713,2.801,3.0123,3.3173,3.3556,3.3556,3.3556,3.3556,3.3484,3.3154,3.3081,3.2757,3.194,3.0642,2.9484,2.8546,2.851,2.851,2.851,2.851,2.851,2.851,2.851,2.8823,2.9378,2.963,2.9984,3.0513,3.0772,3.0781,3.0487,3.0487,3.0487,3.0487,3.0306,3.0824,3.1789,3.0824,3.0566,3.0824,3.1613,3.1877,3.1877,0.0,1.0773,1.135,1.2206,1.2961,1.3576,1.3855,1.4214,1.4569,1.4864,1.5974,1.7001,1.792,1.8654,1.8895,1.8602,1.9189,1.9265,1.8521,1.886,1.869,1.7812,1.8243,1.8369,1.8284,1.8083,1.8185,1.8723,1.92,2.0008,2.1043,2.1749,2.1813,2.1331,2.2043,2.1922,0.0,0.0,2.3499,2.4374,2.5698,0.0,2.5565,2.7452,2.7904,2.7452,2.7357,2.7441,2.7672,2.7955,2.7081,0.0,2.5486,2.5143,2.4595,0.0,2.3347,2.3566,0.0,0.0,0.0,2.1423,2.1423,0.0,0.0,2.3162,2.3865,2.5855,2.6045,2.6099,2.6945,2.6679,2.6201,2.5542,2.6998,2.8537,2.9352,3.0871,3.2034,3.2465,3.2548,3.2631,3.2823,3.2823,3.2428,3.1367,3.0565,2.9736,2.8558,2.851,2.851,2.851,2.851,2.851,2.851,2.8775,2.909,2.9535,2.9891,3.0328,3.0761,3.0944,3.0871,3.0578,3.0578,3.0487,3.0216,3.0216,3.0476,3.0836,3.0397,3.0216,3.0216,3.0746,3.0925,3.0925,0.0,0.0,1.0792,1.1963,1.2587,1.3067,1.3263,1.4003,1.4713,1.5275,1.6374,1.7426,1.8063,1.89,1.9178,1.8476,1.9106,1.918,1.8354,1.872,1.8501,1.7444,1.8009,1.826,1.7926,1.8239,1.8645,1.9264,1.9447,2.0209,2.1502,2.1335,2.0906,2.0429,2.1374,2.1183,0.0,0.0,0.0,2.4211,0.0,2.5636,2.6379,2.7189,2.7536,2.7631,2.7536,2.7536,2.7861,2.9025,2.7232,2.4865,2.6186,2.5599,0.0,0.0,0.0,0.0,0.0,0.0,0.0,0.0,0.0,2.1876,0.0,0.0,0.0,2.6418,0.0,0.0,0.0,0.0,0.0,2.4268,0.0,0.0,0.0,2.6524,0.0,2.9921,3.0972,3.1576,3.1759,3.1785,3.1461,3.0649,3.0164,2.953,2.8534,2.851,2.851,2.851,2.851,2.851,2.851,2.9027,2.9486,2.9748,3.0358,3.0807,3.1151,3.1151,3.096,3.0758,3.0758,3.0578,3.0318,3.0306,3.0306,3.0306,3.0216,3.0216,3.0216,3.0216,3.0216,3.0216,1.1021,1.1369,0.0,1.3218,1.3292,1.3552,1.4561,1.4522,1.4982,1.6627,1.6591,1.6712,1.7534,1.8288,0.0,0.0,1.9653,2.0246,1.8645,1.9062,1.8873,1.7702,1.802,1.8405,1.8754,1.8394,1.8763,1.9802,1.9987,2.0726,2.2051,2.247,2.2286,2.1685,2.2352,0.0,0.0,0.0,2.3072,0.0,2.4224,2.5359,0.0,2.7845,2.8102,2.7998,2.7904,2.7904,2.7806,2.6918,2.6797,2.6678,0.0,2.5187,2.7179,2.2344,0.0,0.0,0.0,0.0,0.0,0.0,2.1423,2.1491,2.1713,0.0,2.1749,2.1456,0.0,2.1035,1.99,0.0,0.0,0.0,0.0,0.0,1.9292,2.1227,2.3403,2.5143,2.9235,3.11,2.8976,2.8812,2.9258,3.0511,2.82,2.7225,2.8414,2.851,2.851,2.851,2.851,2.851,2.851,2.9027,2.9569,3.0086,3.0627,3.1156,3.1584,3.1584,3.1484,3.1217,3.1217,3.1139,3.0883,3.0679,3.0566,3.0578,3.0306,3.0216,3.0216,3.0487,3.0397,3.0306,1.1911,1.2004,0.0,1.284,1.3123,1.3506,1.405,1.4722,1.5886,1.7668,1.7591,1.7686,0.0,0.0,0.0,0.0,0.0,1.907,0.0,0.0,1.8559,1.7761,1.8077,1.843,1.8612,1.8708,1.9072,1.9747,1.9792,2.0295,2.125,2.1479,2.0792,1.943,2.1112,0.0,1.9386,0.0,2.2742,0.0,0.0,2.4952,0.0,2.6888,2.7526,2.7809,2.7809,2.7715,2.7547,2.7144,2.6012,2.4992,0.0,0.0,0.0,2.3472,0.0,0.0,0.0,0.0,0.0,0.0,0.0,2.2418,2.1488,2.1277,2.121,2.0871,0.0,0.0,0.0,0.0,0.0,0.0,1.7749,1.8462,0.0,0.0,2.2213,2.369,2.5612,2.7077,2.7906,2.7667,2.8241,3.0292,2.7808,2.6904,2.8402,2.851,2.851,2.851,2.851,2.8655,2.8967,2.9496,2.9749,2.9734,3.025,3.0613,3.0824,3.0824,3.1015,3.1306,3.1306,3.1229,3.0972,3.0883,3.0871,3.0781,3.0691,3.0499,3.0216,3.0306,3.0397,3.0487,1.2691,0.0,0.0,0.0,1.3035,1.3413,1.3741,1.5206,1.6697,1.7871,1.8325,0.0,1.9341,1.8735,0.0,0.0,1.8665,1.8858,0.0,0.0,1.8291,1.7267,1.7768,1.8301,1.8743,1.8815,1.9093,1.9747,1.9543,1.9933,2.0764,2.0741,1.9946,1.8567,2.035,2.0288,1.9121,0.0,2.2226,2.3304,2.3861,2.394,2.4069,2.5908,2.704,2.7726,2.7631,2.7536,2.7389,2.719,2.569,2.4277,2.6401,2.5247,2.3352,0.0,0.0,0.0,2.2047,2.2467,2.2972,2.148,2.193,2.2399,2.1255,2.1082,2.1033,2.0686,2.0197,0.0,0.0,0.0,1.7161,1.6372,0.0,1.7231,0.0,1.8324,0.0,2.1258,2.1901,2.3503,2.6654,2.5788,2.6114,2.8783,2.6395,2.5752,2.7853,2.8099,2.8259,2.8259,2.8575,2.8919,2.9304,2.9702,2.9773,2.9424,2.9647,2.9795,2.9795,2.9795,3.026,3.1015,3.1015,3.1038,3.1151,3.1151,3.1062,3.1062,3.0984,3.0793,3.0408,3.0487,3.0578,3.0769,1.2821,1.2683,0.0,0.0,0.0,1.3526,1.4203,1.6026,0.0,0.0,0.0,0.0,0.0,0.0,0.0,0.0,0.0,2.0515,1.7234,0.0,1.8152,0.0,0.0,1.8055,0.0,1.8438,1.8609,2.0074,1.9468,1.9838,2.106,2.106,2.1037,2.0985,2.1086,2.0843,2.0511,2.1362,2.1741,2.1861,2.2625,2.2274,2.1599,2.5322,2.7315,2.7998,2.7726,2.7631,2.7432,2.6157,2.6044,2.6051,2.4252,2.5172,2.655,2.4209,2.5251,0.0,2.3007,2.2414,2.2333,2.0794,2.0474,2.0513,2.0435,2.0736,2.0736,1.9811,1.9952,1.9888,1.878,1.796,1.7085,1.6154,1.5498,0.0,0.0,1.609,1.627,1.623,1.8685,2.1532,2.4533,2.2188,2.1938,2.546,2.311,2.2968,2.6374,2.7185,2.7522,2.7522,2.8678,2.928,2.9304,2.9339,2.9401,2.9424,2.9001,2.8773,2.8773,2.8773,2.9326,3.026,3.026,3.0812,3.1661,3.1395,3.1306,3.1306,3.1062,3.0984,3.0972,3.1229,3.1139,3.1062,0.0,0.0,0.0,0.0,0.0,0.0,0.0,1.668,0.0,0.0,1.9053,0.0,0.0,1.9235,1.8835,0.0,0.0,1.888,1.7225,1.8259,0.0,0.0,0.0,1.7759,0.0,1.8593,1.8919,1.9659,1.9748,2.004,2.0453,2.0828,2.0583,2.0031,2.0839,2.0978,0.0,0.0,0.0,0.0,0.0,2.0689,2.191,2.249,2.3713,2.5063,2.6225,2.6965,2.7379,2.69,2.6288,2.5701,2.5982,2.5314,2.4592,2.4955,2.4982,2.4725,2.384,2.4406,2.4657,2.214,2.2274,2.2464,2.037,1.9978,1.9864,1.9081,1.9022,1.8678,1.7444,1.6947,0.0,1.5421,1.5051,1.5047,0.0,1.612,1.6437,1.6245,1.838,0.0,2.1693,2.139,2.2493,2.5797,2.4121,2.4131,2.685,2.6857,2.6922,2.7071,2.7408,2.7901,2.8372,2.8433,2.8214,2.7979,2.7766,2.7746,2.7746,2.7746,2.8215,2.9235,2.9886,2.9977,2.9795,3.0351,2.9988,2.9143,3.0091,3.0272,3.0,3.0769,3.1139,3.1229,1.2816,0.0,0.0,0.0,0.0,0.0,0.0,0.0,0.0,0.0,1.9777,0.0,2.006,0.0,1.9766,0.0,1.9742,1.8527,1.6916,1.8361,0.0,1.5765,1.7054,1.8291,0.0,0.0,1.9312,1.9871,1.9965,2.0009,2.0009,2.0388,2.0222,1.9597,2.0292,2.0666,2.0838,2.1113,2.1447,0.0,0.0,1.87,0.0,1.9481,2.0969,2.3639,2.5159,2.6187,2.687,2.687,2.6465,2.6146,2.6983,2.6072,2.478,2.599,2.5719,2.4905,2.4692,2.5292,2.5491,2.3144,2.3225,2.3213,2.0531,2.0025,1.9702,1.8145,1.7942,1.7769,1.6631,1.6293,1.5947,0.0,0.0,0.0,0.0,1.6151,1.6539,1.6539,1.7903,0.0,0.0,1.9949,2.1125,2.4249,2.3522,2.3663,2.5369,2.6229,2.6582,2.653,2.6966,2.7436,2.7869,2.7769,2.7543,2.7189,2.6829,2.6648,2.6648,2.6648,2.72,2.8215,2.8866,2.8958,2.8773,2.9418,2.905,2.8297,2.9039,2.9418,2.9624,3.0769,3.1318,3.1484,1.2798,0.0,0.0,0.0,1.4995,0.0,0.0,0.0,1.9071,0.0,2.0461,2.0883,2.0883,2.0391,2.0235,2.084,2.0875,1.9518,1.6354,1.8556,0.0,0.0,1.7804,1.9531,2.0532,0.0,0.0,0.0,2.0117,1.9868,1.9868,1.9868,1.9868,1.9868,1.9483,0.0,2.1129,2.0837,2.1338,2.1953,1.8036,1.6556,1.6581,1.6571,1.9363,2.3438,2.4488,2.5392,2.5994,2.5994,2.6582,2.7251,2.7251,2.7262,2.7262,2.7262,2.7262,2.6973,2.5501,2.5114,2.4829,2.3667,2.3397,2.2922,2.1019,2.0918,2.0311,1.7281,1.7198,1.7402,1.6559,1.6074,1.5833,0.0,0.0,0.0,1.5611,1.6051,1.6454,1.6863,1.7073,0.0,0.0,1.7987,1.8067,2.1027,2.1341,2.1701,2.2463,2.5179,2.6544,2.6145,2.719,2.7789,2.7822,2.7348,2.7094,2.7094,2.6197,2.5742,2.5742,2.5742,2.6187,2.7094,2.7189,2.7652,2.8484,2.8577,2.8484,2.8391,2.7913,2.8505,2.9669,3.1116,3.1661,3.1661,1.5518,1.5795,1.6196,0.0,1.7092,1.7457,0.0,0.0,0.0,0.0,1.8789,2.0857,2.0878,2.0751,2.0704,2.0937,2.0875,0.0,0.0,0.0,0.0,1.7725,1.8137,1.9022,2.0351,1.9589,1.9451,2.0018,1.9776,1.9671,1.9671,1.9539,1.9539,1.9671,1.9539,1.928,1.8898,1.8917,1.8634,1.7952,1.669,1.6775,1.7666,1.8229,1.9783,2.1825,2.3441,2.451,2.5197,2.5197,2.579,2.639,2.639,2.6774,2.7262,2.7262,2.7262,2.7253,2.6786,2.6754,2.6396,2.4955,2.457,2.4127,2.2542,2.2204,2.1919,2.0749,2.0836,2.0457,1.8167,1.7833,1.728,0.0,0.0,0.0,0.0,0.0,0.0,1.549,1.6151,1.6972,1.7682,1.8128,1.9492,2.204,2.1147,2.199,2.5552,2.446,2.4556,2.6156,2.6311,2.6433,2.6571,2.6224,2.61,2.61,2.583,2.5742,2.5742,2.5742,2.583,2.61,2.6446,2.634,2.5868,2.6214,2.5722,2.4767,2.5818,2.7348,2.9061,3.0193,3.0847,3.1038,1.7937,0.0,0.0,1.8046,0.0,0.0,1.8181,1.6789,0.0,1.3233,1.7554,0.0,2.0912,2.0917,2.0925,2.1138,2.0925,0.0,1.9084,0.0,0.0,1.877,1.9167,1.9778,2.05,1.9948,0.0,1.9995,1.969,1.9507,1.9483,1.9341,1.9351,1.9483,0.0,1.9325,1.902,1.9606,1.8795,1.7209,1.7485,1.8026,0.0,1.9141,2.0269,2.1847,2.2821,2.3728,2.443,2.5003,2.577,2.6515,2.6999,2.7319,2.7552,2.7552,2.7407,2.7262,2.7262,2.7357,2.7202,2.6351,2.6267,2.5892,2.4194,2.3796,2.3416,2.2093,2.2121,2.1745,1.9753,1.8945,1.7778,0.0,0.0,0.0,0.0,0.0,0.0,0.0,1.5856,1.6337,1.6918,1.7269,1.8436,2.0743,1.993,2.0281,2.2466,2.3003,2.3784,2.4804,2.4675,2.5075,2.6284,2.4982,2.4795,2.5917,2.5732,2.5742,2.5742,2.5742,2.5742,2.5732,2.5693,2.5401,2.4932,2.4894,2.4393,2.3728,2.4875,2.5818,2.6863,2.8308,2.9635,3.0589,1.939,0.0,0.0,0.0,0.0,0.0,0.0,1.78,0.0,1.2493,0.0,2.0717,2.1041,2.1007,2.113,2.1452,2.1035,2.04,1.9824,2.0027,1.9928,1.9331,2.0197,2.0774,2.0764,2.0583,2.0365,0.0,1.9737,1.9374,1.9274,1.9274,1.9274,1.9274,0.0,0.0,0.0,2.0583,1.972,1.7908,1.9016,1.9478,1.9504,1.9749,2.1028,2.2644,2.2644,2.3046,2.3682,2.482,2.5752,2.6537,2.7602,2.7897,2.7719,2.7657,2.7507,2.743,2.7367,2.7441,2.7631,2.7631,2.7809,2.7547,2.5945,2.5561,2.5043,2.301,2.2717,2.2546,2.1541,1.9709,1.7652,0.0,0.0,1.5389,0.0,0.0,0.0,0.0,1.6111,0.0,1.6731,1.6032,1.6431,1.8622,1.8182,1.7843,1.7947,2.1543,2.3577,2.3665,2.3533,2.4335,2.6054,2.4088,2.391,2.5674,2.5692,2.5732,2.5742,2.5742,2.5742,2.5645,2.5039,2.4833,2.4735,2.4134,2.3926,2.3935,2.4402,2.4393,2.4285,2.6118,2.8038,2.984,1.7525,0.0,0.0,0.0,0.0,1.8723,1.9578,1.8299,1.7204,1.7145,1.8152,1.9645,2.1561,2.1618,2.1623,2.1632,2.153,0.0,0.0,0.0,0.0,2.0572,1.9941,1.9968,2.0829,2.0401,2.0068,2.0063,1.9923,1.962,1.9142,1.9142,1.9142,0.0,0.0,0.0,1.8175,1.7135,0.0,1.6867,1.8556,1.9284,1.9647,2.1071,2.2053,2.2644,2.2644,2.2644,2.2854,2.3016,2.3636,2.4244,2.4507,2.5718,2.6883,2.6513,2.7196,2.8028,2.7641,2.7726,2.7904,2.7904,2.7998,2.7881,2.7569,2.7473,2.7355,2.7029,2.6943,2.6302,2.4133,2.0245,1.7202,1.648,1.7021,1.7867,1.8844,0.0,0.0,0.0,0.0,1.7392,1.6252,1.5546,1.6298,1.908,1.6689,1.7435,2.2812,2.1997,2.2929,2.6445,2.6309,2.5513,2.4039,2.5199,2.4924,2.3357,2.5154,2.5917,2.5742,2.5742,2.5742,2.5645,2.4637,2.4233,2.4134,2.3238,2.2846,2.2846,2.2946,2.342,2.4187,2.4473,2.5925,2.7851,0.0,0.0,0.0,0.0,0.0,0.0,0.0,1.936,1.9149,1.8988,1.9042,1.9537,2.0624,2.1279,2.1725,2.1928,2.142,2.1224,2.153,2.0506,2.0205,2.0917,2.0094,1.999,2.0498,2.0192,1.9903,1.963,1.9561,1.943,1.9075,1.9075,1.9075,1.8972,0.0,1.9108,0.0,1.8701,1.8813,1.897,2.0314,2.0992,2.1198,2.1994,2.2443,2.2644,2.2644,2.2644,2.2679,2.3274,2.3741,2.4171,2.4886,2.5396,2.6016,2.6506,2.683,2.7136,2.7715,2.7998,2.8196,2.8196,2.8279,2.8373,2.8373,2.8373,2.8373,2.8373,2.8373,2.759,2.4978,2.1263,1.8632,1.8655,1.8059,1.8092,1.9694,2.0466,2.0303,0.0,0.0,0.0,1.7161,1.5672,1.5464,1.7284,1.5595,1.6288,2.0407,2.0744,2.2234,2.5399,2.5334,2.5276,2.5447,2.5086,2.4826,2.4937,2.57,2.6004,2.5917,2.543,2.544,2.5635,2.4233,2.3827,2.4035,2.3046,2.2644,2.2644,2.2644,2.2937,2.342,2.3899,2.5061,2.6607,0.0,1.7986,0.0,0.0,1.8906,1.901,1.9521,2.0443,2.0821,2.0071,2.0102,2.0102,2.0017,2.104,2.1725,2.1827,2.1121,2.0822,2.1318,2.0189,1.9791,2.0506,2.0197,1.9879,1.9879,2.0086,1.9768,1.9191,1.9135,1.9054,1.8995,1.8745,1.8602,1.8636,1.9232,1.9554,1.9714,2.1004,2.1362,2.1229,2.2055,2.2443,2.2552,2.2443,2.2443,2.2544,2.2443,2.2443,2.2578,2.3604,2.3877,2.4032,2.5053,2.5011,2.4827,2.583,2.5882,2.5862,2.6868,2.7577,2.8046,2.8046,2.8402,2.8757,2.8757,2.8757,2.8757,2.8757,2.8593,2.7655,2.4741,2.2218,2.0415,2.0164,1.9115,1.8833,2.0128,2.0935,2.115,0.0,0.0,0.0,1.8566,1.6041,1.4755,1.5823,1.5502,1.6036,1.7861,1.9702,2.1627,2.3805,2.3784,2.4402,2.5792,2.4723,2.4791,2.6186,2.6275,2.6197,2.6197,2.5421,2.5226,2.5528,2.4026,2.3538,2.3737,2.2946,2.2644,2.2644,2.2644,2.2644,2.2745,2.3511,2.4482,2.545,0.0,0.0,0.0,0.0,0.0,1.8687,2.0454,2.1195,2.1473,2.114,2.1519,2.182,2.1519,2.1643,2.1522,2.1019,2.0925,2.0712,2.0285,2.0086,1.9887,1.9487,1.9376,1.9376,1.9376,1.9879,1.983,1.9153,1.8999,1.8868,1.873,1.7624,1.744,1.8105,1.8632,1.9297,1.9979,2.072,2.1222,2.1628,2.1769,2.2139,2.2544,2.203,2.2131,2.2544,2.1928,2.1827,2.1785,2.2102,2.2197,2.2206,2.2339,2.2877,2.3432,2.3094,2.3956,2.4866,2.4619,2.5643,2.6785,2.6785,2.7761,2.8757,2.8757,2.8757,2.8757,2.8757,2.8058,2.6562,2.3667,2.2739,2.1583,1.923,2.1029,2.2396,2.1541,2.4395,2.5427,2.2391,0.0,0.0,2.0198,1.6693,1.5088,1.6809,1.7126,1.8169,2.0323,2.0281,2.1282,2.3618,2.3867,2.2967,2.0956,2.4887,2.5919,2.387,2.5828,2.6699,2.64,2.5897,2.5499,2.5294,2.4125,2.3338,2.2745,2.2644,2.2644,2.2644,2.2644,2.2644,2.2644,2.2745,2.342,2.4285,0.0,0.0,1.8153,1.9046,1.9121,1.9183,1.9854,2.0545,2.0917,2.0822,2.1121,2.1326,2.1224,2.1224,2.1121,2.0925,2.0609,2.0292,2.0078,1.9776,1.948,1.9279,1.9279,1.9279,1.9279,1.9472,1.9482,1.9209,1.8702,1.8368,1.8243,1.7784,1.7965,1.8698,1.9162,1.96,2.0091,2.097,2.152,2.1725,2.1725,2.1827,2.203,2.1428,2.1326,2.153,2.1326,2.1326,2.1505,2.1568,2.157,2.1542,2.1616,2.1778,2.1993,2.2614,2.3131,2.354,2.4171,2.5532,2.6465,2.5522,2.6455,2.7292,2.6444,2.6877,2.7384,2.7098,2.6993,2.6551,2.5393,2.3743,2.265,2.2787,2.2698,2.2927,2.3626,2.4934,0.0,2.2307,0.0,1.935,1.9479,1.5925,1.4429,1.6342,1.5751,1.6233,1.8395,1.9396,2.0461,2.168,2.4198,2.4529,2.2354,2.5668,2.6619,2.528,2.6074,2.64,2.6197,2.5206,2.4421,2.3926,2.3728,2.3238,2.2644,2.2644,2.2644,2.2644,2.2644,2.2644,2.2644,2.2644,2.322,2.4088,1.9239,1.865,1.863,1.9407,1.9344,1.9336,1.9706,2.0205,2.0514,2.0308,2.0411,2.0609,2.0719,2.0712,2.0609,2.0411,2.0197,1.9983,1.9983,1.968,1.9583,1.9583,1.9583,1.9583,1.9583,1.9583,1.943,1.9392,1.8632,1.8197,1.8228,1.7974,1.8243,1.8935,1.9358,1.9582,1.982,2.0785,2.1216,2.1216,2.1216,2.1318,2.142,2.0917,2.0712,2.0925,2.0712,2.0814,2.0995,2.1095,2.0994,2.0834,2.1273,2.1145,2.0968,2.1946,2.2075,2.207,2.3035,2.4316,2.5257,2.468,2.5237,2.5931,2.5778,2.59,2.5911,2.574,2.6213,2.6583,2.6441,2.4807,2.3744,2.4523,2.3762,2.3382,2.4132,2.4775,2.4339,2.1998,1.9908,1.889,1.9505,1.5911,1.4591,1.7102,1.5782,1.5695,1.7554,1.8799,1.9941,2.0927,2.3857,2.4757,2.331,2.5673,2.6676,2.6305,2.6031,2.5994,2.5897,2.4716,2.3737,2.3046,2.3238,2.3038,2.2644,2.2644,2.2644,2.2644,2.2644,2.2644,2.2644,2.2644,2.3029,2.3701,2.0815,1.8762,1.7776,2.0123,1.928,1.8907,2.0655,2.0925,2.0609,1.9783,1.968,1.9887,2.0418,2.03,1.9879,1.9383,1.9576,1.968,1.968,1.9983,2.0078,2.0078,2.0078,2.0078,2.0078,2.0078,1.9975,1.9657,1.886,1.8565,1.8732,1.7951,1.7785,1.8089,1.8663,1.9034,1.9361,1.9872,2.0078,2.0078,2.0078,2.0395,2.0814,2.0292,2.0395,2.0822,2.0292,2.0086,2.0238,2.0604,2.0384,2.0084,2.0899,2.0949,2.057,2.0515,2.0508,2.0517,2.0412,2.139,2.2777,2.4166,2.4539,2.5237,2.8125,2.6578,2.4705,2.5098,2.5913,2.6485,2.5994,2.5717,2.4843,2.2665,2.3917,2.4452,2.2316,2.4252,2.4767,2.185,2.0443,2.014,2.098,1.7116,1.6114,1.988,1.8457,1.7997,1.9187,1.8835,1.9723,2.222,2.26,2.2621,2.2343,2.4682,2.5832,2.5842,2.5786,2.5693,2.5693,2.4618,2.3737,2.2946,2.2745,2.2653,2.2644,2.2644,2.2644,2.2644,2.2644,2.2644,2.2644,2.2644,2.2653,2.2644,2.1197,2.0313,1.9933,1.9941,1.9853,1.9883,2.0318,2.0514,2.0514,2.0308,2.0094,2.0086,2.0411,2.0094,1.9879,1.9879,1.9783,1.9783,1.9983,1.9879,1.9879,2.0078,2.0078,2.0078,2.0078,2.0078,1.9983,1.968,1.8882,1.8426,1.8312,1.8087,1.8251,1.8912,1.9115,1.9184,1.9376,1.9879,2.0078,2.0078,2.0078,2.0181,2.0292,1.9783,1.9687,1.9791,1.9783,1.9983,2.0166,2.0264,2.0437,2.0546,2.0656,2.0651,2.0627,2.0608,2.0305,1.9997,2.0348,2.1856,2.3306,2.3164,2.4569,2.5767,2.47,2.3453,2.3099,2.4876,2.5204,2.5114,2.4967,2.538,2.5572,2.4729,2.5063,2.5206,2.4546,2.3606,2.2177,1.9922,1.773,1.6835,1.8016,1.612,1.5695,1.785,1.6733,1.6668,1.816,1.9758,2.0473,2.0102,2.2302,2.3066,2.2343,2.4007,2.5036,2.5238,2.5185,2.4929,2.443,2.4233,2.3737,2.3046,2.2946,2.2745,2.2644,2.2644,2.2644,2.2644,2.2644,2.2644,2.2644,2.2644,2.2644,2.2644,2.2588,2.1689,2.1027,2.0558,2.0385,2.0197,2.0086,2.0189,2.0308,2.0308,2.0189,2.0189,2.0522,2.0205,1.999,2.0086,2.0094,2.0094,2.0197,2.0197,2.0197,2.0395,2.0395,2.0395,2.0395,2.0395,2.0292,1.9998,1.9353,1.895,1.857,1.8662,1.8895,1.9279,1.9279,1.9279,1.9272,1.968,1.9776,1.9776,1.9776,1.9776,1.9783,1.948,1.9279,1.9272,1.948,1.968,1.9983,2.0086,2.0292,2.0609,2.0617,2.0623,2.0539,2.0606,2.0208,1.99,2.0354,2.1366,2.2217,2.2419,2.3395,2.3794,2.2017,2.2087,2.2837,2.4193,2.4436,2.4584,2.485,2.538,2.5728,2.5654,2.5559,2.5341,2.4443,2.2951,2.1048,1.896,1.7129,1.6571,1.7846,1.6901,1.6747,1.8128,1.7618,1.7631,1.8595,1.9467,1.9962,2.0033,2.1805,2.2621,2.2337,2.3044,2.3734,2.4291,2.4231,2.4031,2.3646,2.3646,2.3338,2.2846,2.2846,2.2745,2.2644,2.2644,2.2644,2.2644,2.2644,2.2644,2.2644,2.2644,2.2644,2.2644,2.4767,2.2792,2.1234,2.1779,2.0724,1.9776,2.0078,2.0078,2.0078,2.0078,2.0086,2.0189,2.0522,2.0522,2.0411,2.0189,2.0403,2.0522,2.0522,2.0719,2.0925,2.0925,2.0925,2.0925,2.0925,2.0925,2.0719,2.0522,2.0197,1.9879,1.9376,1.9576,1.9576,1.9279,1.9272,1.9272,1.9279,1.9279,1.9279,1.9279,1.9279,1.9279,1.9279,1.9279,1.9279,1.9279,1.9272,1.948,1.9783,1.9983,2.0078,2.0292,2.0712,2.0719,2.0562,2.0752,2.0375,1.9894,2.0351,2.007,2.002,2.1843,2.1298,2.0417,2.0408,2.2097,2.3405,2.2998,2.3617,2.4498,2.5211,2.538,2.5464,2.5475,2.543,2.4627,2.2557,2.2099,2.1083,1.8693,1.8179,1.8503,1.9648,1.888,1.8816,2.0047,2.0185,2.0185,2.0095,1.8161,1.8452,2.1585,2.1132,2.1302,2.2306,2.1789,2.1998,2.2966,2.2926,2.3126,2.3311,2.3103,2.282,2.2644,2.2644,2.2644,2.2644,2.2644,2.2644,2.2644,2.2644,2.2644,2.2644,2.2644,2.2644,2.2644,2.4923,2.3834,2.2774,2.2037,2.082,1.9983,2.0078,2.0078,2.0078,2.0078,2.03,2.0411,2.0522,2.0719,2.0814,2.0712,2.0617,2.0624,2.0822,2.0719,2.0719,2.0917,2.0925,2.0925,2.0925,2.0925,2.0719,2.0522,2.0197,1.9983,1.9576,1.9879,1.9776,1.9279,1.9472,1.948,1.9279,1.9279,1.9279,1.9279,1.9279,1.9279,1.9279,1.9279,1.9279,1.9383,1.9576,1.9783,1.9983,2.0078,2.0395,2.0712,2.0617,2.0719,2.0806,2.0829,2.0161,1.9372,1.987,2.0042,2.0213,2.1032,2.1283,2.1405,2.1735,2.1427,2.1194,2.1427,2.1667,2.2022,2.257,2.3337,2.4029,2.4413,2.3551,2.267,2.211,2.0022,1.815,1.7346,1.6597,1.6566,1.7628,1.8122,1.8285,1.8162,1.8868,1.895,1.8213,1.7296,1.831,2.163,2.0494,2.0494,2.1872,2.096,2.1345,2.2957,2.2061,2.2021,2.2895,2.2609,2.2469,2.2644,2.2644,2.2644,2.2644,2.2644,2.2644,2.2644,2.2644,2.2644,2.2644,2.2644,2.2644,2.2644,2.6161,2.466,2.3229,2.2888,2.1138,1.9783,1.9783,1.9783,1.9783,1.9879,1.999,2.0197,2.03,2.0514,2.0719,2.0498,2.0617,2.0719,2.0917,2.0719,2.0719,2.0917,2.0925,2.0925,2.0925,2.0925,2.0719,2.0522,2.0506,2.0292,1.9879,2.0197,2.0094,1.9687,1.9941,2.0009,1.9702,1.9807,1.9807,1.9687,1.9636,1.968,1.968,1.968,1.968,1.968,1.968,1.9879,2.0078,2.0078,2.0292,2.0498,2.0617,2.0719,2.0688,2.0531,1.9806,1.9161,1.9388,1.936,1.9354,1.981,2.0189,2.0465,2.0615,2.0129,1.982,2.0512,2.0863,2.1132,2.1756,2.2629,2.324,2.3163,2.2257,2.1408,2.102,1.8771,1.7416,1.8299,1.7505,1.7302,1.8537,1.9042,1.897,1.8185,1.8615,1.8615,1.7849,1.7502,1.8194,2.0042,1.8872,1.8772,2.0051,2.015,2.0893,2.2034,2.1693,2.1916,2.2601,2.239,2.2386,2.2494,2.2576,2.2644,2.2644,2.2644,2.2644,2.2644,2.2644,2.2644,2.2644,2.2644,2.2644,2.2644,2.7519,2.5307,2.3341,2.3685,2.1257,1.9279,1.9279,1.9279,1.9376,1.9576,1.968,1.9783,1.9975,2.03,2.0308,2.0086,2.0498,2.0814,2.0814,2.0822,2.0822,2.0822,2.0822,2.0822,2.0925,2.0925,2.0719,2.0522,2.0719,2.0609,2.0189,2.0411,2.0434,2.017,2.0406,2.0438,2.0272,2.0431,2.0408,2.0182,2.0097,2.0078,2.0078,2.0078,2.0078,1.9983,1.9783,1.9887,2.0086,2.0086,2.0078,2.0292,2.0712,2.0719,2.0444,2.0039,1.9521,1.9025,1.8962,1.8433,1.8079,1.845,1.8643,1.8643,1.8542,1.8735,1.9004,1.9695,2.0232,2.0773,2.1382,2.2003,2.229,2.1668,2.0703,1.9855,1.937,1.7639,1.7176,1.9238,1.8761,1.8789,1.9979,1.9968,1.953,1.8643,1.8542,1.8365,1.7994,1.7893,1.7893,1.7893,1.7052,1.7044,1.7956,1.9155,2.0137,2.0847,2.1208,2.1799,2.2398,2.2337,2.2258,2.229,2.252,2.2593,2.2644,2.2644,2.2644,2.2644,2.2644,2.2644,2.2644,2.2644,2.2644,2.2644,2.7637,2.5555,2.3676,2.3737,2.1257,1.9279,1.9279,1.9279,1.9272,1.9376,1.9576,1.968,1.9783,1.9983,2.0189,2.0078,2.0403,2.0514,2.0292,2.0411,2.0522,2.0522,2.0522,2.0617,2.0925,2.0925,2.0719,2.0522,2.0719,2.0719,2.0411,2.0719,2.0765,2.0498,2.0485,2.0539,2.0469,2.0284,2.0162,2.0155,2.0101,2.0078,2.0078,2.0078,1.9983,1.9783,1.968,1.968,1.9776,1.9983,2.0292,2.0514,2.0822,2.0917,2.0594,1.9552,1.914,1.9025,1.8474,1.7851,1.7426,1.7512,1.7893,1.8087,1.7613,1.8172,1.8735,1.845,1.8442,1.8719,1.9171,1.9513,1.9707,1.9598,1.758,1.6288,1.6967,1.5402,1.4723,1.6068,1.7126,1.7857,1.7848,1.7785,1.7699,1.7512,1.752,1.7512,1.7419,1.7052,1.6864,1.6864,1.6683,1.6864,1.7419,1.7232,1.8265,2.0343,1.9612,2.0264,2.1958,2.1928,2.2132,2.2273,2.2334,2.2443,2.2644,2.2644,2.2644,2.2644,2.2644,2.2644,2.2644,2.2644,2.2644,2.2644,2.7959,2.6356,2.473,2.3894,2.1925,2.0188,1.9405,1.9279,1.9279,1.9279,1.9376,1.948,1.948,1.968,1.9783,1.968,1.9887,1.999,1.9879,2.0403,2.0719,2.0719,2.0719,2.0822,2.0925,2.0925,2.0822,2.0719,2.1012,2.1107,2.1003,2.1107,2.1081,2.1012,2.0969,2.088,2.0801,2.0849,2.0682,2.0562,2.0576,2.0506,2.0506,2.0506,2.0403,2.03,2.0197,2.0101,2.0101,2.03,2.0411,2.0522,2.0822,2.0688,2.0241,1.9345,1.8641,1.803,1.7779,1.7537,1.7326,1.7326,1.752,1.7613,1.7333,1.7707,1.7893,1.7707,1.79,1.8179,1.8365,1.8719,1.8604,1.7664,1.6564,1.5934,1.6606,1.5563,1.5344,1.7079,1.7394,1.7419,1.7326,1.7326,1.7326,1.7326,1.7326,1.7239,1.6958,1.6676,1.6494,1.6211,1.6204,1.6298,1.648,1.6669,1.7311,1.8503,1.8972,1.9712,2.0623,2.1208,2.1608,2.1683,2.2002,2.2189,2.227,2.2466,2.2644,2.2644,2.2644,2.2644,2.2644,2.2644,2.2644,2.2644,2.8232,2.7072,2.5581,2.4026,2.2476,2.0969,1.9524,1.9279,1.9279,1.9279,1.9279,1.9279,1.9279,1.948,1.948,1.9272,1.9583,1.968,1.9783,2.0403,2.0822,2.0822,2.0822,2.0814,2.0712,2.0814,2.0956,2.0933,2.113,2.137,2.1449,2.137,2.1217,2.1008,2.1217,2.0969,2.0376,2.0977,2.0969,2.057,2.0798,2.0925,2.0925,2.0925,2.0822,2.0822,2.0617,2.0411,2.0411,2.0522,2.0522,2.0506,2.0625,2.0413,1.9814,1.9102,1.817,1.7347,1.7421,1.7443,1.7443,1.7443,1.7384,1.7326,1.7326,1.7326,1.7326,1.7326,1.7613,1.7893,1.7893,1.8172,1.7998,1.6529,1.602,1.5937,1.6472,1.5709,1.583,1.7888,1.7397,1.6951,1.6951,1.6951,1.6951,1.6951,1.6951,1.677,1.6393,1.6393,1.6204,1.573,1.5737,1.5737,1.573,1.6285,1.6655,1.6835,1.8133,1.8964,1.9255,2.0105,2.067,2.0984,2.1369,2.1727,2.2021,2.2395,2.2567,2.2644,2.2644,2.2644,2.2644,2.2644,2.2644,2.2653,2.8281,2.7072,2.5581,2.4026,2.2476,2.0969,1.9524,1.9279,1.9279,1.9279,1.9279,1.9279,1.9279,1.9272,1.9272,1.9279,1.9583,1.9783,2.0078,2.0403,2.0522,2.0522,2.0719,2.0712,2.0181,2.0609,2.0972,2.0965,2.0996,2.1131,2.1441,2.1115,2.0537,1.9902,2.064,1.9949,1.8447,2.02,2.0366,1.9494,2.0491,2.0925,2.0925,2.0925,2.0719,2.0522,2.0522,2.03,2.0189,2.0411,2.0522,2.0467,2.014,2.0023,1.9768,1.861,1.7786,1.7391,1.7699,1.7779,1.7779,1.7779,1.7552,1.7326,1.7326,1.7326,1.7326,1.7326,1.7326,1.7333,1.7333,1.7426,1.7266,1.6664,1.5412,1.4821,1.5772,1.4698,1.441,1.5837,1.592,1.5927,1.5927,1.5927,1.5927,1.5927,1.5927,1.592,1.5832,1.5832,1.573,1.554,1.573,1.573,1.554,1.554,1.5906,1.6539,1.6633,1.7375,1.8488,1.8334,1.8909,2.0193,2.0226,2.0929,2.1996,2.2209,2.2425,2.2644,2.2644,2.2644,2.2644,2.2644,2.2644,2.2644,2.8008,2.755,2.667,2.5098,2.3671,2.2173,2.0708,1.9698,1.9182,1.9182,1.9182,1.9182,1.9182,1.9182,1.9265,1.9475,1.9592,1.988,2.0292,2.0411,2.0617,2.0719,2.0822,2.0814,2.0609,2.0814,2.0877,2.09,2.1099,2.1322,2.1449,2.1314,2.0708,1.9753,1.9872,1.9085,1.7867,1.8383,1.8361,1.8082,1.9224,1.9671,1.9796,2.0633,2.0822,2.0719,2.0719,2.0712,2.0609,2.0712,2.0719,2.0656,2.0109,1.9752,1.9292,1.8238,1.7963,1.7962,1.8086,1.7823,1.7516,1.7516,1.7421,1.7326,1.7326,1.7326,1.7326,1.7326,1.7326,1.7326,1.7326,1.7326,1.6901,1.5767,1.5691,1.5553,1.4973,1.4967,1.5198,1.5725,1.5832,1.5832,1.5832,1.5832,1.5832,1.5832,1.5832,1.5832,1.5832,1.5635,1.5547,1.5267,1.5363,1.5363,1.5267,1.507,1.5159,1.5432,1.5893,1.6351,1.6821,1.7289,1.783,1.8341,1.865,1.9494,2.0744,2.1073,2.1886,2.2846,2.2846,2.2946,2.3046,2.2946,2.2946,2.3046,2.7814,2.7814,2.7211,2.5205,2.4081,2.2737,2.0859,1.9724,1.9102,1.9102,1.9102,1.9102,1.9102,1.9102,1.9193,1.943,1.9445,1.9691,2.0335,2.0349,2.0506,2.0609,2.0814,2.0814,2.0609,2.0814,2.0972,2.1091,2.1219,2.1338,2.1336,2.0914,2.0197,1.9132,1.8817,1.7882,1.6426,1.6997,1.6919,1.6659,1.7774,1.8477,1.8999,1.9944,2.0515,2.0925,2.0925,2.0925,2.0925,2.0925,2.0925,2.0743,2.0077,1.9406,1.8724,1.8103,1.8057,1.8145,1.8145,1.7743,1.7355,1.7457,1.7406,1.7326,1.7326,1.7326,1.7326,1.7326,1.7326,1.7326,1.7326,1.7239,1.6863,1.5812,1.6127,1.612,1.5079,1.5396,1.5832,1.5832,1.5832,1.5832,1.5832,1.5832,1.5832,1.5832,1.5832,1.5737,1.573,1.5547,1.5261,1.4987,1.4981,1.4885,1.4885,1.479,1.4688,1.4592,1.5051,1.533,1.552,1.6075,1.6546,1.6936,1.7253,1.8097,1.9307,1.9756,2.0907,2.2364,2.2383,2.2636,2.2837,2.2535,2.2316,2.2207,2.7804,2.7804,2.6901,2.3945,2.3402,2.2443,1.9587,1.9094,1.9094,1.9094,1.9094,1.9094,1.9094,1.9094,1.9094,1.9094,1.9094,1.9338,1.9976,2.0107,2.0078,2.0086,2.0609,2.0609,2.0086,2.0609,2.1091,2.1449,2.1091,2.1099,2.1328,1.991,1.8706,1.7584,1.7584,1.6163,1.4057,1.6229,1.6401,1.5287,1.6361,1.7666,1.8861,1.8868,1.9687,2.0917,2.0925,2.0925,2.0925,2.0925,2.0925,2.0688,1.9795,1.8865,1.8186,1.8309,1.8072,1.7816,1.7816,1.7574,1.7406,1.7728,1.7567,1.7326,1.7326,1.7326,1.7326,1.7326,1.7326,1.7326,1.7326,1.7153,1.6979,1.6979,1.6508,1.6218,1.6197,1.6015,1.5832,1.5832,1.5832,1.5832,1.5832,1.5832,1.5832,1.5832,1.5832,1.573,1.554,1.5267,1.4981,1.4694,1.4688,1.4592,1.4298,1.4592,1.4592,1.4298,1.4298,1.44,1.4688,1.4394,1.4962,1.619,1.617,1.6816,1.7912,1.8409,1.9527,2.0899,2.1148,2.1497,2.1615,2.1395,2.0562,1.9834,2.7472,2.7472,2.7186,2.6314,2.4497,2.279,2.1986,2.019,1.8863,1.8863,1.8863,1.8863,1.8863,1.8863,1.8957,1.9311,1.9335,1.9384,1.9668,1.9603,1.9368,1.8945,1.9879,2.0292,2.0078,2.0609,2.0972,2.1084,2.0972,2.0972,2.1068,1.9804,1.8706,1.7577,1.667,1.5303,1.3943,1.4169,1.409,1.3854,1.498,1.563,1.6242,1.8182,1.913,1.9664,2.0523,2.0925,2.0925,2.0925,2.075,2.0371,1.9527,1.8776,1.8186,1.8309,1.8072,1.7816,1.7816,1.7574,1.7355,1.745,1.7399,1.7326,1.7326,1.7326,1.7326,1.7326,1.7326,1.7239,1.716,1.7066,1.6885,1.6508,1.6319,1.6123,1.592,1.5825,1.5832,1.5832,1.5832,1.5832,1.5832,1.5832,1.573,1.5635,1.5458,1.5172,1.4975,1.4885,1.4688,1.4394,1.4394,1.4394,1.4298,1.4394,1.4394,1.4298,1.4298,1.4298,1.4394,1.4298,1.4484,1.4867,1.486,1.5588,1.6856,1.7154,1.8246,1.9683,2.002,2.0246,2.0451,2.0246,2.004,1.993,2.7357,2.7262,2.7105,2.654,2.5,2.3495,2.2321,2.0763,1.9434,1.8843,1.8827,1.8827,1.8827,1.8827,1.8915,1.9137,1.9217,1.9221,1.9257,1.9302,1.9063,1.8422,1.9457,1.9983,1.9783,2.0506,2.0925,2.0925,2.0925,2.0925,2.0909,1.9194,1.8067,1.7357,1.5582,1.4358,1.3539,1.3249,1.305,1.3061,1.3688,1.4288,1.5011,1.7268,1.8448,1.9115,2.0381,2.0925,2.0925,2.0925,2.0591,2.0071,1.9521,1.8882,1.8378,1.8309,1.8072,1.7786,1.7655,1.7479,1.7326,1.7326,1.7326,1.7326,1.7326,1.7326,1.7326,1.7326,1.7326,1.7239,1.7073,1.6878,1.669,1.6319,1.6123,1.6028,1.5825,1.5832,1.5832,1.5832,1.5832,1.5832,1.5832,1.5832,1.5737,1.554,1.5172,1.4885,1.4694,1.4592,1.4496,1.4298,1.4298,1.4298,1.4298,1.4298,1.4298,1.4298,1.4298,1.4298,1.4298,1.4298,1.4298,1.4298,1.4298,1.4768,1.5628,1.5931,1.6988,1.8491,1.8839,1.9109,1.931,1.9117,1.8805,1.8596,2.7452,2.7262,2.6927,2.565,2.5134,2.4145,2.152,2.0823,2.0213,1.896,1.8759,1.8767,1.8827,1.8827,1.8751,1.8775,1.8839,1.8858,1.8658,1.8986,1.8959,1.8422,1.9457,1.9879,1.9376,2.0411,2.0925,2.0925,2.0925,2.0925,2.0806,1.8369,1.7165,1.7038,1.4625,1.3346,1.3147,1.305,1.2953,1.2764,1.2764,1.3562,1.4765,1.613,1.7531,1.8868,2.0233,2.079,2.0909,2.0845,2.0377,1.9779,1.9614,1.9071,1.8517,1.8265,1.8028,1.7706,1.7406,1.7326,1.7326,1.7326,1.7326,1.7326,1.7326,1.7326,1.7326,1.7326,1.7333,1.7239,1.6979,1.6784,1.6494,1.6224,1.5927,1.5832,1.5832,1.5832,1.5832,1.5832,1.5737,1.5737,1.5832,1.5737,1.5642,1.5445,1.4975,1.4688,1.4688,1.4394,1.4298,1.4298,1.4298,1.4298,1.4298,1.4298,1.4298,1.4298,1.4298,1.4298,1.4298,1.4298,1.4298,1.4298,1.4298,1.4298,1.434,1.4883,1.5897,1.7134,1.7639,1.7982,1.8178,1.7877,1.7153,1.6424,2.7452,2.7262,2.7231,2.6927,2.498,2.3251,2.2599,2.0523,1.902,1.8783,1.8684,1.8652,1.8767,1.8827,1.8753,1.8548,1.8291,1.8086,1.8055,1.8358,1.8527,1.8422,1.9457,2.0086,1.9879,2.0609,2.0925,2.0925,2.0925,2.0925,2.0806,1.8369,1.7165,1.7038,1.4424,1.3147,1.305,1.2958,1.2861,1.2764,1.2764,1.2986,1.3344,1.4759,1.6117,1.7424,1.8853,1.9967,2.0837,2.0281,1.982,1.9399,1.8982,1.8529,1.8168,1.7927,1.7691,1.7421,1.7347,1.7326,1.7326,1.7326,1.7326,1.7326,1.7326,1.7326,1.7326,1.7326,1.7153,1.6972,1.6777,1.6501,1.6218,1.5927,1.5832,1.5832,1.5832,1.5832,1.5832,1.5832,1.5642,1.5635,1.5737,1.5458,1.5267,1.5178,1.4688,1.4394,1.4394,1.4298,1.4298,1.4298,1.4298,1.4298,1.4298,1.4298,1.4298,1.4298,1.4298,1.4298,1.4298,1.4298,1.4298,1.4298,1.4298,1.4394,1.4635,1.4989,1.5398,1.5941,1.6199,1.6411,1.6411,1.6418,1.6205,1.6205,2.8019,2.7547,2.7262,2.7262,2.6084,2.4837,2.4164,2.2704,2.1234,1.9953,1.967,1.9343,1.8715,1.8699,1.8514,1.8225,1.7973,1.8016,1.817,1.8331,1.8527,1.8848,1.9672,2.0078,2.0078,2.0609,2.0925,2.0925,2.0925,2.0925,2.0798,1.8268,1.698,1.6853,1.4137,1.2958,1.2953,1.2861,1.2764,1.2764,1.2764,1.2764,1.298,1.4282,1.5251,1.613,1.8189,1.9697,2.0583,2.0043,1.9646,1.9281,1.8789,1.8361,1.8054,1.7816,1.7582,1.7326,1.7326,1.7326,1.7326,1.7326,1.7326,1.7326,1.7326,1.7326,1.7326,1.7326,1.716,1.6885,1.6683,1.6407,1.6123,1.5832,1.5832,1.5832,1.5832,1.5832,1.5832,1.5832,1.5635,1.5445,1.5458,1.5172,1.4885,1.4885,1.4496,1.4298,1.4298,1.4298,1.4298,1.4298,1.4298,1.4298,1.4298,1.4298,1.4298,1.4298,1.4298,1.4298,1.4298,1.4298,1.4298,1.4298,1.4298,1.449,1.4731,1.4983,1.5303,1.5549,1.5785,1.5891,1.5891,1.5891,1.5891,1.5998,2.8571,2.7831,2.7262,2.7262,2.7094,2.653,2.5391,2.4944,2.3862,2.1273,2.0815,2.0198,1.8678,1.8393,1.8287,1.7911,1.7907,1.7943,1.8304,1.8318,1.8639,1.9272,1.9776,2.0181,2.0189,2.0712,2.0925,2.0925,2.0925,2.0783,2.0507,1.7945,1.666,1.6388,1.3924,1.2764,1.2764,1.2764,1.2764,1.2764,1.2764,1.2764,1.2878,1.4039,1.463,1.5115,1.7396,1.9,1.9964,1.9876,1.9558,1.9186,1.8704,1.8315,1.7953,1.775,1.7538,1.7326,1.7326,1.7326,1.7326,1.7326,1.7326,1.7326,1.7326,1.7326,1.7333,1.7239,1.7059,1.6878,1.6588,1.6305,1.6028,1.5832,1.5832,1.5832,1.5832,1.5832,1.5825,1.5737,1.5547,1.5356,1.5083,1.479,1.4688,1.4688,1.449,1.4298,1.4298,1.4298,1.4298,1.4298,1.4298,1.4298,1.4298,1.4298,1.4298,1.4298,1.4298,1.4298,1.4298,1.4298,1.4298,1.4298,1.4298,1.452,1.4799,1.5008,1.5334,1.5617,1.5804,1.5891,1.5891,1.5891,1.5891,1.5891,2.8571,2.7831,2.7262,2.7262,2.6259,2.5401,2.5248,2.3954,2.2503,2.1086,2.0594,1.9881,1.8636,1.8207,1.7964,1.7946,1.7791,1.764,1.7687,1.8108,1.8639,1.9272,1.9776,2.0292,2.0814,2.0814,2.0925,2.0925,2.0925,2.035,1.913,1.7545,1.6143,1.5004,1.3459,1.2764,1.2764,1.2764,1.2764,1.2764,1.2764,1.2764,1.2867,1.2991,1.3803,1.4875,1.5239,1.6542,1.8297,1.9153,1.9115,1.8551,1.8256,1.7938,1.7729,1.7478,1.7362,1.7326,1.7326,1.7326,1.7326,1.7326,1.7326,1.7326,1.7326,1.7326,1.7239,1.7066,1.6871,1.6588,1.6312,1.6028,1.5832,1.5832,1.5832,1.5832,1.5832,1.5832,1.573,1.554,1.5267,1.5077,1.479,1.4688,1.4688,1.4688,1.449,1.4298,1.4298,1.4298,1.4298,1.4298,1.4298,1.4298,1.4298,1.4298,1.4298,1.4298,1.4298,1.4298,1.4298,1.4298,1.4298,1.4298,1.4298,1.4624,1.506,1.5081,1.5348,1.5896,1.5883,1.5891,1.5891,1.5891,1.5891,1.5891,2.9128,2.8102,2.7262,2.7262,2.6802,2.6374,2.6374,2.5486,2.4392,2.3024,2.1898,2.072,1.9253,1.8245,1.7701,1.7701,1.7607,1.7687,1.8003,1.8318,1.884,1.968,1.9983,2.0395,2.0917,2.0925,2.0925,2.0925,2.01,1.9524,1.8861,1.6647,1.5375,1.4752,1.3442,1.2764,1.2764,1.2764,1.2764,1.2764,1.2764,1.2764,1.2764,1.2764,1.3208,1.3797,1.452,1.5745,1.7112,1.8177,1.8063,1.7707,1.7994,1.79,1.7628,1.7426,1.7326,1.7138,1.656,1.685,1.7138,1.656,1.685,1.7326,1.7326,1.7239,1.7066,1.6979,1.6784,1.6494,1.6224,1.6021,1.5832,1.5832,1.5832,1.5832,1.5832,1.573,1.5445,1.507,1.4981,1.479,1.4694,1.4592,1.4496,1.4688,1.449,1.4298,1.4298,1.4298,1.4298,1.4298,1.4298,1.4298,1.4298,1.4298,1.4298,1.4298,1.4298,1.4298,1.4298,1.4298,1.4298,1.4298,1.4298,1.4643,1.5115,1.5093,1.5469,1.5952,1.5895,1.5891,1.5891,1.5891,1.5891,1.5891]}]]